Wetterdaten: Dienstag, 13.06.2017
Datum Zeit Temp. A. Pool Temp. Feuchte A. Luftdruck Regen Wind Richtung Richtung Sonnenschein ET UV Solar Taupunkt Windchill Windben Empfang
13.06.2017 00:00 21,3 C 23,9 C 58 % 1014,0 hPa 0,0 l/m 3,9 km/h (1 Bft) W 263 0 min 0,000 mm 0,0 UV-I 0 W/m 12,7 C 21,3 C 6,4 km/h (2 Bft) 97,83 %
13.06.2017 00:02 21,3 C 23,9 C 59 % 1014,0 hPa 0,0 l/m 3,0 km/h (1 Bft) W 263 0 min 0,000 mm 0,0 UV-I 0 W/m 13,0 C 21,3 C 4,8 km/h (1 Bft) 97,50 %
13.06.2017 00:04 21,3 C 23,9 C 58 % 1014,1 hPa 0,0 l/m 5,4 km/h (1 Bft) W 279 0 min 0,000 mm 0,0 UV-I 0 W/m 12,7 C 21,3 C 9,7 km/h (2 Bft) 100,00 %
13.06.2017 00:06 21,3 C 23,9 C 58 % 1014,1 hPa 0,0 l/m 5,5 km/h (1 Bft) W-SW 246 0 min 0,000 mm 0,0 UV-I 0 W/m 12,7 C 21,3 C 6,4 km/h (2 Bft) 98,00 %
13.06.2017 00:08 21,3 C 23,9 C 58 % 1014,1 hPa 0,0 l/m 5,3 km/h (1 Bft) W-SW 244 0 min 0,000 mm 0,0 UV-I 0 W/m 12,7 C 21,3 C 6,4 km/h (2 Bft) 100,00 %
13.06.2017 00:10 21,3 C 23,9 C 59 % 1014,2 hPa 0,0 l/m 5,1 km/h (1 Bft) W-SW 240 0 min 0,000 mm 0,0 UV-I 0 W/m 13,0 C 21,3 C 12,9 km/h (3 Bft) 100,00 %
13.06.2017 00:12 21,3 C 23,9 C 59 % 1014,2 hPa 0,0 l/m 5,6 km/h (1 Bft) W-SW 243 0 min 0,000 mm 0,0 UV-I 0 W/m 13,0 C 21,3 C 9,7 km/h (2 Bft) 98,18 %
13.06.2017 00:14 21,2 C 23,9 C 58 % 1014,2 hPa 0,0 l/m 6,7 km/h (2 Bft) W-SW 244 0 min 0,000 mm 0,0 UV-I 0 W/m 12,6 C 21,1 C 11,3 km/h (2 Bft) 100,00 %
13.06.2017 00:16 21,2 C 23,9 C 57 % 1014,2 hPa 0,0 l/m 8,7 km/h (2 Bft) W 266 0 min 0,000 mm 0,0 UV-I 0 W/m 12,3 C 20,4 C 14,5 km/h (3 Bft) 98,21 %
13.06.2017 00:18 21,2 C 23,9 C 57 % 1014,3 hPa 0,0 l/m 6,5 km/h (2 Bft) W 261 0 min 0,000 mm 0,0 UV-I 0 W/m 12,3 C 21,2 C 11,3 km/h (2 Bft) 94,00 %
13.06.2017 00:20 21,2 C 23,9 C 57 % 1014,2 hPa 0,0 l/m 6,9 km/h (2 Bft) W 263 0 min 0,000 mm 0,0 UV-I 0 W/m 12,3 C 21,0 C 11,3 km/h (2 Bft) 97,37 %
13.06.2017 00:22 21,2 C 23,9 C 57 % 1014,3 hPa 0,0 l/m 6,1 km/h (2 Bft) W-SW 258 0 min 0,000 mm 0,0 UV-I 0 W/m 12,3 C 21,2 C 11,3 km/h (2 Bft) 93,62 %
13.06.2017 00:24 21,2 C 23,9 C 57 % 1014,2 hPa 0,0 l/m 5,0 km/h (1 Bft) W 259 0 min 0,000 mm 0,0 UV-I 0 W/m 12,3 C 21,2 C 9,7 km/h (2 Bft) 97,87 %
13.06.2017 00:26 21,2 C 23,9 C 56 % 1014,2 hPa 0,0 l/m 6,6 km/h (2 Bft) W-SW 238 0 min 0,000 mm 0,0 UV-I 0 W/m 12,1 C 21,1 C 9,7 km/h (2 Bft) 94,00 %
13.06.2017 00:28 21,1 C 23,9 C 56 % 1014,2 hPa 0,0 l/m 8,8 km/h (2 Bft) W-SW 238 0 min 0,000 mm 0,0 UV-I 0 W/m 12,0 C 20,2 C 12,9 km/h (3 Bft) 96,00 %
13.06.2017 00:30 21,1 C 23,9 C 56 % 1014,3 hPa 0,0 l/m 7,7 km/h (2 Bft) W-SW 249 0 min 0,000 mm 0,0 UV-I 0 W/m 12,0 C 20,6 C 12,9 km/h (3 Bft) 92,68 %
13.06.2017 00:32 21,1 C 23,9 C 56 % 1014,2 hPa 0,0 l/m 7,6 km/h (2 Bft) W-SW 238 0 min 0,000 mm 0,0 UV-I 0 W/m 12,0 C 20,7 C 11,3 km/h (2 Bft) 96,00 %
13.06.2017 00:34 21,0 C 23,9 C 57 % 1014,3 hPa 0,0 l/m 6,7 km/h (2 Bft) SW 229 0 min 0,000 mm 0,0 UV-I 0 W/m 12,1 C 20,9 C 11,3 km/h (2 Bft) 88,68 %
13.06.2017 00:36 20,9 C 23,9 C 56 % 1014,3 hPa 0,0 l/m 6,7 km/h (2 Bft) SW 234 0 min 0,000 mm 0,0 UV-I 0 W/m 11,8 C 20,8 C 12,9 km/h (3 Bft) 97,87 %
13.06.2017 00:38 20,9 C 23,9 C 56 % 1014,3 hPa 0,0 l/m 7,6 km/h (2 Bft) SW 218 0 min 0,000 mm 0,0 UV-I 0 W/m 11,8 C 20,4 C 12,9 km/h (3 Bft) 95,74 %
13.06.2017 00:40 20,8 C 23,9 C 56 % 1014,3 hPa 0,0 l/m 9,5 km/h (2 Bft) S-SW 205 0 min 0,000 mm 0,0 UV-I 0 W/m 11,7 C 19,7 C 12,9 km/h (3 Bft) 100,00 %
13.06.2017 00:42 20,8 C 23,9 C 53 % 1014,4 hPa 0,0 l/m 11,9 km/h (2 Bft) W-SW 254 0 min 0,000 mm 0,0 UV-I 0 W/m 10,9 C 19,0 C 20,9 km/h (4 Bft) 97,22 %
13.06.2017 00:44 20,8 C 23,9 C 54 % 1014,5 hPa 0,0 l/m 8,9 km/h (2 Bft) SW 230 0 min 0,000 mm 0,0 UV-I 0 W/m 11,1 C 19,9 C 14,5 km/h (3 Bft) 97,44 %
13.06.2017 00:46 20,8 C 23,9 C 53 % 1014,5 hPa 0,0 l/m 13,7 km/h (3 Bft) W-SW 247 0 min 0,000 mm 0,0 UV-I 0 W/m 10,9 C 18,5 C 20,9 km/h (4 Bft) 97,56 %
13.06.2017 00:48 20,8 C 23,9 C 52 % 1014,5 hPa 0,0 l/m 13,1 km/h (3 Bft) W-SW 255 0 min 0,000 mm 0,0 UV-I 0 W/m 10,6 C 18,7 C 16,1 km/h (3 Bft) 96,43 %
13.06.2017 00:50 20,8 C 23,9 C 51 % 1014,5 hPa 0,0 l/m 7,6 km/h (2 Bft) W-SW 257 0 min 0,000 mm 0,0 UV-I 0 W/m 10,3 C 20,3 C 16,1 km/h (3 Bft) 93,62 %
13.06.2017 00:52 20,8 C 23,9 C 50 % 1014,5 hPa 0,0 l/m 9,3 km/h (2 Bft) SW 236 0 min 0,000 mm 0,0 UV-I 0 W/m 10,0 C 19,7 C 14,5 km/h (3 Bft) 100,00 %
13.06.2017 00:54 20,8 C 23,9 C 50 % 1014,5 hPa 0,0 l/m 5,9 km/h (2 Bft) W-SW 249 0 min 0,000 mm 0,0 UV-I 0 W/m 10,0 C 20,8 C 11,3 km/h (2 Bft) 96,30 %
13.06.2017 00:56 20,8 C 23,9 C 50 % 1014,6 hPa 0,0 l/m 6,5 km/h (2 Bft) W 278 0 min 0,000 mm 0,0 UV-I 0 W/m 10,0 C 20,8 C 11,3 km/h (2 Bft) 98,11 %
13.06.2017 00:58 20,7 C 23,9 C 51 % 1014,6 hPa 0,0 l/m 6,4 km/h (2 Bft) SW 235 0 min 0,000 mm 0,0 UV-I 0 W/m 10,2 C 20,7 C 11,3 km/h (2 Bft) 97,87 %
13.06.2017 01:00 20,7 C 23,9 C 50 % 1014,6 hPa 0,0 l/m 6,6 km/h (2 Bft) W-SW 253 0 min 0,051 mm 0,0 UV-I 0 W/m 9,9 C 20,6 C 9,7 km/h (2 Bft) 97,56 %
13.06.2017 01:02 20,7 C 23,9 C 50 % 1014,6 hPa 0,0 l/m 6,6 km/h (2 Bft) W-SW 247 0 min 0,000 mm 0,0 UV-I 0 W/m 9,9 C 20,6 C 11,3 km/h (2 Bft) 98,11 %
13.06.2017 01:04 20,7 C 23,9 C 51 % 1014,6 hPa 0,0 l/m 6,1 km/h (2 Bft) W-SW 250 0 min 0,000 mm 0,0 UV-I 0 W/m 10,2 C 20,7 C 14,5 km/h (3 Bft) 100,00 %
13.06.2017 01:06 20,7 C 23,9 C 50 % 1014,6 hPa 0,0 l/m 8,6 km/h (2 Bft) W 267 0 min 0,000 mm 0,0 UV-I 0 W/m 9,9 C 19,9 C 12,9 km/h (3 Bft) 100,00 %
13.06.2017 01:08 20,7 C 23,9 C 50 % 1014,7 hPa 0,0 l/m 7,8 km/h (2 Bft) W 271 0 min 0,000 mm 0,0 UV-I 0 W/m 9,9 C 20,2 C 12,9 km/h (3 Bft) 100,00 %
13.06.2017 01:10 20,6 C 23,9 C 50 % 1014,7 hPa 0,0 l/m 7,2 km/h (2 Bft) SW 232 0 min 0,000 mm 0,0 UV-I 0 W/m 9,8 C 20,3 C 12,9 km/h (3 Bft) 100,00 %
13.06.2017 01:12 20,6 C 23,9 C 50 % 1014,7 hPa 0,0 l/m 8,7 km/h (2 Bft) SW 225 0 min 0,000 mm 0,0 UV-I 0 W/m 9,8 C 19,7 C 12,9 km/h (3 Bft) 100,00 %
13.06.2017 01:14 20,5 C 23,9 C 51 % 1014,8 hPa 0,0 l/m 7,5 km/h (2 Bft) SW 224 0 min 0,000 mm 0,0 UV-I 0 W/m 10,0 C 20,1 C 12,9 km/h (3 Bft) 100,00 %
13.06.2017 01:16 20,4 C 23,9 C 51 % 1014,8 hPa 0,0 l/m 6,9 km/h (2 Bft) W-SW 258 0 min 0,000 mm 0,0 UV-I 0 W/m 9,9 C 20,2 C 9,7 km/h (2 Bft) 98,00 %
13.06.2017 01:18 20,4 C 23,9 C 51 % 1014,7 hPa 0,0 l/m 5,1 km/h (1 Bft) W-SW 249 0 min 0,000 mm 0,0 UV-I 0 W/m 9,9 C 20,4 C 8,0 km/h (2 Bft) 98,11 %
13.06.2017 01:20 20,3 C 23,9 C 51 % 1014,7 hPa 0,0 l/m 6,4 km/h (2 Bft) W-SW 252 0 min 0,000 mm 0,0 UV-I 0 W/m 9,8 C 20,3 C 11,3 km/h (2 Bft) 100,00 %
13.06.2017 01:22 20,3 C 23,9 C 51 % 1014,8 hPa 0,0 l/m 7,5 km/h (2 Bft) W 262 0 min 0,000 mm 0,0 UV-I 0 W/m 9,8 C 19,9 C 20,9 km/h (4 Bft) 98,11 %
13.06.2017 01:24 20,3 C 23,9 C 52 % 1014,8 hPa 0,0 l/m 8,9 km/h (2 Bft) SW 230 0 min 0,000 mm 0,0 UV-I 0 W/m 10,1 C 19,3 C 14,5 km/h (3 Bft) 100,00 %
13.06.2017 01:26 20,3 C 23,9 C 52 % 1014,8 hPa 0,0 l/m 10,4 km/h (2 Bft) W-SW 257 0 min 0,000 mm 0,0 UV-I 0 W/m 10,1 C 18,8 C 22,5 km/h (4 Bft) 95,45 %
13.06.2017 01:28 20,2 C 23,9 C 51 % 1014,8 hPa 0,0 l/m 11,1 km/h (2 Bft) W-SW 240 0 min 0,000 mm 0,0 UV-I 0 W/m 9,7 C 18,5 C 22,5 km/h (4 Bft) 100,00 %
13.06.2017 01:30 20,2 C 23,9 C 52 % 1014,8 hPa 0,0 l/m 7,4 km/h (2 Bft) SW 232 0 min 0,000 mm 0,0 UV-I 0 W/m 10,0 C 19,8 C 14,5 km/h (3 Bft) 98,11 %
13.06.2017 01:32 20,2 C 23,9 C 51 % 1014,8 hPa 0,0 l/m 8,0 km/h (2 Bft) W-SW 251 0 min 0,000 mm 0,0 UV-I 0 W/m 9,7 C 19,6 C 12,9 km/h (3 Bft) 97,56 %
13.06.2017 01:34 20,2 C 23,9 C 52 % 1014,9 hPa 0,0 l/m 7,9 km/h (2 Bft) SW 232 0 min 0,000 mm 0,0 UV-I 0 W/m 10,0 C 19,6 C 16,1 km/h (3 Bft) 98,00 %
13.06.2017 01:36 20,2 C 23,9 C 51 % 1014,9 hPa 0,0 l/m 8,6 km/h (2 Bft) SW 221 0 min 0,000 mm 0,0 UV-I 0 W/m 9,7 C 19,3 C 16,1 km/h (3 Bft) 97,56 %
13.06.2017 01:38 20,2 C 23,9 C 52 % 1015,0 hPa 0,0 l/m 8,3 km/h (2 Bft) W-SW 248 0 min 0,000 mm 0,0 UV-I 0 W/m 10,0 C 19,4 C 16,1 km/h (3 Bft) 98,00 %
13.06.2017 01:40 20,1 C 23,9 C 52 % 1015,0 hPa 0,0 l/m 9,2 km/h (2 Bft) W-SW 252 0 min 0,000 mm 0,0 UV-I 0 W/m 9,9 C 19,0 C 14,5 km/h (3 Bft) 98,00 %
13.06.2017 01:42 20,1 C 23,9 C 52 % 1015,0 hPa 0,0 l/m 7,6 km/h (2 Bft) W 267 0 min 0,000 mm 0,0 UV-I 0 W/m 9,9 C 19,6 C 12,9 km/h (3 Bft) 96,00 %
13.06.2017 01:44 20,1 C 23,9 C 52 % 1015,0 hPa 0,0 l/m 8,9 km/h (2 Bft) SW 233 0 min 0,000 mm 0,0 UV-I 0 W/m 9,9 C 19,1 C 14,5 km/h (3 Bft) 100,00 %
13.06.2017 01:46 20,1 C 23,9 C 52 % 1015,0 hPa 0,0 l/m 10,3 km/h (2 Bft) W-SW 250 0 min 0,000 mm 0,0 UV-I 0 W/m 9,9 C 18,7 C 16,1 km/h (3 Bft) 97,56 %
13.06.2017 01:48 20,0 C 23,9 C 53 % 1015,0 hPa 0,0 l/m 8,6 km/h (2 Bft) W-SW 252 0 min 0,000 mm 0,0 UV-I 0 W/m 10,1 C 19,1 C 12,9 km/h (3 Bft) 100,00 %
13.06.2017 01:50 20,0 C 23,9 C 53 % 1015,1 hPa 0,0 l/m 11,3 km/h (2 Bft) W-SW 250 0 min 0,000 mm 0,0 UV-I 0 W/m 10,1 C 18,2 C 17,7 km/h (3 Bft) 97,87 %
13.06.2017 01:52 20,0 C 23,9 C 52 % 1015,1 hPa 0,0 l/m 10,1 km/h (2 Bft) W-SW 241 0 min 0,000 mm 0,0 UV-I 0 W/m 9,8 C 18,6 C 14,5 km/h (3 Bft) 98,00 %
13.06.2017 01:54 20,0 C 23,9 C 52 % 1015,1 hPa 0,0 l/m 7,3 km/h (2 Bft) W 271 0 min 0,000 mm 0,0 UV-I 0 W/m 9,8 C 19,6 C 14,5 km/h (3 Bft) 100,00 %
13.06.2017 01:56 19,9 C 23,9 C 53 % 1015,1 hPa 0,0 l/m 8,2 km/h (2 Bft) W 262 0 min 0,000 mm 0,0 UV-I 0 W/m 10,0 C 19,2 C 12,9 km/h (3 Bft) 97,56 %
13.06.2017 01:58 19,9 C 23,9 C 53 % 1015,0 hPa 0,0 l/m 8,6 km/h (2 Bft) W-SW 240 0 min 0,000 mm 0,0 UV-I 0 W/m 10,0 C 19,0 C 12,9 km/h (3 Bft) 100,00 %
13.06.2017 02:00 19,9 C 23,9 C 53 % 1015,0 hPa 0,0 l/m 9,3 km/h (2 Bft) W-SW 238 0 min 0,000 mm 0,0 UV-I 0 W/m 10,0 C 18,8 C 14,5 km/h (3 Bft) 100,00 %
13.06.2017 02:02 19,8 C 23,9 C 53 % 1015,1 hPa 0,0 l/m 7,7 km/h (2 Bft) W-SW 246 0 min 0,076 mm 0,0 UV-I 0 W/m 9,9 C 19,3 C 11,3 km/h (2 Bft) 93,18 %
13.06.2017 02:04 19,8 C 23,9 C 53 % 1015,1 hPa 0,0 l/m 10,3 km/h (2 Bft) W-SW 245 0 min 0,000 mm 0,0 UV-I 0 W/m 9,9 C 18,3 C 17,7 km/h (3 Bft) 95,83 %
13.06.2017 02:06 19,8 C 23,9 C 53 % 1015,0 hPa 0,0 l/m 10,0 km/h (2 Bft) SW 232 0 min 0,000 mm 0,0 UV-I 0 W/m 9,9 C 18,4 C 16,1 km/h (3 Bft) 96,00 %
13.06.2017 02:08 19,8 C 23,9 C 53 % 1015,1 hPa 0,0 l/m 11,0 km/h (2 Bft) W-SW 258 0 min 0,000 mm 0,0 UV-I 0 W/m 9,9 C 18,1 C 17,7 km/h (3 Bft) 96,15 %
13.06.2017 02:10 19,8 C 23,9 C 53 % 1015,1 hPa 0,0 l/m 10,2 km/h (2 Bft) W-SW 256 0 min 0,000 mm 0,0 UV-I 0 W/m 9,9 C 18,4 C 16,1 km/h (3 Bft) 95,56 %
13.06.2017 02:12 19,8 C 23,9 C 53 % 1015,1 hPa 0,0 l/m 10,1 km/h (2 Bft) W-SW 242 0 min 0,000 mm 0,0 UV-I 0 W/m 9,9 C 18,4 C 14,5 km/h (3 Bft) 95,12 %
13.06.2017 02:14 19,7 C 23,9 C 53 % 1015,1 hPa 0,0 l/m 11,1 km/h (2 Bft) W 261 0 min 0,000 mm 0,0 UV-I 0 W/m 9,8 C 18,0 C 17,7 km/h (3 Bft) 98,11 %
13.06.2017 02:16 19,7 C 23,9 C 53 % 1015,2 hPa 0,0 l/m 11,5 km/h (2 Bft) W-SW 251 0 min 0,000 mm 0,0 UV-I 0 W/m 9,8 C 17,8 C 19,3 km/h (3 Bft) 95,74 %
13.06.2017 02:18 19,7 C 23,9 C 54 % 1015,1 hPa 0,0 l/m 10,9 km/h (2 Bft) W-SW 248 0 min 0,000 mm 0,0 UV-I 0 W/m 10,1 C 18,0 C 16,1 km/h (3 Bft) 96,15 %
13.06.2017 02:20 19,7 C 23,9 C 54 % 1015,1 hPa 0,0 l/m 11,2 km/h (2 Bft) W-NW 289 0 min 0,000 mm 0,0 UV-I 0 W/m 10,1 C 17,9 C 14,5 km/h (3 Bft) 91,94 %
13.06.2017 02:22 19,6 C 23,9 C 54 % 1015,1 hPa 0,0 l/m 11,0 km/h (2 Bft) W 261 0 min 0,000 mm 0,0 UV-I 0 W/m 10,0 C 17,9 C 16,1 km/h (3 Bft) 92,68 %
13.06.2017 02:24 19,6 C 23,9 C 54 % 1015,2 hPa 0,0 l/m 9,7 km/h (2 Bft) W-SW 250 0 min 0,000 mm 0,0 UV-I 0 W/m 10,0 C 18,3 C 17,7 km/h (3 Bft) 95,12 %
13.06.2017 02:26 19,5 C 23,9 C 54 % 1015,2 hPa 0,0 l/m 10,9 km/h (2 Bft) SW 223 0 min 0,000 mm 0,0 UV-I 0 W/m 9,9 C 17,8 C 16,1 km/h (3 Bft) 94,12 %
13.06.2017 02:28 19,4 C 23,9 C 54 % 1015,2 hPa 0,0 l/m 11,2 km/h (2 Bft) W-SW 255 0 min 0,000 mm 0,0 UV-I 0 W/m 9,8 C 17,6 C 16,1 km/h (3 Bft) 95,12 %
13.06.2017 02:30 19,4 C 23,9 C 55 % 1015,1 hPa 0,0 l/m 8,8 km/h (2 Bft) W 261 0 min 0,000 mm 0,0 UV-I 0 W/m 10,1 C 18,4 C 12,9 km/h (3 Bft) 92,59 %
13.06.2017 02:32 19,4 C 23,9 C 55 % 1015,1 hPa 0,0 l/m 8,4 km/h (2 Bft) W 263 0 min 0,000 mm 0,0 UV-I 0 W/m 10,1 C 18,6 C 12,9 km/h (3 Bft) 91,18 %
13.06.2017 02:34 19,3 C 23,9 C 55 % 1015,2 hPa 0,0 l/m 7,6 km/h (2 Bft) SW 229 0 min 0,000 mm 0,0 UV-I 0 W/m 10,0 C 18,8 C 11,3 km/h (2 Bft) 95,12 %
13.06.2017 02:36 19,3 C 23,9 C 55 % 1015,2 hPa 0,0 l/m 8,3 km/h (2 Bft) W-SW 256 0 min 0,000 mm 0,0 UV-I 0 W/m 10,0 C 18,5 C 14,5 km/h (3 Bft) 89,36 %
13.06.2017 02:38 19,2 C 23,9 C 55 % 1015,2 hPa 0,0 l/m 10,7 km/h (2 Bft) W-SW 241 0 min 0,000 mm 0,0 UV-I 0 W/m 9,9 C 17,5 C 17,7 km/h (3 Bft) 96,00 %
13.06.2017 02:40 19,2 C 23,9 C 56 % 1015,2 hPa 0,0 l/m 9,5 km/h (2 Bft) W-SW 251 0 min 0,000 mm 0,0 UV-I 0 W/m 10,2 C 17,9 C 16,1 km/h (3 Bft) 95,45 %
13.06.2017 02:42 19,2 C 23,9 C 55 % 1015,1 hPa 0,0 l/m 12,7 km/h (3 Bft) SW 224 0 min 0,000 mm 0,0 UV-I 0 W/m 9,9 C 16,9 C 16,1 km/h (3 Bft) 96,23 %
13.06.2017 02:44 19,2 C 23,9 C 55 % 1015,1 hPa 0,0 l/m 10,0 km/h (2 Bft) W-SW 254 0 min 0,000 mm 0,0 UV-I 0 W/m 9,9 C 17,8 C 14,5 km/h (3 Bft) 93,33 %
13.06.2017 02:46 19,2 C 23,9 C 55 % 1015,1 hPa 0,0 l/m 9,9 km/h (2 Bft) W-SW 248 0 min 0,000 mm 0,0 UV-I 0 W/m 9,9 C 17,8 C 14,5 km/h (3 Bft) 94,94 %
13.06.2017 02:48 19,1 C 23,9 C 56 % 1015,2 hPa 0,0 l/m 7,9 km/h (2 Bft) SW 230 0 min 0,000 mm 0,0 UV-I 0 W/m 10,1 C 18,4 C 11,3 km/h (2 Bft) 92,31 %
13.06.2017 02:50 19,1 C 23,9 C 55 % 1015,1 hPa 0,0 l/m 9,3 km/h (2 Bft) W 263 0 min 0,000 mm 0,0 UV-I 0 W/m 9,8 C 17,9 C 14,5 km/h (3 Bft) 95,74 %
13.06.2017 02:52 19,1 C 23,9 C 56 % 1015,2 hPa 0,0 l/m 8,3 km/h (2 Bft) W-SW 258 0 min 0,000 mm 0,0 UV-I 0 W/m 10,1 C 18,3 C 12,9 km/h (3 Bft) 95,74 %
13.06.2017 02:54 19,0 C 23,9 C 56 % 1015,1 hPa 0,0 l/m 9,5 km/h (2 Bft) W-SW 247 0 min 0,000 mm 0,0 UV-I 0 W/m 10,0 C 17,7 C 14,5 km/h (3 Bft) 97,56 %
13.06.2017 02:56 18,9 C 23,9 C 56 % 1015,2 hPa 0,0 l/m 7,7 km/h (2 Bft) W-SW 258 0 min 0,000 mm 0,0 UV-I 0 W/m 9,9 C 18,3 C 14,5 km/h (3 Bft) 96,61 %
13.06.2017 02:58 18,9 C 23,9 C 56 % 1015,2 hPa 0,0 l/m 6,6 km/h (2 Bft) W-SW 247 0 min 0,000 mm 0,0 UV-I 0 W/m 9,9 C 18,8 C 9,7 km/h (2 Bft) 94,74 %
13.06.2017 03:00 18,9 C 23,9 C 57 % 1015,2 hPa 0,0 l/m 8,2 km/h (2 Bft) W-SW 253 0 min 0,076 mm 0,0 UV-I 0 W/m 10,2 C 18,1 C 12,9 km/h (3 Bft) 96,00 %
13.06.2017 03:02 18,8 C 23,9 C 57 % 1015,2 hPa 0,0 l/m 8,4 km/h (2 Bft) W-SW 254 0 min 0,000 mm 0,0 UV-I 0 W/m 10,1 C 17,9 C 12,9 km/h (3 Bft) 95,74 %
13.06.2017 03:04 18,8 C 23,9 C 57 % 1015,2 hPa 0,0 l/m 9,4 km/h (2 Bft) W-SW 248 0 min 0,000 mm 0,0 UV-I 0 W/m 10,1 C 17,5 C 14,5 km/h (3 Bft) 98,00 %
13.06.2017 03:06 18,8 C 23,9 C 57 % 1015,2 hPa 0,0 l/m 9,4 km/h (2 Bft) W-SW 251 0 min 0,000 mm 0,0 UV-I 0 W/m 10,1 C 17,5 C 12,9 km/h (3 Bft) 96,23 %
13.06.2017 03:08 18,8 C 23,9 C 57 % 1015,2 hPa 0,0 l/m 7,0 km/h (2 Bft) W-SW 243 0 min 0,000 mm 0,0 UV-I 0 W/m 10,1 C 18,5 C 11,3 km/h (2 Bft) 97,73 %
13.06.2017 03:10 18,8 C 23,9 C 57 % 1015,1 hPa 0,0 l/m 6,0 km/h (2 Bft) W-SW 248 0 min 0,000 mm 0,0 UV-I 0 W/m 10,1 C 18,8 C 8,0 km/h (2 Bft) 100,00 %
13.06.2017 03:12 18,8 C 23,9 C 57 % 1015,1 hPa 0,0 l/m 6,4 km/h (2 Bft) W-SW 245 0 min 0,000 mm 0,0 UV-I 0 W/m 10,1 C 18,8 C 11,3 km/h (2 Bft) 97,37 %
13.06.2017 03:14 18,7 C 23,9 C 57 % 1015,2 hPa 0,0 l/m 7,2 km/h (2 Bft) W-SW 240 0 min 0,000 mm 0,0 UV-I 0 W/m 10,0 C 18,3 C 12,9 km/h (3 Bft) 100,00 %
13.06.2017 03:16 18,7 C 23,9 C 57 % 1015,1 hPa 0,0 l/m 8,6 km/h (2 Bft) W-SW 242 0 min 0,000 mm 0,0 UV-I 0 W/m 10,0 C 17,7 C 12,9 km/h (3 Bft) 98,11 %
13.06.2017 03:18 18,7 C 23,9 C 57 % 1015,1 hPa 0,0 l/m 8,4 km/h (2 Bft) W-SW 250 0 min 0,000 mm 0,0 UV-I 0 W/m 10,0 C 17,8 C 12,9 km/h (3 Bft) 97,37 %
13.06.2017 03:20 18,7 C 23,9 C 57 % 1015,1 hPa 0,0 l/m 9,2 km/h (2 Bft) W-SW 248 0 min 0,000 mm 0,0 UV-I 0 W/m 10,0 C 17,5 C 12,9 km/h (3 Bft) 96,23 %
13.06.2017 03:22 18,7 C 23,9 C 58 % 1015,0 hPa 0,0 l/m 7,1 km/h (2 Bft) W-SW 258 0 min 0,000 mm 0,0 UV-I 0 W/m 10,3 C 18,4 C 9,7 km/h (2 Bft) 92,31 %
13.06.2017 03:24 18,7 C 23,9 C 58 % 1015,1 hPa 0,0 l/m 6,3 km/h (2 Bft) W 260 0 min 0,000 mm 0,0 UV-I 0 W/m 10,3 C 18,7 C 11,3 km/h (2 Bft) 100,00 %
13.06.2017 03:26 18,7 C 23,9 C 58 % 1015,1 hPa 0,0 l/m 5,9 km/h (2 Bft) W-SW 255 0 min 0,000 mm 0,0 UV-I 0 W/m 10,3 C 18,7 C 11,3 km/h (2 Bft) 100,00 %
13.06.2017 03:28 18,6 C 23,9 C 58 % 1015,1 hPa 0,0 l/m 7,1 km/h (2 Bft) SW 235 0 min 0,000 mm 0,0 UV-I 0 W/m 10,2 C 18,3 C 11,3 km/h (2 Bft) 100,00 %
13.06.2017 03:30 18,6 C 23,9 C 58 % 1015,1 hPa 0,0 l/m 6,0 km/h (2 Bft) W 277 0 min 0,000 mm 0,0 UV-I 0 W/m 10,2 C 18,6 C 9,7 km/h (2 Bft) 100,00 %
13.06.2017 03:32 18,6 C 23,9 C 58 % 1015,0 hPa 0,0 l/m 4,9 km/h (1 Bft) W-SW 258 0 min 0,000 mm 0,0 UV-I 0 W/m 10,2 C 18,6 C 6,4 km/h (2 Bft) 100,00 %
13.06.2017 03:34 18,6 C 23,9 C 58 % 1015,0 hPa 0,0 l/m 6,6 km/h (2 Bft) W-SW 251 0 min 0,000 mm 0,0 UV-I 0 W/m 10,2 C 18,5 C 11,3 km/h (2 Bft) 97,73 %
13.06.2017 03:36 18,5 C 23,9 C 58 % 1015,0 hPa 0,0 l/m 8,0 km/h (2 Bft) W-SW 257 0 min 0,000 mm 0,0 UV-I 0 W/m 10,1 C 17,8 C 12,9 km/h (3 Bft) 100,00 %
13.06.2017 03:38 18,5 C 23,9 C 58 % 1015,0 hPa 0,0 l/m 7,4 km/h (2 Bft) W-SW 252 0 min 0,000 mm 0,0 UV-I 0 W/m 10,1 C 18,0 C 11,3 km/h (2 Bft) 98,00 %
13.06.2017 03:40 18,5 C 23,9 C 58 % 1015,0 hPa 0,0 l/m 8,4 km/h (2 Bft) W-SW 252 0 min 0,000 mm 0,0 UV-I 0 W/m 10,1 C 17,6 C 11,3 km/h (2 Bft) 100,00 %
13.06.2017 03:42 18,5 C 23,9 C 59 % 1015,0 hPa 0,0 l/m 7,7 km/h (2 Bft) W-SW 251 0 min 0,000 mm 0,0 UV-I 0 W/m 10,3 C 17,9 C 9,7 km/h (2 Bft) 94,00 %
13.06.2017 03:44 18,4 C 23,9 C 59 % 1015,0 hPa 0,0 l/m 7,4 km/h (2 Bft) W-SW 258 0 min 0,000 mm 0,0 UV-I 0 W/m 10,2 C 17,9 C 9,7 km/h (2 Bft) 92,11 %
13.06.2017 03:46 18,4 C 23,9 C 58 % 1015,0 hPa 0,0 l/m 6,7 km/h (2 Bft) W-SW 246 0 min 0,000 mm 0,0 UV-I 0 W/m 10,0 C 18,3 C 11,3 km/h (2 Bft) 100,00 %
13.06.2017 03:48 18,4 C 23,9 C 58 % 1015,0 hPa 0,0 l/m 6,7 km/h (2 Bft) W-SW 254 0 min 0,000 mm 0,0 UV-I 0 W/m 10,0 C 18,3 C 11,3 km/h (2 Bft) 98,00 %
13.06.2017 03:50 18,4 C 23,9 C 58 % 1014,9 hPa 0,0 l/m 6,9 km/h (2 Bft) SW 236 0 min 0,000 mm 0,0 UV-I 0 W/m 10,0 C 18,2 C 12,9 km/h (3 Bft) 100,00 %
13.06.2017 03:52 18,3 C 23,9 C 58 % 1014,9 hPa 0,0 l/m 6,6 km/h (2 Bft) W-SW 251 0 min 0,000 mm 0,0 UV-I 0 W/m 9,9 C 18,2 C 9,7 km/h (2 Bft) 94,74 %
13.06.2017 03:54 18,3 C 23,9 C 58 % 1014,9 hPa 0,0 l/m 6,8 km/h (2 Bft) W-SW 253 0 min 0,000 mm 0,0 UV-I 0 W/m 9,9 C 18,1 C 9,7 km/h (2 Bft) 98,00 %
13.06.2017 03:56 18,3 C 23,9 C 59 % 1014,9 hPa 0,0 l/m 6,5 km/h (2 Bft) W 262 0 min 0,000 mm 0,0 UV-I 0 W/m 10,1 C 18,3 C 11,3 km/h (2 Bft) 98,21 %
13.06.2017 03:58 18,2 C 23,9 C 59 % 1015,0 hPa 0,0 l/m 5,7 km/h (1 Bft) W-SW 238 0 min 0,000 mm 0,0 UV-I 0 W/m 10,1 C 18,2 C 8,0 km/h (2 Bft) 97,37 %
13.06.2017 04:00 18,2 C 23,9 C 60 % 1015,0 hPa 0,0 l/m 6,5 km/h (2 Bft) W-SW 245 0 min 0,051 mm 0,0 UV-I 0 W/m 10,3 C 18,2 C 8,0 km/h (2 Bft) 100,00 %
13.06.2017 04:02 18,1 C 23,9 C 60 % 1015,0 hPa 0,0 l/m 5,9 km/h (2 Bft) W 276 0 min 0,000 mm 0,0 UV-I 0 W/m 10,2 C 18,1 C 11,3 km/h (2 Bft) 92,31 %
13.06.2017 04:04 18,0 C 23,9 C 60 % 1015,0 hPa 0,0 l/m 6,3 km/h (2 Bft) W-SW 254 0 min 0,000 mm 0,0 UV-I 0 W/m 10,1 C 18,0 C 11,3 km/h (2 Bft) 96,00 %
13.06.2017 04:06 18,0 C 23,9 C 60 % 1015,0 hPa 0,0 l/m 6,3 km/h (2 Bft) W-SW 242 0 min 0,000 mm 0,0 UV-I 0 W/m 10,1 C 18,0 C 11,3 km/h (2 Bft) 100,00 %
13.06.2017 04:08 17,9 C 23,9 C 60 % 1015,0 hPa 0,0 l/m 7,9 km/h (2 Bft) W-SW 258 0 min 0,000 mm 0,0 UV-I 0 W/m 10,0 C 17,2 C 11,3 km/h (2 Bft) 98,11 %
13.06.2017 04:10 17,9 C 23,9 C 60 % 1015,0 hPa 0,0 l/m 6,9 km/h (2 Bft) W-SW 252 0 min 0,000 mm 0,0 UV-I 0 W/m 10,0 C 17,7 C 11,3 km/h (2 Bft) 100,00 %
13.06.2017 04:12 17,9 C 23,9 C 60 % 1015,0 hPa 0,0 l/m 7,4 km/h (2 Bft) SW 229 0 min 0,000 mm 0,0 UV-I 0 W/m 10,0 C 17,4 C 12,9 km/h (3 Bft) 97,73 %
13.06.2017 04:14 18,0 C 23,9 C 60 % 1014,9 hPa 0,0 l/m 5,8 km/h (2 Bft) W-SW 251 0 min 0,000 mm 0,0 UV-I 0 W/m 10,1 C 18,0 C 8,0 km/h (2 Bft) 100,00 %
13.06.2017 04:16 18,0 C 23,9 C 60 % 1014,9 hPa 0,0 l/m 7,1 km/h (2 Bft) W-SW 250 0 min 0,000 mm 0,0 UV-I 0 W/m 10,1 C 17,7 C 11,3 km/h (2 Bft) 97,87 %
13.06.2017 04:18 17,9 C 23,9 C 60 % 1015,0 hPa 0,0 l/m 7,6 km/h (2 Bft) SW 229 0 min 0,000 mm 0,0 UV-I 0 W/m 10,0 C 17,3 C 11,3 km/h (2 Bft) 98,00 %
13.06.2017 04:20 17,9 C 23,9 C 60 % 1015,0 hPa 0,0 l/m 7,4 km/h (2 Bft) W-SW 238 0 min 0,000 mm 0,0 UV-I 0 W/m 10,0 C 17,4 C 12,9 km/h (3 Bft) 92,68 %
13.06.2017 04:22 17,8 C 23,9 C 61 % 1015,0 hPa 0,0 l/m 6,0 km/h (2 Bft) W-SW 244 0 min 0,000 mm 0,0 UV-I 0 W/m 10,2 C 17,8 C 8,0 km/h (2 Bft) 98,11 %
13.06.2017 04:24 17,8 C 23,9 C 61 % 1015,0 hPa 0,0 l/m 6,1 km/h (2 Bft) W-SW 241 0 min 0,000 mm 0,0 UV-I 0 W/m 10,2 C 17,8 C 9,7 km/h (2 Bft) 94,34 %
13.06.2017 04:26 17,7 C 23,9 C 62 % 1015,0 hPa 0,0 l/m 6,4 km/h (2 Bft) SW 225 0 min 0,000 mm 0,0 UV-I 0 W/m 10,3 C 17,7 C 8,0 km/h (2 Bft) 95,12 %
13.06.2017 04:28 17,6 C 23,9 C 62 % 1015,0 hPa 0,0 l/m 5,9 km/h (2 Bft) SW 232 0 min 0,000 mm 0,0 UV-I 0 W/m 10,2 C 17,6 C 9,7 km/h (2 Bft) 96,00 %
13.06.2017 04:30 17,5 C 23,3 C 62 % 1015,0 hPa 0,0 l/m 4,8 km/h (1 Bft) W-SW 252 0 min 0,000 mm 0,0 UV-I 0 W/m 10,1 C 17,5 C 6,4 km/h (2 Bft) 96,00 %
13.06.2017 04:32 17,5 C 23,9 C 62 % 1015,0 hPa 0,0 l/m 5,3 km/h (1 Bft) W-SW 243 0 min 0,000 mm 0,0 UV-I 0 W/m 10,1 C 17,5 C 8,0 km/h (2 Bft) 97,14 %
13.06.2017 04:34 17,4 C 23,9 C 63 % 1015,1 hPa 0,0 l/m 6,3 km/h (2 Bft) W-SW 244 0 min 0,000 mm 0,0 UV-I 0 W/m 10,3 C 17,4 C 11,3 km/h (2 Bft) 90,57 %
13.06.2017 04:36 17,4 C 23,9 C 63 % 1015,0 hPa 0,0 l/m 5,2 km/h (1 Bft) W-SW 247 0 min 0,000 mm 0,0 UV-I 0 W/m 10,3 C 17,4 C 8,0 km/h (2 Bft) 96,00 %
13.06.2017 04:38 17,3 C 23,3 C 63 % 1015,0 hPa 0,0 l/m 4,6 km/h (1 Bft) SW 236 0 min 0,000 mm 0,0 UV-I 0 W/m 10,2 C 17,3 C 6,4 km/h (2 Bft) 95,12 %
13.06.2017 04:40 17,3 C 23,3 C 64 % 1015,0 hPa 0,0 l/m 6,5 km/h (2 Bft) W-SW 239 0 min 0,000 mm 0,0 UV-I 0 W/m 10,4 C 17,3 C 11,3 km/h (2 Bft) 96,00 %
13.06.2017 04:42 17,2 C 23,3 C 64 % 1015,1 hPa 0,0 l/m 5,7 km/h (1 Bft) SW 232 0 min 0,000 mm 0,0 UV-I 0 W/m 10,3 C 17,2 C 8,0 km/h (2 Bft) 95,56 %
13.06.2017 04:44 17,2 C 23,3 C 64 % 1015,0 hPa 0,0 l/m 6,6 km/h (2 Bft) SW 234 0 min 0,000 mm 0,0 UV-I 0 W/m 10,3 C 17,1 C 9,7 km/h (2 Bft) 96,15 %
13.06.2017 04:46 17,2 C 23,3 C 64 % 1015,0 hPa 0,0 l/m 5,5 km/h (1 Bft) SW 226 0 min 0,000 mm 0,0 UV-I 0 W/m 10,3 C 17,2 C 8,0 km/h (2 Bft) 95,56 %
13.06.2017 04:48 17,2 C 23,3 C 64 % 1015,0 hPa 0,0 l/m 5,6 km/h (1 Bft) SW 229 0 min 0,000 mm 0,0 UV-I 0 W/m 10,3 C 17,2 C 8,0 km/h (2 Bft) 97,56 %
13.06.2017 04:50 17,2 C 23,3 C 64 % 1015,0 hPa 0,0 l/m 6,2 km/h (2 Bft) SW 232 0 min 0,000 mm 0,0 UV-I 2 W/m 10,3 C 17,2 C 11,3 km/h (2 Bft) 95,74 %
13.06.2017 04:52 17,2 C 23,3 C 64 % 1015,0 hPa 0,0 l/m 6,8 km/h (2 Bft) SW 218 0 min 0,000 mm 0,0 UV-I 5 W/m 10,3 C 17,0 C 9,7 km/h (2 Bft) 94,34 %
13.06.2017 04:54 17,2 C 23,3 C 64 % 1015,0 hPa 0,0 l/m 6,4 km/h (2 Bft) SW 235 0 min 0,000 mm 0,0 UV-I 5 W/m 10,3 C 17,2 C 8,0 km/h (2 Bft) 97,56 %
13.06.2017 04:56 17,3 C 23,3 C 64 % 1015,0 hPa 0,0 l/m 4,8 km/h (1 Bft) SW 236 0 min 0,000 mm 0,0 UV-I 5 W/m 10,4 C 17,3 C 8,0 km/h (2 Bft) 98,11 %
13.06.2017 04:58 17,3 C 23,3 C 64 % 1014,9 hPa 0,0 l/m 4,2 km/h (1 Bft) SW 236 0 min 0,000 mm 0,0 UV-I 5 W/m 10,4 C 17,3 C 6,4 km/h (2 Bft) 100,00 %
13.06.2017 05:00 17,3 C 23,3 C 64 % 1015,0 hPa 0,0 l/m 4,4 km/h (1 Bft) W-SW 241 0 min 0,051 mm 0,0 UV-I 7 W/m 10,4 C 17,3 C 4,8 km/h (1 Bft) 95,74 %
13.06.2017 05:02 17,3 C 23,3 C 63 % 1014,9 hPa 0,0 l/m 4,0 km/h (1 Bft) W-SW 247 0 min 0,000 mm 0,0 UV-I 7 W/m 10,2 C 17,3 C 6,4 km/h (2 Bft) 97,22 %
13.06.2017 05:04 17,3 C 23,3 C 63 % 1014,9 hPa 0,0 l/m 3,6 km/h (1 Bft) W-SW 247 0 min 0,000 mm 0,0 UV-I 8 W/m 10,2 C 17,3 C 4,8 km/h (1 Bft) 98,21 %
13.06.2017 05:06 17,3 C 23,3 C 63 % 1014,9 hPa 0,0 l/m 5,2 km/h (1 Bft) W-SW 252 0 min 0,000 mm 0,0 UV-I 9 W/m 10,2 C 17,3 C 11,3 km/h (2 Bft) 97,56 %
13.06.2017 05:08 17,2 C 23,3 C 63 % 1015,0 hPa 0,0 l/m 6,6 km/h (2 Bft) W-SW 246 0 min 0,000 mm 0,0 UV-I 9 W/m 10,1 C 17,1 C 9,7 km/h (2 Bft) 96,23 %
13.06.2017 05:10 17,2 C 23,3 C 64 % 1015,0 hPa 0,0 l/m 6,8 km/h (2 Bft) W-SW 252 0 min 0,000 mm 0,0 UV-I 10 W/m 10,3 C 17,0 C 9,7 km/h (2 Bft) 94,74 %
13.06.2017 05:12 17,1 C 23,3 C 65 % 1015,0 hPa 0,0 l/m 7,7 km/h (2 Bft) W-SW 256 0 min 0,000 mm 0,0 UV-I 11 W/m 10,5 C 16,5 C 12,9 km/h (3 Bft) 98,11 %
13.06.2017 05:14 17,0 C 23,3 C 65 % 1015,0 hPa 0,0 l/m 6,5 km/h (2 Bft) W-SW 248 0 min 0,000 mm 0,0 UV-I 11 W/m 10,4 C 17,0 C 11,3 km/h (2 Bft) 98,00 %
13.06.2017 05:16 16,9 C 23,3 C 66 % 1014,9 hPa 0,0 l/m 5,5 km/h (1 Bft) SW 233 2 min 0,000 mm 0,0 UV-I 12 W/m 10,5 C 16,9 C 8,0 km/h (2 Bft) 94,74 %
13.06.2017 05:18 16,9 C 23,3 C 66 % 1014,9 hPa 0,0 l/m 5,7 km/h (1 Bft) SW 223 2 min 0,000 mm 0,0 UV-I 12 W/m 10,5 C 16,9 C 8,0 km/h (2 Bft) 100,00 %
13.06.2017 05:20 16,9 C 23,3 C 65 % 1014,9 hPa 0,0 l/m 5,0 km/h (1 Bft) SW 222 0 min 0,000 mm 0,0 UV-I 12 W/m 10,3 C 16,9 C 6,4 km/h (2 Bft) 95,74 %
13.06.2017 05:22 16,9 C 23,3 C 66 % 1015,0 hPa 0,0 l/m 5,3 km/h (1 Bft) SW 231 0 min 0,000 mm 0,0 UV-I 13 W/m 10,5 C 16,9 C 6,4 km/h (2 Bft) 100,00 %
13.06.2017 05:24 17,0 C 23,3 C 65 % 1015,1 hPa 0,0 l/m 5,3 km/h (1 Bft) SW 229 0 min 0,000 mm 0,0 UV-I 16 W/m 10,4 C 17,0 C 8,0 km/h (2 Bft) 96,00 %
13.06.2017 05:26 17,0 C 23,3 C 66 % 1015,1 hPa 0,0 l/m 6,2 km/h (2 Bft) SW 232 0 min 0,000 mm 0,0 UV-I 18 W/m 10,6 C 17,0 C 9,7 km/h (2 Bft) 95,83 %
13.06.2017 05:28 16,9 C 23,3 C 65 % 1015,1 hPa 0,0 l/m 5,8 km/h (2 Bft) SW 220 0 min 0,000 mm 0,0 UV-I 19 W/m 10,3 C 16,9 C 8,0 km/h (2 Bft) 95,74 %
13.06.2017 05:30 16,9 C 23,3 C 66 % 1015,1 hPa 0,0 l/m 6,5 km/h (2 Bft) SW 215 0 min 0,000 mm 0,0 UV-I 19 W/m 10,5 C 16,9 C 9,7 km/h (2 Bft) 97,14 %
13.06.2017 05:32 16,8 C 23,9 C 67 % 1015,1 hPa 0,0 l/m 4,6 km/h (1 Bft) SW 215 0 min 0,000 mm 0,0 UV-I 19 W/m 10,6 C 16,8 C 6,4 km/h (2 Bft) 100,00 %
13.06.2017 05:34 16,7 C 23,3 C 67 % 1015,1 hPa 0,0 l/m 4,7 km/h (1 Bft) SW 215 0 min 0,000 mm 0,0 UV-I 24 W/m 10,5 C 16,7 C 6,4 km/h (2 Bft) 98,21 %
13.06.2017 05:36 16,7 C 23,3 C 67 % 1015,2 hPa 0,0 l/m 4,1 km/h (1 Bft) SW 215 0 min 0,000 mm 0,0 UV-I 27 W/m 10,5 C 16,7 C 4,8 km/h (1 Bft) 97,56 %
13.06.2017 05:38 16,7 C 23,9 C 68 % 1015,2 hPa 0,0 l/m 4,1 km/h (1 Bft) SW 215 0 min 0,000 mm 0,0 UV-I 27 W/m 10,8 C 16,7 C 6,4 km/h (2 Bft) 98,00 %
13.06.2017 05:40 16,7 C 23,9 C 67 % 1015,2 hPa 0,0 l/m 4,2 km/h (1 Bft) SW 215 0 min 0,000 mm 0,0 UV-I 32 W/m 10,5 C 16,7 C 4,8 km/h (1 Bft) 100,00 %
13.06.2017 05:42 16,7 C 23,9 C 68 % 1015,2 hPa 0,0 l/m 4,2 km/h (1 Bft) SW 215 0 min 0,000 mm 0,0 UV-I 38 W/m 10,8 C 16,7 C 6,4 km/h (2 Bft) 100,00 %
13.06.2017 05:44 16,7 C 23,9 C 68 % 1015,2 hPa 0,0 l/m 4,2 km/h (1 Bft) SW 215 0 min 0,000 mm 0,0 UV-I 40 W/m 10,8 C 16,7 C 6,4 km/h (2 Bft) 100,00 %
13.06.2017 05:46 16,6 C 23,9 C 68 % 1015,1 hPa 0,0 l/m 4,7 km/h (1 Bft) S-SW 211 0 min 0,000 mm 0,0 UV-I 40 W/m 10,7 C 16,6 C 6,4 km/h (2 Bft) 100,00 %
13.06.2017 05:48 16,6 C 23,9 C 69 % 1015,0 hPa 0,0 l/m 2,9 km/h (1 Bft) S-SW 210 0 min 0,000 mm 0,0 UV-I 40 W/m 10,9 C 16,6 C 6,4 km/h (2 Bft) 96,23 %
13.06.2017 05:50 16,6 C 23,3 C 69 % 1015,1 hPa 0,0 l/m 4,8 km/h (1 Bft) SW 220 0 min 0,000 mm 0,0 UV-I 41 W/m 10,9 C 16,6 C 6,4 km/h (2 Bft) 97,37 %
13.06.2017 05:53 16,7 C 23,3 C 68 % 1015,0 hPa 0,0 l/m 4,1 km/h (1 Bft) SW 220 0 min 0,000 mm 0,0 UV-I 53 W/m 10,8 C 16,7 C 6,4 km/h (2 Bft) 96,10 %
13.06.2017 05:54 16,7 C 23,3 C 68 % 1015,0 hPa 0,0 l/m 3,8 km/h (1 Bft) SW 220 0 min 0,000 mm 0,0 UV-I 41 W/m 10,8 C 16,7 C 6,4 km/h (2 Bft) 96,15 %
13.06.2017 05:56 16,7 C 23,3 C 69 % 1015,1 hPa 0,0 l/m 3,4 km/h (1 Bft) SW 220 0 min 0,000 mm 0,0 UV-I 39 W/m 11,0 C 16,7 C 4,8 km/h (1 Bft) 97,22 %
13.06.2017 05:58 16,6 C 23,3 C 70 % 1015,2 hPa 0,0 l/m 3,4 km/h (1 Bft) SW 220 0 min 0,000 mm 0,0 UV-I 42 W/m 11,1 C 16,6 C 4,8 km/h (1 Bft) 94,23 %
13.06.2017 06:00 16,6 C 23,3 C 69 % 1015,1 hPa 0,0 l/m 5,0 km/h (1 Bft) SW 233 0 min 0,000 mm 0,0 UV-I 60 W/m 10,9 C 16,6 C 6,4 km/h (2 Bft) 96,00 %
13.06.2017 06:02 16,6 C 23,3 C 69 % 1015,2 hPa 0,0 l/m 4,6 km/h (1 Bft) SW 233 2 min 0,051 mm 0,0 UV-I 113 W/m 10,9 C 16,6 C 6,4 km/h (2 Bft) 95,24 %
13.06.2017 06:04 16,6 C 23,3 C 70 % 1015,1 hPa 0,0 l/m 3,1 km/h (1 Bft) SW 233 2 min 0,000 mm 0,0 UV-I 118 W/m 11,1 C 16,6 C 4,8 km/h (1 Bft) 98,11 %
13.06.2017 06:06 16,5 C 23,3 C 70 % 1015,0 hPa 0,0 l/m 3,5 km/h (1 Bft) SW 233 0 min 0,000 mm 0,0 UV-I 66 W/m 11,0 C 16,5 C 4,8 km/h (1 Bft) 96,00 %
13.06.2017 06:08 16,5 C 23,3 C 71 % 1015,1 hPa 0,0 l/m 3,5 km/h (1 Bft) SW 233 0 min 0,000 mm 0,0 UV-I 45 W/m 11,2 C 16,5 C 4,8 km/h (1 Bft) 95,74 %
13.06.2017 06:10 16,5 C 25,0 C 71 % 1015,1 hPa 0,0 l/m 4,2 km/h (1 Bft) SW 233 0 min 0,000 mm 0,0 UV-I 44 W/m 11,2 C 16,5 C 4,8 km/h (1 Bft) 97,37 %
13.06.2017 06:12 16,5 C 23,3 C 71 % 1015,2 hPa 0,0 l/m 4,7 km/h (1 Bft) SW 223 0 min 0,000 mm 0,0 UV-I 71 W/m 11,2 C 16,5 C 8,0 km/h (2 Bft) 92,86 %
13.06.2017 06:14 16,5 C 23,3 C 71 % 1015,2 hPa 0,0 l/m 4,6 km/h (1 Bft) SW 223 2 min 0,000 mm 0,0 UV-I 103 W/m 11,2 C 16,5 C 6,4 km/h (2 Bft) 95,74 %
13.06.2017 06:16 16,5 C 23,3 C 71 % 1015,2 hPa 0,0 l/m 4,9 km/h (1 Bft) SW 235 2 min 0,000 mm 0,0 UV-I 111 W/m 11,2 C 16,5 C 6,4 km/h (2 Bft) 97,14 %
13.06.2017 06:18 16,5 C 23,3 C 71 % 1015,3 hPa 0,0 l/m 5,0 km/h (1 Bft) W-SW 237 2 min 0,000 mm 0,0 UV-I 100 W/m 11,2 C 16,5 C 8,0 km/h (2 Bft) 98,21 %
13.06.2017 06:20 16,6 C 23,3 C 71 % 1015,2 hPa 0,0 l/m 3,7 km/h (1 Bft) W-SW 237 0 min 0,000 mm 0,0 UV-I 84 W/m 11,3 C 16,6 C 4,8 km/h (1 Bft) 95,12 %
13.06.2017 06:22 16,6 C 23,3 C 71 % 1015,2 hPa 0,0 l/m 2,4 km/h (1 Bft) W-SW 237 0 min 0,000 mm 0,0 UV-I 69 W/m 11,3 C 16,6 C 3,2 km/h (1 Bft) 96,23 %
13.06.2017 06:24 16,7 C 23,3 C 70 % 1015,2 hPa 0,0 l/m 2,0 km/h (1 Bft) W-SW 237 0 min 0,000 mm 0,0 UV-I 60 W/m 11,2 C 16,7 C 3,2 km/h (1 Bft) 92,11 %
13.06.2017 06:26 16,8 C 23,3 C 70 % 1015,2 hPa 0,0 l/m 2,9 km/h (1 Bft) W-SW 237 0 min 0,000 mm 0,0 UV-I 53 W/m 11,3 C 16,8 C 4,8 km/h (1 Bft) 92,45 %
13.06.2017 06:28 16,8 C 23,3 C 70 % 1015,2 hPa 0,0 l/m 4,2 km/h (1 Bft) W-SW 237 0 min 0,000 mm 0,0 UV-I 62 W/m 11,3 C 16,8 C 4,8 km/h (1 Bft) 95,74 %
13.06.2017 06:30 16,8 C 23,3 C 70 % 1015,2 hPa 0,0 l/m 3,9 km/h (1 Bft) SW 236 2 min 0,000 mm 0,0 UV-I 130 W/m 11,3 C 16,8 C 6,4 km/h (2 Bft) 92,68 %
13.06.2017 06:32 16,8 C 23,3 C 70 % 1015,2 hPa 0,0 l/m 3,8 km/h (1 Bft) SW 236 2 min 0,000 mm 0,0 UV-I 124 W/m 11,3 C 16,8 C 4,8 km/h (1 Bft) 93,62 %
13.06.2017 06:34 16,8 C 23,3 C 71 % 1015,2 hPa 0,0 l/m 2,9 km/h (1 Bft) SW 236 0 min 0,000 mm 0,0 UV-I 96 W/m 11,5 C 16,8 C 4,8 km/h (1 Bft) 92,45 %
13.06.2017 06:36 16,8 C 23,3 C 72 % 1015,3 hPa 0,0 l/m 3,7 km/h (1 Bft) SW 236 2 min 0,000 mm 0,0 UV-I 152 W/m 11,7 C 16,8 C 4,8 km/h (1 Bft) 93,62 %
13.06.2017 06:38 16,9 C 23,3 C 71 % 1015,3 hPa 0,0 l/m 4,9 km/h (1 Bft) SW 235 2 min 0,000 mm 0,0 UV-I 181 W/m 11,6 C 16,9 C 6,4 km/h (2 Bft) 87,50 %
13.06.2017 06:40 17,1 C 23,3 C 71 % 1015,4 hPa 0,0 l/m 4,1 km/h (1 Bft) SW 233 2 min 0,000 mm 0,0 UV-I 198 W/m 11,8 C 17,1 C 4,8 km/h (1 Bft) 92,31 %
13.06.2017 06:42 17,2 C 23,3 C 71 % 1015,4 hPa 0,0 l/m 4,7 km/h (1 Bft) SW 233 2 min 0,000 mm 0,0 UV-I 206 W/m 11,9 C 17,2 C 6,4 km/h (2 Bft) 91,43 %
13.06.2017 06:44 17,3 C 23,3 C 70 % 1015,4 hPa 0,0 l/m 3,9 km/h (1 Bft) SW 233 2 min 0,000 mm 0,0 UV-I 135 W/m 11,8 C 17,3 C 4,8 km/h (1 Bft) 89,29 %
13.06.2017 06:46 17,3 C 23,3 C 70 % 1015,4 hPa 0,0 l/m 4,6 km/h (1 Bft) SW 233 2 min 0,000 mm 0,0 UV-I 159 W/m 11,8 C 17,3 C 6,4 km/h (2 Bft) 95,74 %
13.06.2017 06:48 17,4 C 23,3 C 70 % 1015,4 hPa 0,0 l/m 3,7 km/h (1 Bft) SW 233 0 min 0,000 mm 0,0 UV-I 111 W/m 11,9 C 17,4 C 4,8 km/h (1 Bft) 95,74 %
13.06.2017 06:50 17,4 C 23,3 C 70 % 1015,3 hPa 0,0 l/m 3,9 km/h (1 Bft) SW 233 0 min 0,000 mm 0,0 UV-I 101 W/m 11,9 C 17,4 C 6,4 km/h (2 Bft) 96,23 %
13.06.2017 06:52 17,4 C 23,3 C 69 % 1015,2 hPa 0,0 l/m 2,5 km/h (1 Bft) SW 233 0 min 0,000 mm 0,0 UV-I 83 W/m 11,7 C 17,4 C 3,2 km/h (1 Bft) 90,91 %
13.06.2017 06:54 17,4 C 23,3 C 69 % 1015,2 hPa 0,0 l/m 4,2 km/h (1 Bft) SW 233 0 min 0,000 mm 0,0 UV-I 121 W/m 11,7 C 17,4 C 6,4 km/h (2 Bft) 96,23 %
13.06.2017 06:56 17,5 C 23,3 C 70 % 1015,2 hPa 0,0 l/m 3,4 km/h (1 Bft) SW 233 2 min 0,000 mm 0,0 UV-I 210 W/m 12,0 C 17,5 C 4,8 km/h (1 Bft) 94,74 %
13.06.2017 06:58 17,6 C 23,3 C 70 % 1015,3 hPa 0,0 l/m 4,2 km/h (1 Bft) SW 233 2 min 0,000 mm 0,0 UV-I 218 W/m 12,1 C 17,6 C 6,4 km/h (2 Bft) 96,00 %
13.06.2017 07:00 17,7 C 23,3 C 70 % 1015,4 hPa 0,0 l/m 4,5 km/h (1 Bft) SW 233 2 min 0,076 mm 0,0 UV-I 226 W/m 12,2 C 17,7 C 6,4 km/h (2 Bft) 96,30 %
13.06.2017 07:02 17,8 C 23,3 C 70 % 1015,5 hPa 0,0 l/m 4,9 km/h (1 Bft) SW 233 2 min 0,000 mm 0,0 UV-I 236 W/m 12,3 C 17,8 C 6,4 km/h (2 Bft) 97,14 %
13.06.2017 07:04 17,8 C 23,3 C 70 % 1015,4 hPa 0,0 l/m 4,0 km/h (1 Bft) SW 233 2 min 0,000 mm 0,1 UV-I 238 W/m 12,3 C 17,8 C 6,4 km/h (2 Bft) 93,18 %
13.06.2017 07:06 17,9 C 23,3 C 70 % 1015,5 hPa 0,0 l/m 4,9 km/h (1 Bft) W-SW 244 2 min 0,000 mm 0,5 UV-I 239 W/m 12,3 C 17,9 C 6,4 km/h (2 Bft) 98,21 %
13.06.2017 07:08 17,9 C 23,3 C 70 % 1015,4 hPa 0,0 l/m 4,5 km/h (1 Bft) SW 234 2 min 0,000 mm 0,5 UV-I 257 W/m 12,3 C 17,9 C 6,4 km/h (2 Bft) 97,56 %
13.06.2017 07:10 18,1 C 23,3 C 69 % 1015,4 hPa 0,0 l/m 4,2 km/h (1 Bft) W-SW 244 2 min 0,000 mm 0,5 UV-I 264 W/m 12,3 C 18,1 C 6,4 km/h (2 Bft) 94,64 %
13.06.2017 07:12 18,2 C 23,3 C 69 % 1015,5 hPa 0,0 l/m 4,0 km/h (1 Bft) SW 229 2 min 0,000 mm 0,5 UV-I 208 W/m 12,4 C 18,2 C 6,4 km/h (2 Bft) 97,37 %
13.06.2017 07:14 18,3 C 23,3 C 70 % 1015,4 hPa 0,0 l/m 3,8 km/h (1 Bft) SW 228 2 min 0,000 mm 0,5 UV-I 286 W/m 12,7 C 18,3 C 6,4 km/h (2 Bft) 100,00 %
13.06.2017 07:16 18,3 C 23,3 C 69 % 1015,3 hPa 0,0 l/m 2,0 km/h (1 Bft) SW 228 2 min 0,000 mm 0,6 UV-I 258 W/m 12,5 C 18,3 C 4,8 km/h (1 Bft) 97,87 %
13.06.2017 07:18 18,4 C 23,3 C 68 % 1015,3 hPa 0,0 l/m 3,1 km/h (1 Bft) W-SW 247 2 min 0,000 mm 0,6 UV-I 264 W/m 12,4 C 18,4 C 4,8 km/h (1 Bft) 97,56 %
13.06.2017 07:20 18,6 C 23,3 C 68 % 1015,3 hPa 0,0 l/m 5,0 km/h (1 Bft) W-SW 247 2 min 0,000 mm 0,6 UV-I 279 W/m 12,6 C 18,6 C 8,0 km/h (2 Bft) 96,00 %
13.06.2017 07:22 18,7 C 23,3 C 66 % 1015,4 hPa 0,0 l/m 6,1 km/h (2 Bft) W-SW 248 2 min 0,000 mm 0,6 UV-I 291 W/m 12,2 C 18,7 C 11,3 km/h (2 Bft) 92,31 %
13.06.2017 07:24 18,7 C 23,3 C 64 % 1015,4 hPa 0,0 l/m 5,0 km/h (1 Bft) SW 231 2 min 0,000 mm 0,7 UV-I 296 W/m 11,7 C 18,7 C 8,0 km/h (2 Bft) 94,87 %
13.06.2017 07:26 18,8 C 23,3 C 64 % 1015,4 hPa 0,0 l/m 5,5 km/h (1 Bft) W-SW 257 2 min 0,000 mm 0,7 UV-I 302 W/m 11,8 C 18,8 C 9,7 km/h (2 Bft) 100,00 %
13.06.2017 07:28 18,8 C 23,3 C 64 % 1015,4 hPa 0,0 l/m 5,5 km/h (1 Bft) W 267 2 min 0,000 mm 0,7 UV-I 297 W/m 11,8 C 18,8 C 9,7 km/h (2 Bft) 98,00 %
13.06.2017 07:30 18,8 C 23,3 C 65 % 1015,5 hPa 0,0 l/m 5,2 km/h (1 Bft) W 280 2 min 0,000 mm 0,7 UV-I 312 W/m 12,1 C 18,8 C 9,7 km/h (2 Bft) 96,23 %
13.06.2017 07:32 18,8 C 23,3 C 63 % 1015,4 hPa 0,0 l/m 5,3 km/h (1 Bft) W 264 2 min 0,000 mm 0,8 UV-I 326 W/m 11,6 C 18,8 C 9,7 km/h (2 Bft) 100,00 %
13.06.2017 07:34 18,8 C 23,3 C 64 % 1015,4 hPa 0,0 l/m 3,7 km/h (1 Bft) W-SW 257 2 min 0,000 mm 0,8 UV-I 343 W/m 11,8 C 18,8 C 6,4 km/h (2 Bft) 100,00 %
13.06.2017 07:36 18,8 C 23,3 C 62 % 1015,5 hPa 0,0 l/m 6,7 km/h (2 Bft) W-SW 238 2 min 0,000 mm 0,8 UV-I 344 W/m 11,4 C 18,7 C 12,9 km/h (3 Bft) 100,00 %
13.06.2017 07:38 18,9 C 23,3 C 63 % 1015,5 hPa 0,0 l/m 6,1 km/h (2 Bft) W-SW 237 2 min 0,000 mm 0,9 UV-I 337 W/m 11,7 C 18,9 C 11,3 km/h (2 Bft) 100,00 %
13.06.2017 07:40 19,1 C 23,3 C 61 % 1015,5 hPa 0,0 l/m 9,0 km/h (2 Bft) W 272 2 min 0,000 mm 0,9 UV-I 435 W/m 11,4 C 18,0 C 12,9 km/h (3 Bft) 95,74 %
13.06.2017 07:42 19,1 C 23,3 C 62 % 1015,5 hPa 0,0 l/m 5,7 km/h (1 Bft) W 260 2 min 0,000 mm 0,8 UV-I 263 W/m 11,6 C 19,1 C 11,3 km/h (2 Bft) 100,00 %
13.06.2017 07:44 19,2 C 23,3 C 63 % 1015,5 hPa 0,0 l/m 3,3 km/h (1 Bft) W 276 2 min 0,000 mm 0,8 UV-I 310 W/m 12,0 C 19,2 C 6,4 km/h (2 Bft) 98,11 %
13.06.2017 07:46 19,2 C 23,3 C 62 % 1015,5 hPa 0,0 l/m 7,5 km/h (2 Bft) SW 232 2 min 0,000 mm 0,8 UV-I 243 W/m 11,7 C 18,7 C 14,5 km/h (3 Bft) 98,00 %
13.06.2017 07:48 19,1 C 23,3 C 61 % 1015,5 hPa 0,0 l/m 7,1 km/h (2 Bft) W 265 0 min 0,000 mm 0,8 UV-I 194 W/m 11,4 C 18,8 C 11,3 km/h (2 Bft) 95,74 %
13.06.2017 07:50 19,1 C 23,3 C 63 % 1015,5 hPa 0,0 l/m 4,0 km/h (1 Bft) SW 225 0 min 0,000 mm 0,8 UV-I 145 W/m 11,9 C 19,1 C 9,7 km/h (2 Bft) 100,00 %
13.06.2017 07:52 19,0 C 23,3 C 62 % 1015,4 hPa 0,0 l/m 4,5 km/h (1 Bft) W 259 0 min 0,000 mm 1,0 UV-I 174 W/m 11,6 C 19,0 C 8,0 km/h (2 Bft) 100,00 %
13.06.2017 07:54 19,1 C 23,3 C 62 % 1015,5 hPa 0,0 l/m 4,3 km/h (1 Bft) W 271 2 min 0,000 mm 1,0 UV-I 339 W/m 11,6 C 19,1 C 6,4 km/h (2 Bft) 100,00 %
13.06.2017 07:56 19,2 C 23,3 C 63 % 1015,5 hPa 0,0 l/m 3,1 km/h (1 Bft) W-SW 255 2 min 0,000 mm 1,1 UV-I 408 W/m 12,0 C 19,2 C 6,4 km/h (2 Bft) 97,44 %
13.06.2017 07:58 19,2 C 23,3 C 60 % 1015,5 hPa 0,0 l/m 6,5 km/h (2 Bft) W-SW 253 2 min 0,000 mm 1,0 UV-I 360 W/m 11,2 C 19,2 C 11,3 km/h (2 Bft) 96,23 %
13.06.2017 08:00 19,3 C 23,3 C 61 % 1015,5 hPa 0,0 l/m 4,6 km/h (1 Bft) W-SW 244 2 min 0,203 mm 1,2 UV-I 378 W/m 11,6 C 19,3 C 6,4 km/h (2 Bft) 98,18 %
13.06.2017 08:02 19,4 C 23,3 C 60 % 1015,5 hPa 0,0 l/m 5,9 km/h (2 Bft) W-SW 254 2 min 0,000 mm 1,1 UV-I 419 W/m 11,4 C 19,4 C 12,9 km/h (3 Bft) 100,00 %
13.06.2017 08:04 19,5 C 23,3 C 59 % 1015,5 hPa 0,0 l/m 6,0 km/h (2 Bft) SW 227 2 min 0,000 mm 1,1 UV-I 350 W/m 11,3 C 19,5 C 9,7 km/h (2 Bft) 100,00 %
13.06.2017 08:06 19,6 C 23,3 C 60 % 1015,4 hPa 0,0 l/m 7,0 km/h (2 Bft) W-SW 247 2 min 0,000 mm 1,2 UV-I 462 W/m 11,6 C 19,3 C 12,9 km/h (3 Bft) 98,21 %
13.06.2017 08:08 19,7 C 23,3 C 58 % 1015,5 hPa 0,0 l/m 6,8 km/h (2 Bft) W-SW 254 2 min 0,000 mm 1,0 UV-I 477 W/m 11,2 C 19,5 C 14,5 km/h (3 Bft) 98,11 %
13.06.2017 08:10 19,7 C 23,3 C 59 % 1015,5 hPa 0,0 l/m 6,6 km/h (2 Bft) W-SW 244 2 min 0,000 mm 1,0 UV-I 271 W/m 11,5 C 19,6 C 12,9 km/h (3 Bft) 100,00 %
13.06.2017 08:12 19,6 C 23,3 C 59 % 1015,5 hPa 0,0 l/m 6,7 km/h (2 Bft) W 267 2 min 0,000 mm 1,1 UV-I 272 W/m 11,4 C 19,5 C 11,3 km/h (2 Bft) 98,21 %
13.06.2017 08:14 19,5 C 23,3 C 59 % 1015,4 hPa 0,0 l/m 8,4 km/h (2 Bft) W-SW 251 2 min 0,000 mm 1,1 UV-I 273 W/m 11,3 C 18,7 C 16,1 km/h (3 Bft) 98,00 %
13.06.2017 08:16 19,4 C 23,3 C 59 % 1015,4 hPa 0,0 l/m 6,6 km/h (2 Bft) W-NW 302 2 min 0,000 mm 1,1 UV-I 273 W/m 11,2 C 19,3 C 12,9 km/h (3 Bft) 97,56 %
13.06.2017 08:18 19,4 C 23,3 C 59 % 1015,5 hPa 0,0 l/m 8,9 km/h (2 Bft) W-SW 254 2 min 0,000 mm 1,1 UV-I 303 W/m 11,2 C 18,4 C 16,1 km/h (3 Bft) 94,34 %
13.06.2017 08:20 19,4 C 23,3 C 60 % 1015,4 hPa 0,0 l/m 5,9 km/h (2 Bft) W-SW 255 2 min 0,000 mm 1,1 UV-I 298 W/m 11,4 C 19,4 C 9,7 km/h (2 Bft) 98,00 %
13.06.2017 08:22 19,5 C 23,3 C 60 % 1015,5 hPa 0,0 l/m 3,5 km/h (1 Bft) W-SW 240 0 min 0,000 mm 1,0 UV-I 248 W/m 11,5 C 19,5 C 6,4 km/h (2 Bft) 94,74 %
13.06.2017 08:24 19,6 C 23,3 C 60 % 1015,5 hPa 0,0 l/m 4,5 km/h (1 Bft) W-SW 257 0 min 0,000 mm 1,0 UV-I 220 W/m 11,6 C 19,6 C 6,4 km/h (2 Bft) 93,62 %
13.06.2017 08:26 19,5 C 23,3 C 60 % 1015,4 hPa 0,0 l/m 4,2 km/h (1 Bft) W 261 0 min 0,000 mm 1,1 UV-I 209 W/m 11,5 C 19,5 C 9,7 km/h (2 Bft) 97,87 %
13.06.2017 08:28 19,4 C 23,3 C 61 % 1015,5 hPa 0,0 l/m 5,9 km/h (2 Bft) W-NW 292 0 min 0,000 mm 1,2 UV-I 239 W/m 11,7 C 19,4 C 11,3 km/h (2 Bft) 95,74 %
13.06.2017 08:30 19,4 C 23,3 C 61 % 1015,6 hPa 0,0 l/m 3,6 km/h (1 Bft) W 278 0 min 0,000 mm 1,2 UV-I 265 W/m 11,7 C 19,4 C 6,4 km/h (2 Bft) 98,00 %
13.06.2017 08:32 19,5 C 23,3 C 59 % 1015,5 hPa 0,0 l/m 5,5 km/h (1 Bft) W 259 0 min 0,000 mm 1,2 UV-I 272 W/m 11,3 C 19,5 C 9,7 km/h (2 Bft) 95,12 %
13.06.2017 08:34 19,6 C 23,3 C 60 % 1015,5 hPa 0,0 l/m 5,2 km/h (1 Bft) W 265 0 min 0,000 mm 1,2 UV-I 249 W/m 11,6 C 19,6 C 11,3 km/h (2 Bft) 97,62 %
13.06.2017 08:36 19,5 C 23,3 C 59 % 1015,5 hPa 0,0 l/m 6,2 km/h (2 Bft) W-SW 257 0 min 0,000 mm 1,2 UV-I 231 W/m 11,3 C 19,5 C 14,5 km/h (3 Bft) 94,64 %
13.06.2017 08:38 19,5 C 23,3 C 59 % 1015,5 hPa 0,0 l/m 9,6 km/h (2 Bft) W 260 0 min 0,000 mm 1,3 UV-I 245 W/m 11,3 C 18,2 C 16,1 km/h (3 Bft) 93,62 %
13.06.2017 08:40 19,5 C 23,3 C 58 % 1015,5 hPa 0,0 l/m 5,2 km/h (1 Bft) W 275 0 min 0,000 mm 1,4 UV-I 261 W/m 11,0 C 19,5 C 11,3 km/h (2 Bft) 97,37 %
13.06.2017 08:42 19,5 C 23,3 C 58 % 1015,5 hPa 0,0 l/m 4,6 km/h (1 Bft) W 271 0 min 0,000 mm 1,4 UV-I 236 W/m 11,0 C 19,5 C 6,4 km/h (2 Bft) 96,61 %
13.06.2017 08:44 19,5 C 23,3 C 61 % 1015,5 hPa 0,0 l/m 4,3 km/h (1 Bft) W-SW 248 0 min 0,000 mm 1,5 UV-I 257 W/m 11,8 C 19,5 C 9,7 km/h (2 Bft) 95,12 %
13.06.2017 08:46 19,6 C 23,3 C 61 % 1015,5 hPa 0,0 l/m 4,9 km/h (1 Bft) W 276 2 min 0,000 mm 1,6 UV-I 309 W/m 11,9 C 19,6 C 11,3 km/h (2 Bft) 98,11 %
13.06.2017 08:48 19,6 C 23,3 C 60 % 1015,5 hPa 0,0 l/m 4,6 km/h (1 Bft) W-SW 237 0 min 0,000 mm 1,5 UV-I 263 W/m 11,6 C 19,6 C 8,0 km/h (2 Bft) 92,68 %
13.06.2017 08:50 19,6 C 23,3 C 58 % 1015,5 hPa 0,0 l/m 5,6 km/h (1 Bft) W 271 0 min 0,000 mm 1,6 UV-I 256 W/m 11,1 C 19,6 C 9,7 km/h (2 Bft) 89,47 %
13.06.2017 08:52 19,7 C 23,3 C 59 % 1015,5 hPa 0,0 l/m 3,3 km/h (1 Bft) W 267 2 min 0,000 mm 1,8 UV-I 315 W/m 11,5 C 19,7 C 6,4 km/h (2 Bft) 100,00 %
13.06.2017 08:54 19,7 C 23,3 C 59 % 1015,5 hPa 0,0 l/m 6,0 km/h (2 Bft) W 266 2 min 0,000 mm 2,0 UV-I 432 W/m 11,5 C 19,7 C 12,9 km/h (3 Bft) 95,12 %
13.06.2017 08:56 19,8 C 23,3 C 58 % 1015,5 hPa 0,0 l/m 6,7 km/h (2 Bft) W-SW 247 2 min 0,000 mm 2,0 UV-I 372 W/m 11,3 C 19,7 C 11,3 km/h (2 Bft) 100,00 %
13.06.2017 08:58 19,8 C 23,3 C 58 % 1015,5 hPa 0,0 l/m 5,4 km/h (1 Bft) W 281 2 min 0,000 mm 2,2 UV-I 453 W/m 11,3 C 19,8 C 9,7 km/h (2 Bft) 97,37 %
13.06.2017 09:00 20,0 C 23,3 C 58 % 1015,5 hPa 0,0 l/m 4,0 km/h (1 Bft) W-NW 284 2 min 0,000 mm 2,3 UV-I 574 W/m 11,5 C 20,0 C 11,3 km/h (2 Bft) 98,00 %
13.06.2017 09:02 20,1 C 23,3 C 57 % 1015,5 hPa 0,0 l/m 4,2 km/h (1 Bft) W-NW 293 2 min 0,203 mm 2,1 UV-I 563 W/m 11,3 C 20,1 C 9,7 km/h (2 Bft) 97,56 %
13.06.2017 09:04 20,3 C 23,3 C 57 % 1015,5 hPa 0,0 l/m 3,2 km/h (1 Bft) W-SW 244 2 min 0,000 mm 1,9 UV-I 344 W/m 11,5 C 20,3 C 6,4 km/h (2 Bft) 98,11 %
13.06.2017 09:06 20,3 C 23,3 C 57 % 1015,5 hPa 0,0 l/m 3,5 km/h (1 Bft) W-SW 244 0 min 0,000 mm 1,7 UV-I 291 W/m 11,5 C 20,3 C 6,4 km/h (2 Bft) 98,11 %
13.06.2017 09:08 20,3 C 23,3 C 58 % 1015,5 hPa 0,0 l/m 3,8 km/h (1 Bft) S-SW 196 0 min 0,000 mm 1,8 UV-I 275 W/m 11,8 C 20,3 C 8,0 km/h (2 Bft) 97,37 %
13.06.2017 09:10 20,3 C 23,3 C 59 % 1015,4 hPa 0,0 l/m 5,9 km/h (2 Bft) W-SW 254 0 min 0,000 mm 1,9 UV-I 292 W/m 12,0 C 20,3 C 11,3 km/h (2 Bft) 100,00 %
13.06.2017 09:12 20,2 C 23,3 C 58 % 1015,5 hPa 0,0 l/m 7,1 km/h (2 Bft) SW 225 0 min 0,000 mm 1,9 UV-I 290 W/m 11,7 C 19,9 C 11,3 km/h (2 Bft) 100,00 %
13.06.2017 09:14 20,2 C 23,3 C 57 % 1015,4 hPa 0,0 l/m 8,3 km/h (2 Bft) W-SW 238 0 min 0,000 mm 1,9 UV-I 266 W/m 11,4 C 19,4 C 11,3 km/h (2 Bft) 97,01 %
13.06.2017 09:16 20,2 C 23,3 C 58 % 1015,4 hPa 0,0 l/m 4,8 km/h (1 Bft) SW 223 0 min 0,000 mm 2,6 UV-I 258 W/m 11,7 C 20,2 C 8,0 km/h (2 Bft) 97,87 %
13.06.2017 09:18 20,3 C 23,3 C 57 % 1015,5 hPa 0,0 l/m 6,8 km/h (2 Bft) W 277 0 min 0,000 mm 2,3 UV-I 225 W/m 11,5 C 20,1 C 11,3 km/h (2 Bft) 95,24 %
13.06.2017 09:20 20,4 C 23,3 C 58 % 1015,5 hPa 0,0 l/m 6,8 km/h (2 Bft) W-SW 242 2 min 0,000 mm 2,6 UV-I 600 W/m 11,9 C 20,2 C 11,3 km/h (2 Bft) 93,62 %
13.06.2017 09:22 20,6 C 23,3 C 57 % 1015,5 hPa 0,0 l/m 6,0 km/h (2 Bft) S-SW 213 2 min 0,000 mm 2,7 UV-I 657 W/m 11,8 C 20,6 C 11,3 km/h (2 Bft) 96,23 %
13.06.2017 09:24 20,7 C 23,3 C 57 % 1015,5 hPa 0,0 l/m 7,5 km/h (2 Bft) S-SW 209 2 min 0,000 mm 2,6 UV-I 407 W/m 11,9 C 20,3 C 12,9 km/h (3 Bft) 97,37 %
13.06.2017 09:26 20,8 C 23,3 C 56 % 1015,4 hPa 0,0 l/m 9,0 km/h (2 Bft) SW 217 2 min 0,000 mm 2,9 UV-I 590 W/m 11,7 C 19,8 C 14,5 km/h (3 Bft) 96,00 %
13.06.2017 09:28 20,8 C 23,3 C 55 % 1015,5 hPa 0,0 l/m 7,5 km/h (2 Bft) SW 234 2 min 0,000 mm 2,7 UV-I 647 W/m 11,4 C 20,4 C 11,3 km/h (2 Bft) 95,74 %
13.06.2017 09:30 20,8 C 23,3 C 55 % 1015,4 hPa 0,0 l/m 8,3 km/h (2 Bft) SW 225 2 min 0,000 mm 3,0 UV-I 639 W/m 11,4 C 20,1 C 12,9 km/h (3 Bft) 94,00 %
13.06.2017 09:32 20,9 C 23,3 C 55 % 1015,4 hPa 0,0 l/m 5,8 km/h (2 Bft) W-SW 252 2 min 0,000 mm 3,1 UV-I 643 W/m 11,5 C 20,9 C 11,3 km/h (2 Bft) 97,14 %
13.06.2017 09:34 21,2 C 23,3 C 58 % 1015,4 hPa 0,0 l/m 7,8 km/h (2 Bft) SW 229 2 min 0,000 mm 3,1 UV-I 648 W/m 12,6 C 20,7 C 14,5 km/h (3 Bft) 94,64 %
13.06.2017 09:36 21,3 C 23,3 C 56 % 1015,4 hPa 0,0 l/m 9,7 km/h (2 Bft) S-SW 198 2 min 0,000 mm 3,2 UV-I 642 W/m 12,2 C 20,2 C 16,1 km/h (3 Bft) 95,74 %
13.06.2017 09:38 21,6 C 23,3 C 56 % 1015,4 hPa 0,0 l/m 4,4 km/h (1 Bft) S-SW 194 2 min 0,000 mm 3,2 UV-I 658 W/m 12,4 C 21,6 C 11,3 km/h (2 Bft) 96,00 %
13.06.2017 09:40 21,6 C 23,3 C 54 % 1015,4 hPa 0,0 l/m 11,1 km/h (2 Bft) S-SW 211 2 min 0,000 mm 3,3 UV-I 653 W/m 11,9 C 20,1 C 16,1 km/h (3 Bft) 97,37 %
13.06.2017 09:42 21,7 C 23,3 C 54 % 1015,4 hPa 0,0 l/m 10,9 km/h (2 Bft) SW 215 2 min 0,000 mm 3,3 UV-I 671 W/m 12,0 C 20,3 C 16,1 km/h (3 Bft) 96,43 %
13.06.2017 09:44 21,7 C 23,3 C 53 % 1015,4 hPa 0,0 l/m 8,5 km/h (2 Bft) SW 236 2 min 0,000 mm 3,4 UV-I 674 W/m 11,7 C 21,0 C 16,1 km/h (3 Bft) 95,45 %
13.06.2017 09:46 21,7 C 23,3 C 50 % 1015,4 hPa 0,0 l/m 11,6 km/h (2 Bft) W 276 2 min 0,000 mm 3,5 UV-I 687 W/m 10,8 C 20,1 C 20,9 km/h (4 Bft) 96,30 %
13.06.2017 09:48 21,8 C 23,3 C 51 % 1015,4 hPa 0,0 l/m 7,3 km/h (2 Bft) W-SW 243 2 min 0,000 mm 3,6 UV-I 698 W/m 11,2 C 21,5 C 16,1 km/h (3 Bft) 97,01 %
13.06.2017 09:50 21,8 C 23,3 C 49 % 1015,4 hPa 0,0 l/m 13,6 km/h (3 Bft) W-SW 247 2 min 0,000 mm 3,6 UV-I 704 W/m 10,6 C 19,7 C 20,9 km/h (4 Bft) 95,74 %
13.06.2017 09:52 21,7 C 23,3 C 48 % 1015,4 hPa 0,0 l/m 12,8 km/h (3 Bft) W-SW 242 2 min 0,000 mm 3,7 UV-I 705 W/m 10,2 C 19,8 C 20,9 km/h (4 Bft) 96,00 %
13.06.2017 09:54 21,8 C 23,3 C 49 % 1015,4 hPa 0,0 l/m 9,2 km/h (2 Bft) SW 215 2 min 0,000 mm 3,7 UV-I 719 W/m 10,6 C 20,9 C 16,1 km/h (3 Bft) 94,87 %
13.06.2017 09:56 21,9 C 23,3 C 50 % 1015,4 hPa 0,0 l/m 9,2 km/h (2 Bft) SW 229 2 min 0,000 mm 3,8 UV-I 737 W/m 11,0 C 21,0 C 12,9 km/h (3 Bft) 98,00 %
13.06.2017 09:58 21,9 C 23,3 C 50 % 1015,4 hPa 0,0 l/m 6,4 km/h (2 Bft) W-SW 246 2 min 0,000 mm 3,9 UV-I 747 W/m 11,0 C 21,9 C 12,9 km/h (3 Bft) 96,00 %
13.06.2017 10:00 22,1 C 23,3 C 51 % 1015,4 hPa 0,0 l/m 6,4 km/h (2 Bft) SW 217 2 min 0,381 mm 3,9 UV-I 788 W/m 11,5 C 22,1 C 11,3 km/h (2 Bft) 97,78 %
13.06.2017 10:02 22,1 C 23,3 C 48 % 1015,4 hPa 0,0 l/m 8,6 km/h (2 Bft) W-NW 282 2 min 0,000 mm 3,8 UV-I 789 W/m 10,6 C 21,4 C 14,5 km/h (3 Bft) 97,87 %
13.06.2017 10:04 22,0 C 23,3 C 48 % 1015,4 hPa 0,0 l/m 7,4 km/h (2 Bft) W-SW 257 2 min 0,000 mm 4,0 UV-I 789 W/m 10,5 C 21,7 C 16,1 km/h (3 Bft) 95,74 %
13.06.2017 10:06 22,1 C 23,3 C 50 % 1015,3 hPa 0,0 l/m 6,3 km/h (2 Bft) W 264 2 min 0,000 mm 4,0 UV-I 726 W/m 11,2 C 22,1 C 12,9 km/h (3 Bft) 96,23 %
13.06.2017 10:08 22,2 C 23,3 C 51 % 1015,3 hPa 0,0 l/m 5,6 km/h (1 Bft) W 271 2 min 0,000 mm 3,9 UV-I 717 W/m 11,6 C 22,2 C 9,7 km/h (2 Bft) 93,10 %
13.06.2017 10:10 22,4 C 23,3 C 48 % 1015,3 hPa 0,0 l/m 7,9 km/h (2 Bft) W 273 2 min 0,000 mm 4,2 UV-I 752 W/m 10,8 C 21,9 C 11,3 km/h (2 Bft) 98,21 %
13.06.2017 10:12 22,4 C 23,3 C 49 % 1015,4 hPa 0,0 l/m 6,5 km/h (2 Bft) W-NW 300 2 min 0,000 mm 4,2 UV-I 763 W/m 11,2 C 22,4 C 14,5 km/h (3 Bft) 97,73 %
13.06.2017 10:14 22,4 C 23,3 C 47 % 1015,4 hPa 0,0 l/m 9,4 km/h (2 Bft) W 272 2 min 0,000 mm 4,3 UV-I 768 W/m 10,5 C 21,5 C 17,7 km/h (3 Bft) 94,64 %
13.06.2017 10:16 22,3 C 23,9 C 49 % 1015,4 hPa 0,0 l/m 12,3 km/h (3 Bft) W-SW 252 2 min 0,000 mm 4,4 UV-I 768 W/m 11,1 C 20,6 C 16,1 km/h (3 Bft) 95,45 %
13.06.2017 10:18 22,4 C 23,9 C 47 % 1015,4 hPa 0,0 l/m 13,0 km/h (3 Bft) W 259 2 min 0,000 mm 4,4 UV-I 775 W/m 10,5 C 20,6 C 17,7 km/h (3 Bft) 92,00 %
13.06.2017 10:20 22,3 C 23,9 C 46 % 1015,4 hPa 0,0 l/m 12,5 km/h (3 Bft) W 269 2 min 0,000 mm 4,4 UV-I 768 W/m 10,1 C 20,6 C 17,7 km/h (3 Bft) 89,36 %
13.06.2017 10:22 22,2 C 23,9 C 48 % 1015,3 hPa 0,0 l/m 9,2 km/h (2 Bft) W-NW 295 2 min 0,000 mm 4,5 UV-I 763 W/m 10,7 C 21,3 C 17,7 km/h (3 Bft) 92,68 %
13.06.2017 10:24 22,2 C 23,9 C 49 % 1015,3 hPa 0,0 l/m 5,4 km/h (1 Bft) SW 221 2 min 0,000 mm 4,5 UV-I 766 W/m 11,0 C 22,2 C 16,1 km/h (3 Bft) 94,34 %
13.06.2017 10:26 22,3 C 23,9 C 49 % 1015,3 hPa 0,0 l/m 12,1 km/h (2 Bft) W-SW 244 2 min 0,000 mm 4,6 UV-I 769 W/m 11,1 C 20,7 C 19,3 km/h (3 Bft) 95,12 %
13.06.2017 10:28 22,4 C 23,9 C 51 % 1015,4 hPa 0,0 l/m 5,0 km/h (1 Bft) W 259 2 min 0,000 mm 4,6 UV-I 772 W/m 11,8 C 22,4 C 9,7 km/h (2 Bft) 96,00 %
13.06.2017 10:30 22,8 C 23,9 C 49 % 1015,3 hPa 0,0 l/m 9,5 km/h (2 Bft) W 270 2 min 0,000 mm 4,7 UV-I 774 W/m 11,5 C 21,9 C 14,5 km/h (3 Bft) 94,00 %
13.06.2017 10:32 22,7 C 23,9 C 46 % 1015,4 hPa 0,0 l/m 11,0 km/h (2 Bft) W 273 2 min 0,000 mm 4,7 UV-I 779 W/m 10,5 C 21,4 C 19,3 km/h (3 Bft) 94,87 %
13.06.2017 10:34 22,6 C 23,9 C 46 % 1015,4 hPa 0,0 l/m 5,7 km/h (1 Bft) W 274 2 min 0,000 mm 4,8 UV-I 781 W/m 10,4 C 22,6 C 11,3 km/h (2 Bft) 98,00 %
13.06.2017 10:36 22,4 C 23,9 C 48 % 1015,4 hPa 0,0 l/m 9,9 km/h (2 Bft) W 280 2 min 0,000 mm 4,8 UV-I 788 W/m 10,8 C 21,3 C 17,7 km/h (3 Bft) 97,96 %
13.06.2017 10:38 22,4 C 23,9 C 46 % 1015,4 hPa 0,0 l/m 9,2 km/h (2 Bft) W 279 2 min 0,000 mm 4,9 UV-I 793 W/m 10,2 C 21,5 C 16,1 km/h (3 Bft) 94,44 %
13.06.2017 10:40 22,4 C 23,9 C 48 % 1015,4 hPa 0,0 l/m 7,5 km/h (2 Bft) W-SW 240 2 min 0,000 mm 4,9 UV-I 792 W/m 10,8 C 22,0 C 12,9 km/h (3 Bft) 92,45 %
13.06.2017 10:42 22,6 C 23,9 C 47 % 1015,4 hPa 0,0 l/m 11,1 km/h (2 Bft) W 277 2 min 0,000 mm 5,0 UV-I 792 W/m 10,7 C 21,2 C 17,7 km/h (3 Bft) 97,56 %
13.06.2017 10:44 22,6 C 23,9 C 47 % 1015,4 hPa 0,0 l/m 8,3 km/h (2 Bft) W 270 2 min 0,000 mm 5,0 UV-I 796 W/m 10,7 C 22,0 C 14,5 km/h (3 Bft) 98,21 %
13.06.2017 10:46 22,8 C 23,9 C 45 % 1015,4 hPa 0,0 l/m 11,1 km/h (2 Bft) N 355 2 min 0,000 mm 5,1 UV-I 805 W/m 10,2 C 21,5 C 25,7 km/h (4 Bft) 97,56 %
13.06.2017 10:48 22,8 C 23,9 C 46 % 1015,3 hPa 0,0 l/m 9,8 km/h (2 Bft) W 267 2 min 0,000 mm 5,2 UV-I 810 W/m 10,6 C 21,8 C 17,7 km/h (3 Bft) 96,00 %
13.06.2017 10:50 22,9 C 23,9 C 47 % 1015,3 hPa 0,0 l/m 16,5 km/h (3 Bft) SW 234 2 min 0,000 mm 5,2 UV-I 812 W/m 11,0 C 20,5 C 25,7 km/h (4 Bft) 96,00 %
13.06.2017 10:52 22,9 C 23,9 C 46 % 1015,3 hPa 0,0 l/m 9,2 km/h (2 Bft) W-SW 245 2 min 0,000 mm 5,2 UV-I 813 W/m 10,7 C 22,1 C 16,1 km/h (3 Bft) 97,73 %
13.06.2017 10:54 22,9 C 23,9 C 47 % 1015,3 hPa 0,0 l/m 6,4 km/h (2 Bft) S-SW 207 2 min 0,000 mm 5,3 UV-I 813 W/m 11,0 C 22,9 C 14,5 km/h (3 Bft) 95,45 %
13.06.2017 10:56 23,1 C 23,9 C 48 % 1015,2 hPa 0,0 l/m 6,8 km/h (2 Bft) W-SW 248 2 min 0,000 mm 5,4 UV-I 818 W/m 11,5 C 23,0 C 16,1 km/h (3 Bft) 100,00 %
13.06.2017 10:58 22,9 C 23,9 C 47 % 1015,2 hPa 0,0 l/m 6,1 km/h (2 Bft) W 269 2 min 0,000 mm 5,4 UV-I 818 W/m 11,0 C 22,9 C 9,7 km/h (2 Bft) 97,73 %
13.06.2017 11:00 22,8 C 23,9 C 47 % 1015,3 hPa 0,0 l/m 6,0 km/h (2 Bft) W-NW 297 2 min 0,000 mm 5,4 UV-I 820 W/m 10,9 C 22,8 C 14,5 km/h (3 Bft) 95,12 %
13.06.2017 11:02 22,9 C 23,9 C 49 % 1015,3 hPa 0,0 l/m 7,9 km/h (2 Bft) W-NW 297 2 min 0,534 mm 5,5 UV-I 822 W/m 11,6 C 22,4 C 14,5 km/h (3 Bft) 96,00 %
13.06.2017 11:04 23,1 C 23,9 C 47 % 1015,3 hPa 0,0 l/m 7,6 km/h (2 Bft) S-SW 203 2 min 0,000 mm 5,6 UV-I 829 W/m 11,2 C 22,7 C 14,5 km/h (3 Bft) 100,00 %
13.06.2017 11:06 23,3 C 23,9 C 46 % 1015,2 hPa 0,0 l/m 13,4 km/h (3 Bft) W 260 2 min 0,000 mm 5,6 UV-I 827 W/m 11,0 C 21,5 C 19,3 km/h (3 Bft) 100,00 %
13.06.2017 11:08 23,4 C 23,9 C 46 % 1015,3 hPa 0,0 l/m 16,6 km/h (3 Bft) S 186 2 min 0,000 mm 5,7 UV-I 837 W/m 11,1 C 21,1 C 27,4 km/h (4 Bft) 95,24 %
13.06.2017 11:10 23,4 C 23,9 C 44 % 1015,2 hPa 0,0 l/m 13,4 km/h (3 Bft) W 259 2 min 0,000 mm 5,7 UV-I 840 W/m 10,4 C 21,7 C 19,3 km/h (3 Bft) 94,34 %
13.06.2017 11:12 23,3 C 23,9 C 46 % 1015,3 hPa 0,0 l/m 9,7 km/h (2 Bft) SW 236 2 min 0,000 mm 5,8 UV-I 842 W/m 11,0 C 22,4 C 16,1 km/h (3 Bft) 100,00 %
13.06.2017 11:14 23,4 C 23,9 C 48 % 1015,3 hPa 0,0 l/m 9,5 km/h (2 Bft) NW 309 2 min 0,000 mm 5,8 UV-I 847 W/m 11,8 C 22,5 C 17,7 km/h (3 Bft) 96,43 %
13.06.2017 11:16 23,5 C 23,9 C 46 % 1015,3 hPa 0,0 l/m 6,9 km/h (2 Bft) W 281 2 min 0,000 mm 5,9 UV-I 851 W/m 11,2 C 23,4 C 12,9 km/h (3 Bft) 95,92 %
13.06.2017 11:18 23,4 C 23,9 C 46 % 1015,2 hPa 0,0 l/m 14,6 km/h (3 Bft) SW 231 2 min 0,000 mm 5,9 UV-I 854 W/m 11,1 C 21,4 C 25,7 km/h (4 Bft) 94,44 %
13.06.2017 11:20 23,4 C 23,9 C 45 % 1015,2 hPa 0,0 l/m 13,2 km/h (3 Bft) W 279 2 min 0,000 mm 5,9 UV-I 856 W/m 10,8 C 21,7 C 19,3 km/h (3 Bft) 98,21 %
13.06.2017 11:22 23,4 C 23,9 C 46 % 1015,1 hPa 0,0 l/m 11,9 km/h (2 Bft) S-SO 152 2 min 0,000 mm 6,0 UV-I 859 W/m 11,1 C 22,0 C 20,9 km/h (4 Bft) 97,56 %
13.06.2017 11:24 23,5 C 23,9 C 47 % 1015,2 hPa 0,0 l/m 9,3 km/h (2 Bft) W-SW 258 2 min 0,000 mm 6,0 UV-I 859 W/m 11,5 C 22,7 C 14,5 km/h (3 Bft) 96,00 %
13.06.2017 11:26 23,6 C 23,9 C 50 % 1015,2 hPa 0,0 l/m 5,6 km/h (1 Bft) W 275 2 min 0,000 mm 6,1 UV-I 861 W/m 12,6 C 23,6 C 11,3 km/h (2 Bft) 94,34 %
13.06.2017 11:28 23,6 C 23,9 C 48 % 1015,2 hPa 0,0 l/m 5,1 km/h (1 Bft) NW 306 2 min 0,000 mm 6,1 UV-I 861 W/m 11,9 C 23,6 C 14,5 km/h (3 Bft) 97,56 %
13.06.2017 11:30 23,5 C 23,9 C 46 % 1015,2 hPa 0,0 l/m 8,6 km/h (2 Bft) W-SW 252 2 min 0,000 mm 6,1 UV-I 864 W/m 11,2 C 22,9 C 16,1 km/h (3 Bft) 97,56 %
13.06.2017 11:32 23,5 C 23,9 C 47 % 1015,2 hPa 0,0 l/m 11,2 km/h (2 Bft) W 279 2 min 0,000 mm 6,2 UV-I 868 W/m 11,5 C 22,2 C 16,1 km/h (3 Bft) 96,23 %
13.06.2017 11:34 23,6 C 23,9 C 45 % 1015,2 hPa 0,0 l/m 17,5 km/h (3 Bft) W 271 2 min 0,000 mm 6,2 UV-I 871 W/m 11,0 C 21,2 C 29,0 km/h (5 Bft) 97,56 %
13.06.2017 11:36 23,5 C 23,9 C 44 % 1015,2 hPa 0,0 l/m 13,9 km/h (3 Bft) W 261 2 min 0,000 mm 6,2 UV-I 875 W/m 10,5 C 21,7 C 25,7 km/h (4 Bft) 93,62 %
13.06.2017 11:38 23,6 C 23,9 C 44 % 1015,2 hPa 0,0 l/m 15,6 km/h (3 Bft) W-SW 244 2 min 0,000 mm 6,3 UV-I 878 W/m 10,6 C 21,5 C 27,4 km/h (4 Bft) 91,67 %
13.06.2017 11:40 23,4 C 23,9 C 45 % 1015,2 hPa 0,0 l/m 10,2 km/h (2 Bft) SW 219 2 min 0,000 mm 6,3 UV-I 876 W/m 10,8 C 22,3 C 17,7 km/h (3 Bft) 98,51 %
13.06.2017 11:42 23,5 C 23,9 C 46 % 1015,2 hPa 0,0 l/m 10,5 km/h (2 Bft) W 279 2 min 0,000 mm 6,3 UV-I 879 W/m 11,2 C 22,4 C 16,1 km/h (3 Bft) 96,61 %
13.06.2017 11:44 23,6 C 23,9 C 45 % 1015,2 hPa 0,0 l/m 13,1 km/h (3 Bft) W-SW 246 2 min 0,000 mm 6,4 UV-I 883 W/m 11,0 C 22,0 C 24,1 km/h (4 Bft) 95,12 %
13.06.2017 11:46 23,6 C 23,9 C 44 % 1015,1 hPa 0,0 l/m 19,2 km/h (3 Bft) SW 225 2 min 0,000 mm 6,5 UV-I 892 W/m 10,6 C 21,0 C 24,1 km/h (4 Bft) 95,74 %
13.06.2017 11:48 23,6 C 23,9 C 45 % 1015,1 hPa 0,0 l/m 14,6 km/h (3 Bft) W 278 2 min 0,000 mm 6,5 UV-I 890 W/m 11,0 C 21,7 C 19,3 km/h (3 Bft) 100,00 %
13.06.2017 11:50 23,6 C 23,9 C 44 % 1015,1 hPa 0,0 l/m 13,9 km/h (3 Bft) SW 223 2 min 0,000 mm 6,5 UV-I 891 W/m 10,6 C 21,8 C 24,1 km/h (4 Bft) 98,28 %
13.06.2017 11:52 23,6 C 23,9 C 45 % 1015,0 hPa 0,0 l/m 17,1 km/h (3 Bft) W-SW 257 2 min 0,000 mm 6,5 UV-I 892 W/m 11,0 C 21,3 C 24,1 km/h (4 Bft) 95,56 %
13.06.2017 11:54 23,6 C 23,9 C 46 % 1015,1 hPa 0,0 l/m 10,6 km/h (2 Bft) W-NW 292 2 min 0,000 mm 6,6 UV-I 892 W/m 11,3 C 22,5 C 17,7 km/h (3 Bft) 97,56 %
13.06.2017 11:56 23,6 C 23,9 C 47 % 1015,0 hPa 0,0 l/m 11,9 km/h (2 Bft) SW 214 2 min 0,000 mm 6,6 UV-I 891 W/m 11,6 C 22,2 C 24,1 km/h (4 Bft) 90,57 %
13.06.2017 11:58 23,6 C 23,9 C 48 % 1015,0 hPa 0,0 l/m 9,1 km/h (2 Bft) N-NW 328 2 min 0,000 mm 6,6 UV-I 894 W/m 11,9 C 22,8 C 19,3 km/h (3 Bft) 100,00 %
13.06.2017 12:00 23,7 C 23,9 C 45 % 1015,0 hPa 0,0 l/m 6,0 km/h (2 Bft) W-SW 254 2 min 0,609 mm 6,7 UV-I 899 W/m 11,1 C 23,7 C 11,3 km/h (2 Bft) 98,08 %
13.06.2017 12:02 23,8 C 23,9 C 46 % 1015,0 hPa 0,0 l/m 9,3 km/h (2 Bft) W-NW 288 2 min 0,000 mm 6,7 UV-I 899 W/m 11,5 C 23,0 C 20,9 km/h (4 Bft) 95,74 %
13.06.2017 12:04 23,8 C 23,9 C 45 % 1015,0 hPa 0,0 l/m 6,6 km/h (2 Bft) NO 34 2 min 0,000 mm 6,7 UV-I 899 W/m 11,1 C 23,7 C 14,5 km/h (3 Bft) 92,68 %
13.06.2017 12:06 23,9 C 23,9 C 46 % 1015,0 hPa 0,0 l/m 5,8 km/h (2 Bft) W-NW 302 2 min 0,000 mm 6,7 UV-I 899 W/m 11,6 C 23,9 C 14,5 km/h (3 Bft) 96,23 %
13.06.2017 12:08 23,9 C 23,9 C 47 % 1015,0 hPa 0,0 l/m 8,1 km/h (2 Bft) W-SW 243 2 min 0,000 mm 6,8 UV-I 901 W/m 11,9 C 23,4 C 14,5 km/h (3 Bft) 86,84 %
13.06.2017 12:10 23,9 C 23,9 C 45 % 1015,0 hPa 0,0 l/m 9,7 km/h (2 Bft) W-SW 249 2 min 0,000 mm 6,8 UV-I 902 W/m 11,2 C 23,0 C 17,7 km/h (3 Bft) 94,00 %
13.06.2017 12:12 24,2 C 23,9 C 46 % 1015,1 hPa 0,0 l/m 7,0 km/h (2 Bft) W 262 2 min 0,000 mm 6,8 UV-I 904 W/m 11,8 C 24,0 C 14,5 km/h (3 Bft) 96,00 %
13.06.2017 12:14 24,2 C 23,9 C 46 % 1015,0 hPa 0,0 l/m 10,1 km/h (2 Bft) W-SW 252 2 min 0,000 mm 6,8 UV-I 905 W/m 11,8 C 23,3 C 25,7 km/h (4 Bft) 98,00 %
13.06.2017 12:16 24,2 C 23,9 C 46 % 1015,0 hPa 0,0 l/m 13,9 km/h (3 Bft) W 271 2 min 0,000 mm 6,9 UV-I 908 W/m 11,8 C 22,5 C 22,5 km/h (4 Bft) 97,14 %
13.06.2017 12:18 24,2 C 23,9 C 46 % 1015,0 hPa 0,0 l/m 10,0 km/h (2 Bft) W-SW 256 2 min 0,000 mm 6,9 UV-I 909 W/m 11,8 C 23,3 C 16,1 km/h (3 Bft) 98,21 %
13.06.2017 12:20 24,2 C 23,9 C 47 % 1014,9 hPa 0,0 l/m 9,3 km/h (2 Bft) SW 223 2 min 0,000 mm 6,9 UV-I 885 W/m 12,2 C 23,4 C 17,7 km/h (3 Bft) 92,00 %
13.06.2017 12:22 24,4 C 23,9 C 45 % 1014,9 hPa 0,0 l/m 10,1 km/h (2 Bft) N-NO 14 2 min 0,000 mm 6,9 UV-I 910 W/m 11,7 C 23,5 C 20,9 km/h (4 Bft) 95,83 %
13.06.2017 12:24 24,3 C 23,9 C 44 % 1014,8 hPa 0,0 l/m 8,5 km/h (2 Bft) NW 321 2 min 0,000 mm 6,9 UV-I 913 W/m 11,3 C 23,7 C 16,1 km/h (3 Bft) 97,01 %
13.06.2017 12:26 24,2 C 23,9 C 46 % 1014,9 hPa 0,0 l/m 9,5 km/h (2 Bft) W-SW 252 2 min 0,000 mm 7,0 UV-I 913 W/m 11,8 C 23,4 C 20,9 km/h (4 Bft) 93,18 %
13.06.2017 12:28 24,1 C 23,9 C 45 % 1014,8 hPa 0,0 l/m 10,7 km/h (2 Bft) W-SW 257 2 min 0,000 mm 7,0 UV-I 915 W/m 11,4 C 23,0 C 17,7 km/h (3 Bft) 94,34 %
13.06.2017 12:30 24,1 C 23,9 C 45 % 1014,9 hPa 0,0 l/m 6,4 km/h (2 Bft) W-NW 296 2 min 0,000 mm 7,0 UV-I 914 W/m 11,4 C 24,1 C 16,1 km/h (3 Bft) 97,22 %
13.06.2017 12:32 24,5 C 23,9 C 46 % 1014,9 hPa 0,0 l/m 9,4 km/h (2 Bft) W-SW 242 2 min 0,000 mm 7,0 UV-I 914 W/m 12,1 C 23,7 C 19,3 km/h (3 Bft) 96,55 %
13.06.2017 12:34 24,5 C 23,9 C 43 % 1014,9 hPa 0,0 l/m 11,7 km/h (2 Bft) NW 313 2 min 0,000 mm 7,1 UV-I 916 W/m 11,1 C 23,3 C 19,3 km/h (3 Bft) 95,24 %
13.06.2017 12:36 24,5 C 23,9 C 45 % 1014,9 hPa 0,0 l/m 7,4 km/h (2 Bft) W-SW 248 2 min 0,000 mm 7,1 UV-I 900 W/m 11,8 C 24,2 C 14,5 km/h (3 Bft) 95,12 %
13.06.2017 12:38 24,5 C 23,9 C 46 % 1014,8 hPa 0,0 l/m 8,4 km/h (2 Bft) W 267 2 min 0,000 mm 7,1 UV-I 903 W/m 12,1 C 24,0 C 17,7 km/h (3 Bft) 92,00 %
13.06.2017 12:40 24,4 C 23,9 C 45 % 1014,8 hPa 0,0 l/m 8,7 km/h (2 Bft) S-SO 168 2 min 0,000 mm 7,1 UV-I 920 W/m 11,7 C 23,8 C 16,1 km/h (3 Bft) 90,24 %
13.06.2017 12:42 24,4 C 23,9 C 49 % 1014,8 hPa 0,0 l/m 7,9 km/h (2 Bft) W-SW 242 2 min 0,000 mm 7,1 UV-I 915 W/m 13,0 C 24,0 C 17,7 km/h (3 Bft) 96,23 %
13.06.2017 12:44 24,4 C 23,9 C 48 % 1014,8 hPa 0,0 l/m 7,2 km/h (2 Bft) N-NW 329 2 min 0,000 mm 7,2 UV-I 921 W/m 12,7 C 24,2 C 22,5 km/h (4 Bft) 97,73 %
13.06.2017 12:46 24,5 C 23,9 C 47 % 1014,8 hPa 0,0 l/m 9,2 km/h (2 Bft) W-NW 286 2 min 0,000 mm 7,1 UV-I 919 W/m 12,4 C 23,8 C 14,5 km/h (3 Bft) 96,00 %
13.06.2017 12:48 24,4 C 23,9 C 46 % 1014,8 hPa 0,0 l/m 9,5 km/h (2 Bft) SW 232 2 min 0,000 mm 7,1 UV-I 920 W/m 12,0 C 23,6 C 20,9 km/h (4 Bft) 96,00 %
13.06.2017 12:50 24,4 C 24,4 C 44 % 1014,7 hPa 0,0 l/m 15,0 km/h (3 Bft) W 273 2 min 0,000 mm 7,2 UV-I 921 W/m 11,3 C 22,6 C 25,7 km/h (4 Bft) 97,37 %
13.06.2017 12:52 24,6 C 24,4 C 46 % 1014,7 hPa 0,0 l/m 7,9 km/h (2 Bft) O 82 2 min 0,000 mm 7,2 UV-I 920 W/m 12,2 C 24,2 C 17,7 km/h (3 Bft) 96,43 %
13.06.2017 12:54 24,6 C 24,4 C 46 % 1014,7 hPa 0,0 l/m 8,1 km/h (2 Bft) NW 310 2 min 0,000 mm 7,2 UV-I 920 W/m 12,2 C 24,2 C 16,1 km/h (3 Bft) 97,56 %
13.06.2017 12:56 24,5 C 24,4 C 46 % 1014,7 hPa 0,0 l/m 9,7 km/h (2 Bft) W-NW 286 2 min 0,000 mm 7,2 UV-I 920 W/m 12,1 C 23,7 C 19,3 km/h (3 Bft) 98,11 %
13.06.2017 12:58 24,3 C 24,4 C 47 % 1014,7 hPa 0,0 l/m 6,0 km/h (2 Bft) W-NW 290 2 min 0,000 mm 7,2 UV-I 923 W/m 12,3 C 24,3 C 11,3 km/h (2 Bft) 93,62 %
13.06.2017 13:00 24,5 C 24,4 C 46 % 1014,7 hPa 0,0 l/m 6,6 km/h (2 Bft) W-SW 253 2 min 0,635 mm 7,2 UV-I 923 W/m 12,1 C 24,5 C 16,1 km/h (3 Bft) 97,37 %
13.06.2017 13:02 24,5 C 24,4 C 45 % 1014,8 hPa 0,0 l/m 9,2 km/h (2 Bft) W 277 2 min 0,000 mm 7,2 UV-I 925 W/m 11,8 C 23,8 C 16,1 km/h (3 Bft) 100,00 %
13.06.2017 13:04 24,4 C 24,4 C 48 % 1014,8 hPa 0,0 l/m 4,5 km/h (1 Bft) W 279 2 min 0,000 mm 7,2 UV-I 916 W/m 12,7 C 24,4 C 11,3 km/h (2 Bft) 90,91 %
13.06.2017 13:06 24,6 C 24,4 C 48 % 1014,8 hPa 0,0 l/m 6,1 km/h (2 Bft) SW 224 2 min 0,000 mm 7,2 UV-I 919 W/m 12,8 C 24,6 C 16,1 km/h (3 Bft) 98,00 %
13.06.2017 13:08 24,7 C 24,4 C 47 % 1014,8 hPa 0,0 l/m 8,9 km/h (2 Bft) W-SW 241 2 min 0,000 mm 7,2 UV-I 917 W/m 12,6 C 24,1 C 17,7 km/h (3 Bft) 100,00 %
13.06.2017 13:10 24,9 C 24,4 C 48 % 1014,8 hPa 0,0 l/m 9,3 km/h (2 Bft) W 281 2 min 0,000 mm 7,1 UV-I 915 W/m 13,1 C 24,2 C 16,1 km/h (3 Bft) 97,87 %
13.06.2017 13:12 24,8 C 24,4 C 47 % 1014,7 hPa 0,0 l/m 5,6 km/h (1 Bft) NW 323 2 min 0,000 mm 7,2 UV-I 920 W/m 12,7 C 24,8 C 14,5 km/h (3 Bft) 94,00 %
13.06.2017 13:14 24,8 C 24,4 C 45 % 1014,9 hPa 0,0 l/m 9,1 km/h (2 Bft) W 264 2 min 0,000 mm 7,2 UV-I 921 W/m 12,0 C 24,1 C 14,5 km/h (3 Bft) 97,56 %
13.06.2017 13:16 24,7 C 24,4 C 43 % 1014,8 hPa 0,0 l/m 11,3 km/h (2 Bft) SW 228 2 min 0,000 mm 7,2 UV-I 920 W/m 11,3 C 23,6 C 24,1 km/h (4 Bft) 100,00 %
13.06.2017 13:18 24,9 C 24,4 C 46 % 1014,8 hPa 0,0 l/m 6,0 km/h (2 Bft) SW 236 2 min 0,000 mm 7,2 UV-I 918 W/m 12,5 C 24,9 C 11,3 km/h (2 Bft) 100,00 %
13.06.2017 13:20 25,0 C 24,4 C 44 % 1014,8 hPa 0,0 l/m 7,0 km/h (2 Bft) W-NW 284 2 min 0,000 mm 7,2 UV-I 916 W/m 11,9 C 24,8 C 12,9 km/h (3 Bft) 100,00 %
13.06.2017 13:22 25,1 C 24,4 C 45 % 1014,7 hPa 0,0 l/m 7,3 km/h (2 Bft) SW 224 2 min 0,000 mm 7,2 UV-I 917 W/m 12,3 C 24,9 C 16,1 km/h (3 Bft) 95,12 %
13.06.2017 13:24 25,2 C 24,4 C 44 % 1014,7 hPa 0,0 l/m 13,3 km/h (3 Bft) SW 234 2 min 0,000 mm 7,2 UV-I 918 W/m 12,1 C 23,8 C 22,5 km/h (4 Bft) 96,23 %
13.06.2017 13:26 25,2 C 24,4 C 44 % 1014,8 hPa 0,0 l/m 15,1 km/h (3 Bft) W-SW 248 2 min 0,000 mm 7,2 UV-I 920 W/m 12,1 C 23,5 C 29,0 km/h (5 Bft) 95,74 %
13.06.2017 13:28 25,1 C 24,4 C 43 % 1014,8 hPa 0,0 l/m 17,6 km/h (3 Bft) W-SW 244 2 min 0,000 mm 7,1 UV-I 919 W/m 11,6 C 23,1 C 25,7 km/h (4 Bft) 95,12 %
13.06.2017 13:30 24,9 C 24,4 C 45 % 1014,7 hPa 0,0 l/m 14,9 km/h (3 Bft) W-SW 244 2 min 0,000 mm 7,1 UV-I 919 W/m 12,1 C 23,2 C 27,4 km/h (4 Bft) 95,45 %
13.06.2017 13:32 24,8 C 24,4 C 45 % 1014,8 hPa 0,0 l/m 13,0 km/h (3 Bft) W-NW 282 2 min 0,000 mm 7,1 UV-I 919 W/m 12,0 C 23,4 C 22,5 km/h (4 Bft) 91,49 %
13.06.2017 13:34 24,8 C 24,4 C 48 % 1014,6 hPa 0,0 l/m 8,3 km/h (2 Bft) SW 223 2 min 0,000 mm 7,1 UV-I 920 W/m 13,0 C 24,3 C 19,3 km/h (3 Bft) 92,59 %
13.06.2017 13:36 25,3 C 24,4 C 44 % 1014,6 hPa 0,0 l/m 15,7 km/h (3 Bft) W-NW 283 2 min 0,000 mm 7,1 UV-I 920 W/m 12,2 C 23,6 C 25,7 km/h (4 Bft) 94,52 %
13.06.2017 13:38 25,3 C 24,4 C 43 % 1014,8 hPa 0,0 l/m 13,5 km/h (3 Bft) W-SW 257 2 min 0,000 mm 7,1 UV-I 917 W/m 11,8 C 23,9 C 25,7 km/h (4 Bft) 93,18 %
13.06.2017 13:40 25,2 C 24,4 C 43 % 1014,7 hPa 0,0 l/m 11,7 km/h (2 Bft) W-SW 245 2 min 0,000 mm 7,0 UV-I 916 W/m 11,7 C 24,1 C 20,9 km/h (4 Bft) 93,62 %
13.06.2017 13:42 25,0 C 24,4 C 43 % 1014,6 hPa 0,0 l/m 8,2 km/h (2 Bft) W-NW 300 2 min 0,000 mm 7,0 UV-I 910 W/m 11,5 C 24,6 C 19,3 km/h (3 Bft) 89,36 %
13.06.2017 13:44 24,7 C 24,4 C 44 % 1014,6 hPa 0,0 l/m 7,6 km/h (2 Bft) W-NW 294 2 min 0,000 mm 7,0 UV-I 909 W/m 11,6 C 24,4 C 19,3 km/h (3 Bft) 96,00 %
13.06.2017 13:46 24,7 C 24,4 C 44 % 1014,6 hPa 0,0 l/m 7,0 km/h (2 Bft) W-SW 240 2 min 0,000 mm 7,0 UV-I 910 W/m 11,6 C 24,5 C 16,1 km/h (3 Bft) 94,00 %
13.06.2017 13:48 24,8 C 24,4 C 44 % 1014,6 hPa 0,0 l/m 12,4 km/h (3 Bft) S 185 2 min 0,000 mm 7,0 UV-I 909 W/m 11,7 C 23,5 C 19,3 km/h (3 Bft) 97,44 %
13.06.2017 13:50 24,8 C 24,4 C 43 % 1014,6 hPa 0,0 l/m 10,3 km/h (2 Bft) SW 234 2 min 0,000 mm 6,9 UV-I 904 W/m 11,4 C 23,9 C 16,1 km/h (3 Bft) 88,46 %
13.06.2017 13:52 24,8 C 24,4 C 45 % 1014,5 hPa 0,0 l/m 7,8 km/h (2 Bft) W 278 2 min 0,000 mm 7,0 UV-I 907 W/m 12,0 C 24,4 C 17,7 km/h (3 Bft) 97,44 %
13.06.2017 13:54 24,8 C 24,4 C 44 % 1014,5 hPa 0,0 l/m 8,0 km/h (2 Bft) W-NW 289 2 min 0,000 mm 7,0 UV-I 906 W/m 11,7 C 24,4 C 16,1 km/h (3 Bft) 92,86 %
13.06.2017 13:56 24,9 C 24,4 C 45 % 1014,5 hPa 0,0 l/m 6,4 km/h (2 Bft) W 260 2 min 0,000 mm 6,9 UV-I 907 W/m 12,1 C 24,9 C 14,5 km/h (3 Bft) 97,37 %
13.06.2017 13:58 25,1 C 24,4 C 44 % 1014,6 hPa 0,0 l/m 12,5 km/h (3 Bft) O-NO 62 2 min 0,000 mm 6,9 UV-I 905 W/m 12,0 C 23,8 C 19,3 km/h (3 Bft) 94,00 %
13.06.2017 14:00 25,0 C 24,4 C 43 % 1014,5 hPa 0,0 l/m 12,1 km/h (2 Bft) W 273 2 min 0,661 mm 6,9 UV-I 901 W/m 11,5 C 23,8 C 22,5 km/h (4 Bft) 94,44 %
13.06.2017 14:02 25,1 C 24,4 C 44 % 1014,5 hPa 0,0 l/m 9,9 km/h (2 Bft) W-NW 292 2 min 0,000 mm 6,8 UV-I 895 W/m 12,0 C 24,3 C 16,1 km/h (3 Bft) 97,56 %
13.06.2017 14:04 25,2 C 24,4 C 43 % 1014,5 hPa 0,0 l/m 11,0 km/h (2 Bft) SW 223 2 min 0,000 mm 6,8 UV-I 899 W/m 11,7 C 24,2 C 22,5 km/h (4 Bft) 93,18 %
13.06.2017 14:06 25,2 C 24,4 C 43 % 1014,5 hPa 0,0 l/m 12,5 km/h (3 Bft) W 274 2 min 0,000 mm 6,7 UV-I 896 W/m 11,7 C 23,9 C 19,3 km/h (3 Bft) 94,34 %
13.06.2017 14:08 25,1 C 24,4 C 42 % 1014,5 hPa 0,0 l/m 13,4 km/h (3 Bft) W-SW 253 2 min 0,000 mm 6,7 UV-I 898 W/m 11,3 C 23,7 C 29,0 km/h (5 Bft) 89,47 %
13.06.2017 14:10 25,1 C 24,4 C 43 % 1014,5 hPa 0,0 l/m 9,8 km/h (2 Bft) W 279 2 min 0,000 mm 6,7 UV-I 897 W/m 11,6 C 24,3 C 17,7 km/h (3 Bft) 94,55 %
13.06.2017 14:12 25,1 C 24,4 C 42 % 1014,4 hPa 0,0 l/m 11,0 km/h (2 Bft) W 267 2 min 0,000 mm 6,7 UV-I 895 W/m 11,3 C 24,1 C 24,1 km/h (4 Bft) 89,36 %
13.06.2017 14:14 25,1 C 25,0 C 42 % 1014,4 hPa 0,0 l/m 11,2 km/h (2 Bft) W-SW 254 2 min 0,000 mm 6,7 UV-I 893 W/m 11,3 C 24,0 C 20,9 km/h (4 Bft) 91,49 %
13.06.2017 14:16 25,3 C 25,0 C 45 % 1014,4 hPa 0,0 l/m 9,7 km/h (2 Bft) S-SW 200 2 min 0,000 mm 6,6 UV-I 888 W/m 12,5 C 24,6 C 20,9 km/h (4 Bft) 95,12 %
13.06.2017 14:18 25,4 C 25,0 C 43 % 1014,3 hPa 0,0 l/m 12,2 km/h (2 Bft) W-NW 294 2 min 0,000 mm 6,6 UV-I 888 W/m 11,9 C 24,2 C 17,7 km/h (3 Bft) 94,00 %
13.06.2017 14:20 25,4 C 25,0 C 41 % 1014,4 hPa 0,0 l/m 13,5 km/h (3 Bft) W 280 2 min 0,000 mm 6,6 UV-I 890 W/m 11,2 C 24,0 C 24,1 km/h (4 Bft) 92,00 %
13.06.2017 14:22 25,3 C 25,0 C 41 % 1014,4 hPa 0,0 l/m 11,3 km/h (2 Bft) W 276 2 min 0,000 mm 6,5 UV-I 885 W/m 11,1 C 24,3 C 22,5 km/h (4 Bft) 92,59 %
13.06.2017 14:24 25,5 C 25,0 C 43 % 1014,4 hPa 0,0 l/m 10,4 km/h (2 Bft) S-SW 207 2 min 0,000 mm 6,5 UV-I 882 W/m 12,0 C 24,6 C 17,7 km/h (3 Bft) 97,01 %
13.06.2017 14:26 25,7 C 25,0 C 43 % 1014,3 hPa 0,0 l/m 6,1 km/h (2 Bft) NO 40 2 min 0,000 mm 6,5 UV-I 876 W/m 12,2 C 25,7 C 12,9 km/h (3 Bft) 97,87 %
13.06.2017 14:28 25,7 C 25,0 C 42 % 1014,2 hPa 0,0 l/m 5,5 km/h (1 Bft) N-NW 331 2 min 0,000 mm 6,5 UV-I 878 W/m 11,8 C 25,7 C 11,3 km/h (2 Bft) 94,44 %
13.06.2017 14:30 25,6 C 25,0 C 42 % 1014,3 hPa 0,0 l/m 9,2 km/h (2 Bft) W-NW 286 2 min 0,000 mm 6,4 UV-I 869 W/m 11,7 C 25,0 C 22,5 km/h (4 Bft) 91,07 %
13.06.2017 14:32 25,6 C 25,0 C 42 % 1014,2 hPa 0,0 l/m 10,8 km/h (2 Bft) W-NW 284 2 min 0,000 mm 6,3 UV-I 870 W/m 11,7 C 24,7 C 27,4 km/h (4 Bft) 97,73 %
13.06.2017 14:34 25,6 C 25,0 C 41 % 1014,3 hPa 0,0 l/m 13,6 km/h (3 Bft) W-SW 248 2 min 0,000 mm 6,4 UV-I 873 W/m 11,4 C 24,2 C 24,1 km/h (4 Bft) 98,11 %
13.06.2017 14:36 25,7 C 25,0 C 40 % 1014,2 hPa 0,0 l/m 13,2 km/h (3 Bft) W-SW 252 2 min 0,000 mm 6,3 UV-I 869 W/m 11,1 C 24,4 C 27,4 km/h (4 Bft) 100,00 %
13.06.2017 14:38 25,7 C 25,0 C 40 % 1014,2 hPa 0,0 l/m 13,2 km/h (3 Bft) W-SW 252 2 min 0,000 mm 6,2 UV-I 866 W/m 11,1 C 24,4 C 30,6 km/h (5 Bft) 97,96 %
13.06.2017 14:40 25,6 C 25,0 C 40 % 1014,4 hPa 0,0 l/m 17,9 km/h (3 Bft) SW 231 2 min 0,000 mm 6,2 UV-I 861 W/m 11,0 C 23,7 C 33,8 km/h (5 Bft) 98,00 %
13.06.2017 14:42 25,6 C 25,0 C 40 % 1014,1 hPa 0,0 l/m 16,4 km/h (3 Bft) W 267 2 min 0,000 mm 6,1 UV-I 859 W/m 11,0 C 23,9 C 24,1 km/h (4 Bft) 90,24 %
13.06.2017 14:44 25,6 C 25,0 C 40 % 1014,2 hPa 0,0 l/m 12,6 km/h (3 Bft) N-NO 27 2 min 0,000 mm 6,1 UV-I 857 W/m 11,0 C 24,4 C 24,1 km/h (4 Bft) 100,00 %
13.06.2017 14:46 25,4 C 25,0 C 40 % 1014,1 hPa 0,0 l/m 12,2 km/h (2 Bft) W-SW 246 2 min 0,000 mm 6,0 UV-I 851 W/m 10,8 C 24,2 C 17,7 km/h (3 Bft) 97,37 %
13.06.2017 14:48 25,6 C 25,0 C 39 % 1014,2 hPa 0,0 l/m 9,1 km/h (2 Bft) W-SW 257 2 min 0,000 mm 6,0 UV-I 848 W/m 10,6 C 25,0 C 14,5 km/h (3 Bft) 96,00 %
13.06.2017 14:50 25,6 C 25,0 C 39 % 1014,1 hPa 0,0 l/m 11,5 km/h (2 Bft) W-SW 249 2 min 0,000 mm 5,9 UV-I 846 W/m 10,6 C 24,6 C 17,7 km/h (3 Bft) 96,00 %
13.06.2017 14:52 25,5 C 25,0 C 40 % 1014,1 hPa 0,0 l/m 5,3 km/h (1 Bft) NW 318 2 min 0,000 mm 5,9 UV-I 843 W/m 10,9 C 25,5 C 11,3 km/h (2 Bft) 97,87 %
13.06.2017 14:54 25,6 C 25,0 C 42 % 1014,2 hPa 0,0 l/m 8,0 km/h (2 Bft) W-SW 246 2 min 0,000 mm 5,9 UV-I 841 W/m 11,7 C 25,2 C 16,1 km/h (3 Bft) 97,73 %
13.06.2017 14:56 25,7 C 25,0 C 43 % 1014,1 hPa 0,0 l/m 7,3 km/h (2 Bft) W 259 2 min 0,000 mm 5,8 UV-I 836 W/m 12,2 C 25,5 C 14,5 km/h (3 Bft) 100,00 %
13.06.2017 14:58 25,8 C 25,0 C 39 % 1014,1 hPa 0,0 l/m 7,8 km/h (2 Bft) W-SW 242 2 min 0,000 mm 5,8 UV-I 831 W/m 10,8 C 25,5 C 16,1 km/h (3 Bft) 97,87 %
13.06.2017 15:00 25,9 C 25,0 C 43 % 1014,2 hPa 0,0 l/m 5,6 km/h (1 Bft) NW 311 2 min 0,635 mm 5,8 UV-I 831 W/m 12,3 C 25,9 C 14,5 km/h (3 Bft) 95,74 %
13.06.2017 15:02 25,9 C 25,0 C 40 % 1014,1 hPa 0,0 l/m 11,7 km/h (2 Bft) NW 310 2 min 0,000 mm 5,7 UV-I 828 W/m 11,3 C 24,9 C 25,7 km/h (4 Bft) 97,73 %
13.06.2017 15:04 25,8 C 25,0 C 40 % 1014,1 hPa 0,0 l/m 10,6 km/h (2 Bft) SW 219 2 min 0,000 mm 5,7 UV-I 823 W/m 11,2 C 24,9 C 20,9 km/h (4 Bft) 97,78 %
13.06.2017 15:06 25,7 C 25,0 C 38 % 1014,1 hPa 0,0 l/m 10,5 km/h (2 Bft) W-NW 292 2 min 0,000 mm 5,6 UV-I 819 W/m 10,3 C 24,8 C 19,3 km/h (3 Bft) 100,00 %
13.06.2017 15:08 25,6 C 25,0 C 41 % 1014,1 hPa 0,0 l/m 11,0 km/h (2 Bft) W 269 2 min 0,000 mm 5,5 UV-I 817 W/m 11,4 C 24,6 C 22,5 km/h (4 Bft) 97,44 %
13.06.2017 15:10 25,8 C 25,0 C 39 % 1014,0 hPa 0,0 l/m 7,1 km/h (2 Bft) W 261 2 min 0,000 mm 5,5 UV-I 816 W/m 10,8 C 25,6 C 12,9 km/h (3 Bft) 98,21 %
13.06.2017 15:12 25,8 C 25,0 C 39 % 1014,0 hPa 0,0 l/m 12,1 km/h (2 Bft) W 281 2 min 0,000 mm 5,5 UV-I 805 W/m 10,8 C 24,7 C 20,9 km/h (4 Bft) 97,87 %
13.06.2017 15:14 26,0 C 25,0 C 40 % 1014,0 hPa 0,0 l/m 10,2 km/h (2 Bft) W 266 2 min 0,000 mm 5,4 UV-I 805 W/m 11,3 C 25,2 C 20,9 km/h (4 Bft) 100,00 %
13.06.2017 15:16 26,1 C 25,0 C 40 % 1014,0 hPa 0,0 l/m 6,3 km/h (2 Bft) W-SW 256 2 min 0,000 mm 5,4 UV-I 806 W/m 11,4 C 26,1 C 11,3 km/h (2 Bft) 98,11 %
13.06.2017 15:18 26,2 C 25,0 C 37 % 1014,0 hPa 0,0 l/m 10,1 km/h (2 Bft) W-SW 255 2 min 0,000 mm 5,3 UV-I 803 W/m 10,3 C 25,5 C 17,7 km/h (3 Bft) 90,91 %
13.06.2017 15:20 26,0 C 25,0 C 38 % 1014,0 hPa 0,0 l/m 7,1 km/h (2 Bft) N 350 2 min 0,000 mm 5,3 UV-I 801 W/m 10,6 C 25,8 C 16,1 km/h (3 Bft) 93,18 %
13.06.2017 15:22 25,9 C 25,0 C 38 % 1013,9 hPa 0,0 l/m 7,5 km/h (2 Bft) SW 226 2 min 0,000 mm 5,2 UV-I 797 W/m 10,5 C 25,7 C 19,3 km/h (3 Bft) 96,23 %
13.06.2017 15:24 25,9 C 25,0 C 40 % 1013,9 hPa 0,0 l/m 6,8 km/h (2 Bft) SW 227 2 min 0,000 mm 5,2 UV-I 791 W/m 11,3 C 25,8 C 14,5 km/h (3 Bft) 100,00 %
13.06.2017 15:26 26,2 C 25,0 C 39 % 1013,9 hPa 0,0 l/m 9,7 km/h (2 Bft) W 261 2 min 0,000 mm 5,1 UV-I 785 W/m 11,1 C 25,5 C 12,9 km/h (3 Bft) 100,00 %
13.06.2017 15:28 26,3 C 25,0 C 38 % 1013,9 hPa 0,0 l/m 10,0 km/h (2 Bft) W 260 2 min 0,000 mm 5,1 UV-I 781 W/m 10,8 C 25,6 C 16,1 km/h (3 Bft) 98,21 %
13.06.2017 15:30 26,2 C 25,0 C 40 % 1013,9 hPa 0,0 l/m 11,4 km/h (2 Bft) SW 216 2 min 0,000 mm 5,0 UV-I 779 W/m 11,5 C 25,3 C 24,1 km/h (4 Bft) 100,00 %
13.06.2017 15:32 26,2 C 25,0 C 39 % 1013,9 hPa 0,0 l/m 10,6 km/h (2 Bft) W-SW 250 2 min 0,000 mm 4,9 UV-I 771 W/m 11,1 C 25,4 C 17,7 km/h (3 Bft) 100,00 %
13.06.2017 15:34 26,2 C 25,0 C 38 % 1013,9 hPa 0,0 l/m 11,3 km/h (2 Bft) S-SW 199 2 min 0,000 mm 4,9 UV-I 771 W/m 10,7 C 25,3 C 17,7 km/h (3 Bft) 96,43 %
13.06.2017 15:36 26,3 C 25,0 C 37 % 1013,8 hPa 0,0 l/m 13,2 km/h (3 Bft) W-SW 258 2 min 0,000 mm 4,9 UV-I 765 W/m 10,4 C 25,1 C 20,9 km/h (4 Bft) 100,00 %
13.06.2017 15:38 26,2 C 25,0 C 38 % 1013,8 hPa 0,0 l/m 7,1 km/h (2 Bft) W-NW 284 2 min 0,000 mm 4,8 UV-I 762 W/m 10,7 C 26,1 C 14,5 km/h (3 Bft) 100,00 %
13.06.2017 15:40 26,1 C 25,0 C 39 % 1013,7 hPa 0,0 l/m 6,3 km/h (2 Bft) W-NW 290 2 min 0,000 mm 4,7 UV-I 757 W/m 11,0 C 26,1 C 14,5 km/h (3 Bft) 98,00 %
13.06.2017 15:42 25,9 C 25,0 C 39 % 1013,8 hPa 0,0 l/m 10,1 km/h (2 Bft) W-SW 253 2 min 0,000 mm 4,7 UV-I 751 W/m 10,9 C 25,1 C 20,9 km/h (4 Bft) 100,00 %
13.06.2017 15:44 25,8 C 25,0 C 39 % 1013,8 hPa 0,0 l/m 6,2 km/h (2 Bft) W-NW 285 2 min 0,000 mm 4,6 UV-I 748 W/m 10,8 C 25,8 C 12,9 km/h (3 Bft) 97,14 %
13.06.2017 15:46 25,8 C 25,0 C 40 % 1013,7 hPa 0,0 l/m 6,7 km/h (2 Bft) S-SO 167 2 min 0,000 mm 4,6 UV-I 746 W/m 11,2 C 25,7 C 11,3 km/h (2 Bft) 100,00 %
13.06.2017 15:48 25,8 C 25,0 C 40 % 1013,7 hPa 0,0 l/m 8,1 km/h (2 Bft) SW 226 2 min 0,000 mm 4,6 UV-I 745 W/m 11,2 C 25,4 C 14,5 km/h (3 Bft) 100,00 %
13.06.2017 15:50 26,0 C 25,0 C 38 % 1013,9 hPa 0,0 l/m 12,4 km/h (3 Bft) W 276 2 min 0,000 mm 4,5 UV-I 741 W/m 10,6 C 24,9 C 22,5 km/h (4 Bft) 100,00 %
13.06.2017 15:52 25,9 C 25,0 C 37 % 1013,7 hPa 0,0 l/m 7,8 km/h (2 Bft) NW 320 2 min 0,000 mm 4,5 UV-I 738 W/m 10,1 C 25,6 C 20,9 km/h (4 Bft) 100,00 %
13.06.2017 15:54 25,9 C 25,0 C 40 % 1013,7 hPa 0,0 l/m 4,1 km/h (1 Bft) W-SW 240 2 min 0,000 mm 4,3 UV-I 726 W/m 11,3 C 25,9 C 8,0 km/h (2 Bft) 100,00 %
13.06.2017 15:56 26,2 C 25,0 C 37 % 1013,7 hPa 0,0 l/m 6,1 km/h (2 Bft) N 5 2 min 0,000 mm 4,3 UV-I 720 W/m 10,3 C 26,2 C 9,7 km/h (2 Bft) 97,37 %
13.06.2017 15:58 26,1 C 25,0 C 38 % 1013,6 hPa 0,0 l/m 4,9 km/h (1 Bft) N-NW 341 2 min 0,000 mm 4,3 UV-I 719 W/m 10,7 C 26,1 C 11,3 km/h (2 Bft) 98,11 %
13.06.2017 16:00 26,1 C 25,0 C 38 % 1013,6 hPa 0,0 l/m 3,6 km/h (1 Bft) W-NW 298 2 min 0,000 mm 4,2 UV-I 716 W/m 10,7 C 26,1 C 9,7 km/h (2 Bft) 94,74 %
13.06.2017 16:02 25,9 C 25,0 C 40 % 1013,6 hPa 0,0 l/m 5,7 km/h (1 Bft) W 264 2 min 0,584 mm 4,2 UV-I 713 W/m 11,3 C 25,9 C 14,5 km/h (3 Bft) 98,31 %
13.06.2017 16:04 26,1 C 25,0 C 39 % 1013,6 hPa 0,0 l/m 7,4 km/h (2 Bft) W 264 2 min 0,000 mm 4,1 UV-I 708 W/m 11,0 C 25,9 C 16,1 km/h (3 Bft) 95,12 %
13.06.2017 16:06 26,1 C 25,0 C 40 % 1013,6 hPa 0,0 l/m 6,0 km/h (2 Bft) SW 235 2 min 0,000 mm 4,0 UV-I 703 W/m 11,4 C 26,1 C 11,3 km/h (2 Bft) 97,73 %
13.06.2017 16:08 26,2 C 25,0 C 38 % 1013,6 hPa 0,0 l/m 10,2 km/h (2 Bft) W 261 2 min 0,000 mm 4,0 UV-I 700 W/m 10,7 C 25,5 C 17,7 km/h (3 Bft) 95,74 %
13.06.2017 16:10 26,3 C 25,0 C 38 % 1013,6 hPa 0,0 l/m 6,9 km/h (2 Bft) W-NW 300 2 min 0,000 mm 4,0 UV-I 693 W/m 10,8 C 26,2 C 12,9 km/h (3 Bft) 93,62 %
13.06.2017 16:12 26,3 C 25,0 C 37 % 1013,6 hPa 0,0 l/m 9,4 km/h (2 Bft) W-SW 250 2 min 0,000 mm 3,9 UV-I 688 W/m 10,4 C 25,7 C 17,7 km/h (3 Bft) 98,00 %
13.06.2017 16:14 26,2 C 25,0 C 40 % 1013,5 hPa 0,0 l/m 7,5 km/h (2 Bft) W-NW 300 2 min 0,000 mm 3,8 UV-I 684 W/m 11,5 C 26,0 C 16,1 km/h (3 Bft) 96,23 %
13.06.2017 16:16 26,2 C 25,0 C 43 % 1013,5 hPa 0,0 l/m 4,2 km/h (1 Bft) NW 322 2 min 0,000 mm 3,8 UV-I 680 W/m 12,6 C 26,2 C 8,0 km/h (2 Bft) 97,14 %
13.06.2017 16:18 26,2 C 25,0 C 43 % 1013,5 hPa 0,0 l/m 6,3 km/h (2 Bft) SW 224 2 min 0,000 mm 3,7 UV-I 675 W/m 12,6 C 26,2 C 14,5 km/h (3 Bft) 95,56 %
13.06.2017 16:20 26,3 C 25,0 C 37 % 1013,5 hPa 0,0 l/m 8,6 km/h (2 Bft) S 178 2 min 0,000 mm 3,7 UV-I 670 W/m 10,4 C 25,8 C 16,1 km/h (3 Bft) 96,30 %
13.06.2017 16:22 26,2 C 25,0 C 38 % 1013,5 hPa 0,0 l/m 5,4 km/h (1 Bft) W 271 2 min 0,000 mm 3,6 UV-I 665 W/m 10,7 C 26,2 C 8,0 km/h (2 Bft) 97,87 %
13.06.2017 16:24 26,2 C 25,0 C 37 % 1013,5 hPa 0,0 l/m 9,5 km/h (2 Bft) SW 219 2 min 0,000 mm 3,6 UV-I 657 W/m 10,3 C 25,6 C 16,1 km/h (3 Bft) 94,00 %
13.06.2017 16:26 26,3 C 25,0 C 39 % 1013,5 hPa 0,0 l/m 10,1 km/h (2 Bft) W-SW 257 2 min 0,000 mm 3,5 UV-I 651 W/m 11,2 C 25,6 C 19,3 km/h (3 Bft) 97,62 %
13.06.2017 16:28 26,3 C 25,6 C 38 % 1013,5 hPa 0,0 l/m 6,4 km/h (2 Bft) SW 232 2 min 0,000 mm 3,5 UV-I 648 W/m 10,8 C 26,3 C 11,3 km/h (2 Bft) 95,12 %
13.06.2017 16:30 26,3 C 25,0 C 38 % 1013,4 hPa 0,0 l/m 5,3 km/h (1 Bft) W 271 2 min 0,000 mm 3,4 UV-I 643 W/m 10,8 C 26,3 C 12,9 km/h (3 Bft) 98,18 %
13.06.2017 16:32 26,3 C 25,0 C 41 % 1013,4 hPa 0,0 l/m 5,1 km/h (1 Bft) W-SW 246 2 min 0,000 mm 3,4 UV-I 639 W/m 12,0 C 26,3 C 11,3 km/h (2 Bft) 98,11 %
13.06.2017 16:34 26,3 C 25,6 C 39 % 1013,4 hPa 0,0 l/m 4,0 km/h (1 Bft) W-SW 239 2 min 0,000 mm 3,3 UV-I 634 W/m 11,2 C 26,3 C 9,7 km/h (2 Bft) 97,56 %
13.06.2017 16:36 26,5 C 25,6 C 39 % 1013,4 hPa 0,0 l/m 5,6 km/h (1 Bft) NW 323 2 min 0,000 mm 3,2 UV-I 629 W/m 11,4 C 26,5 C 11,3 km/h (2 Bft) 97,87 %
13.06.2017 16:38 26,6 C 25,6 C 37 % 1013,4 hPa 0,0 l/m 6,7 km/h (2 Bft) W-SW 252 2 min 0,000 mm 3,2 UV-I 625 W/m 10,7 C 26,5 C 12,9 km/h (3 Bft) 100,00 %
13.06.2017 16:40 26,3 C 25,6 C 41 % 1013,3 hPa 0,0 l/m 3,8 km/h (1 Bft) N-NW 332 2 min 0,000 mm 3,1 UV-I 615 W/m 12,0 C 26,3 C 14,5 km/h (3 Bft) 96,23 %
13.06.2017 16:42 26,2 C 25,6 C 39 % 1013,3 hPa 0,0 l/m 7,0 km/h (2 Bft) SW 219 2 min 0,000 mm 3,1 UV-I 611 W/m 11,1 C 26,1 C 14,5 km/h (3 Bft) 95,45 %
13.06.2017 16:44 26,2 C 25,6 C 40 % 1013,3 hPa 0,0 l/m 5,3 km/h (1 Bft) W-SW 253 2 min 0,000 mm 3,1 UV-I 608 W/m 11,5 C 26,2 C 11,3 km/h (2 Bft) 100,00 %
13.06.2017 16:46 26,3 C 25,6 C 37 % 1013,3 hPa 0,0 l/m 8,8 km/h (2 Bft) W-SW 240 2 min 0,000 mm 3,0 UV-I 602 W/m 10,4 C 25,8 C 16,1 km/h (3 Bft) 97,56 %
13.06.2017 16:48 26,4 C 25,6 C 36 % 1013,3 hPa 0,0 l/m 14,8 km/h (3 Bft) W 274 2 min 0,000 mm 3,0 UV-I 598 W/m 10,1 C 25,0 C 19,3 km/h (3 Bft) 100,00 %
13.06.2017 16:50 26,3 C 25,6 C 37 % 1013,2 hPa 0,0 l/m 9,5 km/h (2 Bft) W-SW 248 2 min 0,000 mm 2,9 UV-I 592 W/m 10,4 C 25,7 C 16,1 km/h (3 Bft) 97,14 %
13.06.2017 16:52 26,4 C 25,6 C 36 % 1013,3 hPa 0,0 l/m 11,4 km/h (2 Bft) SW 229 2 min 0,000 mm 2,8 UV-I 587 W/m 10,1 C 25,5 C 16,1 km/h (3 Bft) 97,73 %
13.06.2017 16:54 26,4 C 25,6 C 38 % 1013,3 hPa 0,0 l/m 12,6 km/h (3 Bft) W-SW 245 2 min 0,000 mm 2,8 UV-I 582 W/m 10,9 C 25,3 C 20,9 km/h (4 Bft) 96,43 %
13.06.2017 16:56 26,5 C 25,6 C 37 % 1013,3 hPa 0,0 l/m 10,3 km/h (2 Bft) W 273 2 min 0,000 mm 2,7 UV-I 576 W/m 10,6 C 25,8 C 19,3 km/h (3 Bft) 97,73 %
13.06.2017 16:58 26,4 C 25,6 C 37 % 1013,3 hPa 0,0 l/m 9,7 km/h (2 Bft) W-SW 244 2 min 0,000 mm 2,7 UV-I 570 W/m 10,5 C 25,8 C 16,1 km/h (3 Bft) 100,00 %
13.06.2017 17:00 26,4 C 25,6 C 36 % 1013,3 hPa 0,0 l/m 9,8 km/h (2 Bft) W 275 2 min 0,482 mm 2,6 UV-I 569 W/m 10,1 C 25,7 C 19,3 km/h (3 Bft) 97,56 %
13.06.2017 17:02 26,4 C 25,6 C 35 % 1013,3 hPa 0,0 l/m 6,1 km/h (2 Bft) W-SW 251 2 min 0,000 mm 2,6 UV-I 565 W/m 9,7 C 26,4 C 14,5 km/h (3 Bft) 100,00 %
13.06.2017 17:04 26,4 C 25,6 C 37 % 1013,3 hPa 0,0 l/m 3,6 km/h (1 Bft) W-SW 255 2 min 0,000 mm 2,6 UV-I 562 W/m 10,5 C 26,4 C 12,9 km/h (3 Bft) 94,44 %
13.06.2017 17:06 26,3 C 25,6 C 38 % 1013,3 hPa 0,0 l/m 2,9 km/h (1 Bft) W-NW 284 2 min 0,000 mm 2,5 UV-I 556 W/m 10,8 C 26,3 C 11,3 km/h (2 Bft) 96,00 %
13.06.2017 17:08 26,2 C 25,6 C 38 % 1013,4 hPa 0,0 l/m 10,1 km/h (2 Bft) SW 220 2 min 0,000 mm 2,5 UV-I 555 W/m 10,7 C 25,5 C 17,7 km/h (3 Bft) 98,28 %
13.06.2017 17:10 26,2 C 25,6 C 39 % 1013,3 hPa 0,0 l/m 3,7 km/h (1 Bft) W-NW 282 2 min 0,000 mm 2,4 UV-I 554 W/m 11,1 C 26,2 C 6,4 km/h (2 Bft) 93,62 %
13.06.2017 17:12 26,2 C 25,6 C 39 % 1013,3 hPa 0,0 l/m 6,2 km/h (2 Bft) W 268 2 min 0,000 mm 2,3 UV-I 550 W/m 11,1 C 26,2 C 11,3 km/h (2 Bft) 97,73 %
13.06.2017 17:14 26,2 C 25,6 C 38 % 1013,2 hPa 0,0 l/m 5,6 km/h (1 Bft) N-NW 336 2 min 0,000 mm 2,2 UV-I 534 W/m 10,7 C 26,2 C 9,7 km/h (2 Bft) 95,12 %
13.06.2017 17:16 26,2 C 25,6 C 39 % 1013,3 hPa 0,0 l/m 3,1 km/h (1 Bft) W 259 2 min 0,000 mm 2,1 UV-I 571 W/m 11,1 C 26,2 C 6,4 km/h (2 Bft) 100,00 %
13.06.2017 17:18 26,1 C 25,6 C 39 % 1013,2 hPa 0,0 l/m 4,2 km/h (1 Bft) W-SW 257 2 min 0,000 mm 1,6 UV-I 362 W/m 11,0 C 26,1 C 11,3 km/h (2 Bft) 96,00 %
13.06.2017 17:20 25,9 C 25,6 C 39 % 1013,3 hPa 0,0 l/m 6,0 km/h (2 Bft) NW 316 0 min 0,000 mm 1,5 UV-I 207 W/m 10,9 C 25,9 C 12,9 km/h (3 Bft) 95,74 %
13.06.2017 17:22 25,7 C 25,6 C 41 % 1013,3 hPa 0,0 l/m 5,1 km/h (1 Bft) NW 306 0 min 0,000 mm 1,7 UV-I 234 W/m 11,4 C 25,7 C 11,3 km/h (2 Bft) 96,00 %
13.06.2017 17:24 25,4 C 25,6 C 40 % 1013,3 hPa 0,0 l/m 3,2 km/h (1 Bft) W-NW 286 0 min 0,000 mm 1,5 UV-I 243 W/m 10,8 C 25,4 C 9,7 km/h (2 Bft) 97,87 %
13.06.2017 17:26 25,3 C 25,6 C 41 % 1013,2 hPa 0,0 l/m 4,3 km/h (1 Bft) W-NW 298 2 min 0,000 mm 1,7 UV-I 361 W/m 11,1 C 25,3 C 11,3 km/h (2 Bft) 92,11 %
13.06.2017 17:28 25,3 C 25,6 C 40 % 1013,2 hPa 0,0 l/m 5,3 km/h (1 Bft) W-SW 252 2 min 0,000 mm 1,7 UV-I 396 W/m 10,7 C 25,3 C 16,1 km/h (3 Bft) 96,61 %
13.06.2017 17:30 25,3 C 25,6 C 40 % 1013,2 hPa 0,0 l/m 7,0 km/h (2 Bft) NW 319 2 min 0,000 mm 1,6 UV-I 372 W/m 10,7 C 25,2 C 14,5 km/h (3 Bft) 96,30 %
13.06.2017 17:32 25,3 C 25,6 C 40 % 1013,2 hPa 0,0 l/m 6,7 km/h (2 Bft) W 272 0 min 0,000 mm 1,4 UV-I 275 W/m 10,7 C 25,2 C 12,9 km/h (3 Bft) 95,08 %
13.06.2017 17:34 25,1 C 25,6 C 40 % 1013,2 hPa 0,0 l/m 3,1 km/h (1 Bft) W-SW 252 0 min 0,000 mm 1,3 UV-I 193 W/m 10,5 C 25,1 C 6,4 km/h (2 Bft) 97,87 %
13.06.2017 17:36 24,9 C 25,6 C 40 % 1013,3 hPa 0,0 l/m 5,5 km/h (1 Bft) SW 217 0 min 0,000 mm 1,2 UV-I 183 W/m 10,4 C 24,9 C 11,3 km/h (2 Bft) 96,00 %
13.06.2017 17:38 24,8 C 25,6 C 42 % 1013,3 hPa 0,0 l/m 3,4 km/h (1 Bft) W 269 0 min 0,000 mm 1,2 UV-I 199 W/m 11,0 C 24,8 C 6,4 km/h (2 Bft) 95,83 %
13.06.2017 17:40 24,6 C 25,6 C 42 % 1013,3 hPa 0,0 l/m 2,9 km/h (1 Bft) W-NW 301 0 min 0,000 mm 1,2 UV-I 220 W/m 10,8 C 24,6 C 8,0 km/h (2 Bft) 93,55 %
13.06.2017 17:42 24,5 C 25,6 C 41 % 1013,3 hPa 0,0 l/m 5,1 km/h (1 Bft) NW 320 0 min 0,000 mm 1,1 UV-I 199 W/m 10,4 C 24,5 C 16,1 km/h (3 Bft) 90,91 %
13.06.2017 17:44 24,4 C 25,6 C 42 % 1013,4 hPa 0,0 l/m 4,4 km/h (1 Bft) W 275 0 min 0,000 mm 1,1 UV-I 195 W/m 10,6 C 24,4 C 17,7 km/h (3 Bft) 95,24 %
13.06.2017 17:46 24,3 C 25,6 C 41 % 1013,4 hPa 0,0 l/m 5,6 km/h (1 Bft) W-SW 248 0 min 0,000 mm 1,2 UV-I 250 W/m 10,2 C 24,3 C 11,3 km/h (2 Bft) 98,00 %
13.06.2017 17:48 24,3 C 25,6 C 42 % 1013,4 hPa 0,0 l/m 5,1 km/h (1 Bft) W 270 2 min 0,000 mm 1,4 UV-I 355 W/m 10,6 C 24,3 C 8,0 km/h (2 Bft) 94,00 %
13.06.2017 17:50 24,6 C 25,6 C 41 % 1013,4 hPa 0,0 l/m 3,3 km/h (1 Bft) W 277 2 min 0,000 mm 1,7 UV-I 460 W/m 10,5 C 24,6 C 6,4 km/h (2 Bft) 88,57 %
13.06.2017 17:52 24,9 C 25,6 C 39 % 1013,3 hPa 0,0 l/m 3,6 km/h (1 Bft) W 281 2 min 0,000 mm 1,7 UV-I 554 W/m 10,0 C 24,9 C 11,3 km/h (2 Bft) 91,07 %
13.06.2017 17:54 25,2 C 25,6 C 39 % 1013,3 hPa 0,0 l/m 4,8 km/h (1 Bft) W-SW 248 2 min 0,000 mm 1,7 UV-I 547 W/m 10,2 C 25,2 C 9,7 km/h (2 Bft) 88,64 %
13.06.2017 17:56 25,3 C 25,6 C 38 % 1013,3 hPa 0,0 l/m 7,1 km/h (2 Bft) W-NW 288 2 min 0,000 mm 1,6 UV-I 515 W/m 9,9 C 25,1 C 16,1 km/h (3 Bft) 92,68 %
13.06.2017 17:58 25,5 C 25,6 C 37 % 1013,3 hPa 0,0 l/m 7,8 km/h (2 Bft) W 279 2 min 0,000 mm 1,5 UV-I 476 W/m 9,7 C 25,2 C 14,5 km/h (3 Bft) 96,23 %
13.06.2017 18:00 25,6 C 25,6 C 37 % 1013,3 hPa 0,0 l/m 2,9 km/h (1 Bft) SW 232 2 min 0,305 mm 1,5 UV-I 444 W/m 9,8 C 25,6 C 6,4 km/h (2 Bft) 94,34 %
13.06.2017 18:02 25,7 C 25,6 C 37 % 1013,3 hPa 0,0 l/m 3,9 km/h (1 Bft) W-SW 245 2 min 0,000 mm 1,4 UV-I 421 W/m 9,9 C 25,7 C 9,7 km/h (2 Bft) 93,62 %
13.06.2017 18:04 25,6 C 25,6 C 36 % 1013,3 hPa 0,0 l/m 8,9 km/h (2 Bft) W-NW 292 2 min 0,000 mm 1,3 UV-I 383 W/m 9,4 C 25,0 C 17,7 km/h (3 Bft) 94,74 %
13.06.2017 18:06 25,6 C 25,6 C 40 % 1013,4 hPa 0,0 l/m 3,3 km/h (1 Bft) N-NW 345 2 min 0,000 mm 1,3 UV-I 394 W/m 11,0 C 25,6 C 6,4 km/h (2 Bft) 96,23 %
13.06.2017 18:08 25,4 C 25,6 C 40 % 1013,4 hPa 0,0 l/m 2,1 km/h (1 Bft) NW 305 2 min 0,000 mm 1,3 UV-I 384 W/m 10,8 C 25,4 C 4,8 km/h (1 Bft) 97,56 %
13.06.2017 18:10 25,3 C 25,6 C 40 % 1013,4 hPa 0,0 l/m 2,7 km/h (1 Bft) W-NW 284 2 min 0,000 mm 1,2 UV-I 377 W/m 10,7 C 25,3 C 12,9 km/h (3 Bft) 92,00 %
13.06.2017 18:12 25,3 C 25,6 C 43 % 1013,4 hPa 0,0 l/m 2,3 km/h (1 Bft) N-NW 346 2 min 0,000 mm 1,2 UV-I 370 W/m 11,8 C 25,3 C 4,8 km/h (1 Bft) 92,68 %
13.06.2017 18:14 25,2 C 25,6 C 42 % 1013,4 hPa 0,0 l/m 2,8 km/h (1 Bft) W-NW 303 2 min 0,000 mm 1,2 UV-I 363 W/m 11,4 C 25,2 C 6,4 km/h (2 Bft) 91,07 %
13.06.2017 18:16 25,2 C 25,6 C 42 % 1013,4 hPa 0,0 l/m 4,0 km/h (1 Bft) N-NO 26 2 min 0,000 mm 1,1 UV-I 355 W/m 11,4 C 25,2 C 6,4 km/h (2 Bft) 93,33 %
13.06.2017 18:18 25,1 C 25,6 C 41 % 1013,3 hPa 0,0 l/m 6,0 km/h (2 Bft) N 350 2 min 0,000 mm 1,1 UV-I 349 W/m 10,9 C 25,1 C 14,5 km/h (3 Bft) 96,72 %
13.06.2017 18:20 24,9 C 25,6 C 42 % 1013,3 hPa 0,0 l/m 4,1 km/h (1 Bft) N-NW 327 2 min 0,000 mm 1,1 UV-I 343 W/m 11,1 C 24,9 C 8,0 km/h (2 Bft) 95,74 %
13.06.2017 18:22 24,8 C 25,6 C 42 % 1013,4 hPa 0,0 l/m 3,7 km/h (1 Bft) NW 325 2 min 0,000 mm 1,0 UV-I 328 W/m 11,0 C 24,8 C 12,9 km/h (3 Bft) 94,44 %
13.06.2017 18:24 24,7 C 25,6 C 42 % 1013,3 hPa 0,0 l/m 3,9 km/h (1 Bft) W 276 2 min 0,000 mm 1,0 UV-I 304 W/m 10,9 C 24,7 C 9,7 km/h (2 Bft) 98,21 %
13.06.2017 18:26 24,7 C 25,6 C 41 % 1013,3 hPa 0,0 l/m 4,1 km/h (1 Bft) N-NW 331 2 min 0,000 mm 1,0 UV-I 329 W/m 10,6 C 24,7 C 11,3 km/h (2 Bft) 95,74 %
13.06.2017 18:28 24,8 C 25,6 C 41 % 1013,4 hPa 0,0 l/m 4,1 km/h (1 Bft) W-SW 244 2 min 0,000 mm 0,9 UV-I 327 W/m 10,6 C 24,8 C 11,3 km/h (2 Bft) 98,11 %
13.06.2017 18:30 24,8 C 25,6 C 43 % 1013,3 hPa 0,0 l/m 4,1 km/h (1 Bft) N-NW 336 2 min 0,000 mm 0,9 UV-I 322 W/m 11,4 C 24,8 C 6,4 km/h (2 Bft) 100,00 %
13.06.2017 18:32 24,7 C 25,6 C 43 % 1013,2 hPa 0,0 l/m 4,9 km/h (1 Bft) NW 309 2 min 0,000 mm 0,9 UV-I 317 W/m 11,3 C 24,7 C 11,3 km/h (2 Bft) 100,00 %
13.06.2017 18:34 24,6 C 25,6 C 43 % 1013,2 hPa 0,0 l/m 4,2 km/h (1 Bft) W-SW 257 2 min 0,000 mm 0,9 UV-I 315 W/m 11,2 C 24,6 C 11,3 km/h (2 Bft) 100,00 %
13.06.2017 18:36 24,7 C 25,6 C 42 % 1013,3 hPa 0,0 l/m 4,1 km/h (1 Bft) NW 321 2 min 0,000 mm 0,8 UV-I 281 W/m 10,9 C 24,7 C 8,0 km/h (2 Bft) 98,00 %
13.06.2017 18:38 24,7 C 25,6 C 43 % 1013,3 hPa 0,0 l/m 3,8 km/h (1 Bft) N 351 2 min 0,000 mm 0,8 UV-I 296 W/m 11,3 C 24,7 C 9,7 km/h (2 Bft) 97,37 %
13.06.2017 18:40 24,6 C 25,6 C 43 % 1013,3 hPa 0,0 l/m 4,7 km/h (1 Bft) NW 313 2 min 0,000 mm 0,7 UV-I 273 W/m 11,2 C 24,6 C 11,3 km/h (2 Bft) 92,45 %
13.06.2017 18:42 24,4 C 25,6 C 44 % 1013,3 hPa 0,0 l/m 5,0 km/h (1 Bft) N-NW 342 2 min 0,000 mm 0,7 UV-I 267 W/m 11,3 C 24,4 C 12,9 km/h (3 Bft) 100,00 %
13.06.2017 18:44 24,3 C 25,6 C 44 % 1013,3 hPa 0,0 l/m 3,0 km/h (1 Bft) NW 312 2 min 0,000 mm 0,7 UV-I 282 W/m 11,3 C 24,3 C 8,0 km/h (2 Bft) 95,45 %
13.06.2017 18:46 24,2 C 25,6 C 45 % 1013,3 hPa 0,0 l/m 3,8 km/h (1 Bft) W-NW 284 2 min 0,000 mm 0,7 UV-I 275 W/m 11,5 C 24,2 C 8,0 km/h (2 Bft) 97,87 %
13.06.2017 18:48 24,2 C 25,6 C 43 % 1013,3 hPa 0,0 l/m 4,3 km/h (1 Bft) N 355 2 min 0,000 mm 0,7 UV-I 268 W/m 10,8 C 24,2 C 6,4 km/h (2 Bft) 95,74 %
13.06.2017 18:50 24,2 C 25,6 C 44 % 1013,3 hPa 0,0 l/m 2,3 km/h (1 Bft) W-NW 282 2 min 0,000 mm 0,6 UV-I 267 W/m 11,2 C 24,2 C 4,8 km/h (1 Bft) 100,00 %
13.06.2017 18:53 24,1 C 25,6 C 44 % 1013,3 hPa 0,0 l/m 1,3 km/h (1 Bft) W-NW 292 0 min 0,000 mm 0,5 UV-I 96 W/m 11,1 C 24,1 C 3,2 km/h (1 Bft) 98,39 %
13.06.2017 18:54 24,0 C 25,6 C 43 % 1013,3 hPa 0,0 l/m 2,8 km/h (1 Bft) W-NW 294 0 min 0,000 mm 0,5 UV-I 67 W/m 10,6 C 24,0 C 6,4 km/h (2 Bft) 100,00 %
13.06.2017 18:56 23,8 C 25,6 C 45 % 1013,3 hPa 0,0 l/m 1,2 km/h (1 Bft) W-NW 283 0 min 0,000 mm 0,5 UV-I 68 W/m 11,1 C 23,8 C 4,8 km/h (1 Bft) 97,44 %
13.06.2017 18:58 23,6 C 25,6 C 46 % 1013,3 hPa 0,0 l/m 2,6 km/h (1 Bft) SW 222 0 min 0,000 mm 0,4 UV-I 66 W/m 11,3 C 23,6 C 4,8 km/h (1 Bft) 94,83 %
13.06.2017 19:00 23,4 C 25,6 C 46 % 1013,3 hPa 0,0 l/m 2,0 km/h (1 Bft) W-SW 257 0 min 0,000 mm 0,0 UV-I 65 W/m 11,1 C 23,4 C 4,8 km/h (1 Bft) 93,75 %
13.06.2017 19:02 23,2 C 25,6 C 47 % 1013,3 hPa 0,0 l/m 0,8 km/h (0 Bft) W-SW 257 0 min 0,203 mm 0,0 UV-I 66 W/m 11,3 C 23,2 C 3,2 km/h (1 Bft) 97,87 %
13.06.2017 19:04 23,1 C 25,6 C 47 % 1013,3 hPa 0,0 l/m 1,4 km/h (1 Bft) W-SW 256 0 min 0,000 mm 0,0 UV-I 70 W/m 11,2 C 23,1 C 3,2 km/h (1 Bft) 92,11 %
13.06.2017 19:06 23,0 C 25,6 C 47 % 1013,3 hPa 0,0 l/m 2,4 km/h (1 Bft) W 268 0 min 0,000 mm 0,0 UV-I 70 W/m 11,1 C 23,0 C 4,8 km/h (1 Bft) 100,00 %
13.06.2017 19:08 22,9 C 25,6 C 47 % 1013,3 hPa 0,0 l/m 2,4 km/h (1 Bft) W 266 0 min 0,000 mm 0,0 UV-I 72 W/m 11,0 C 22,9 C 3,2 km/h (1 Bft) 98,11 %
13.06.2017 19:10 22,8 C 25,6 C 48 % 1013,3 hPa 0,0 l/m 1,5 km/h (1 Bft) W 269 0 min 0,000 mm 0,0 UV-I 72 W/m 11,2 C 22,8 C 3,2 km/h (1 Bft) 98,00 %
13.06.2017 19:12 22,8 C 25,6 C 48 % 1013,3 hPa 0,0 l/m 1,0 km/h (0 Bft) W 269 0 min 0,000 mm 0,0 UV-I 70 W/m 11,2 C 22,8 C 1,6 km/h (1 Bft) 93,62 %
13.06.2017 19:14 22,7 C 25,6 C 49 % 1013,4 hPa 0,0 l/m 3,0 km/h (1 Bft) W 277 0 min 0,000 mm 0,0 UV-I 66 W/m 11,4 C 22,7 C 9,7 km/h (2 Bft) 100,00 %
13.06.2017 19:16 22,7 C 25,6 C 47 % 1013,3 hPa 0,0 l/m 1,5 km/h (1 Bft) NW 323 0 min 0,000 mm 0,0 UV-I 67 W/m 10,8 C 22,7 C 4,8 km/h (1 Bft) 96,00 %
13.06.2017 19:18 22,6 C 25,6 C 48 % 1013,3 hPa 0,0 l/m 1,4 km/h (1 Bft) NO 44 0 min 0,000 mm 0,0 UV-I 66 W/m 11,0 C 22,6 C 8,0 km/h (2 Bft) 95,45 %
13.06.2017 19:20 22,4 C 25,6 C 49 % 1013,3 hPa 0,0 l/m 2,2 km/h (1 Bft) W-SW 237 0 min 0,000 mm 0,0 UV-I 63 W/m 11,2 C 22,4 C 4,8 km/h (1 Bft) 100,00 %
13.06.2017 19:22 22,4 C 25,6 C 49 % 1013,3 hPa 0,0 l/m 2,6 km/h (1 Bft) O 86 0 min 0,000 mm 0,0 UV-I 57 W/m 11,2 C 22,4 C 6,4 km/h (2 Bft) 98,00 %
13.06.2017 19:24 22,3 C 25,6 C 49 % 1013,3 hPa 0,0 l/m 0,8 km/h (0 Bft) S-SW 209 0 min 0,000 mm 0,0 UV-I 55 W/m 11,1 C 22,3 C 4,8 km/h (1 Bft) 97,56 %
13.06.2017 19:26 22,3 C 25,6 C 50 % 1013,3 hPa 0,0 l/m 2,2 km/h (1 Bft) W 277 0 min 0,000 mm 0,0 UV-I 60 W/m 11,4 C 22,3 C 4,8 km/h (1 Bft) 98,00 %
13.06.2017 19:28 22,2 C 25,6 C 50 % 1013,3 hPa 0,0 l/m 2,3 km/h (1 Bft) N-NW 327 0 min 0,000 mm 0,0 UV-I 69 W/m 11,3 C 22,2 C 4,8 km/h (1 Bft) 97,73 %
13.06.2017 19:30 22,1 C 25,6 C 50 % 1013,3 hPa 0,0 l/m 1,5 km/h (1 Bft) W 275 0 min 0,000 mm 0,0 UV-I 73 W/m 11,2 C 22,1 C 4,8 km/h (1 Bft) 100,00 %
13.06.2017 19:32 22,2 C 25,6 C 51 % 1013,3 hPa 0,0 l/m 0,7 km/h (0 Bft) W-NW 289 0 min 0,000 mm 0,0 UV-I 77 W/m 11,6 C 22,2 C 3,2 km/h (1 Bft) 98,00 %
13.06.2017 19:34 22,1 C 25,6 C 51 % 1013,3 hPa 0,0 l/m 2,0 km/h (1 Bft) W 279 0 min 0,000 mm 0,0 UV-I 103 W/m 11,5 C 22,1 C 4,8 km/h (1 Bft) 100,00 %
13.06.2017 19:36 22,2 C 25,6 C 51 % 1013,3 hPa 0,0 l/m 2,1 km/h (1 Bft) W 269 2 min 0,000 mm 0,0 UV-I 123 W/m 11,6 C 22,2 C 6,4 km/h (2 Bft) 97,44 %
13.06.2017 19:38 22,2 C 25,6 C 50 % 1013,4 hPa 0,0 l/m 3,3 km/h (1 Bft) NW 304 0 min 0,000 mm 0,0 UV-I 91 W/m 11,3 C 22,2 C 11,3 km/h (2 Bft) 96,15 %
13.06.2017 19:40 22,3 C 25,6 C 51 % 1013,3 hPa 0,0 l/m 0,3 km/h (0 Bft) NW 315 0 min 0,000 mm 0,0 UV-I 63 W/m 11,7 C 22,3 C 3,2 km/h (1 Bft) 98,00 %
13.06.2017 19:42 22,3 C 25,6 C 51 % 1013,3 hPa 0,0 l/m 1,8 km/h (1 Bft) W 277 0 min 0,000 mm 0,0 UV-I 64 W/m 11,7 C 22,3 C 3,2 km/h (1 Bft) 95,24 %
13.06.2017 19:44 22,3 C 25,0 C 50 % 1013,3 hPa 0,0 l/m 0,5 km/h (0 Bft) W-NW 295 0 min 0,000 mm 0,0 UV-I 60 W/m 11,4 C 22,3 C 4,8 km/h (1 Bft) 95,74 %
13.06.2017 19:46 22,2 C 25,0 C 50 % 1013,3 hPa 0,0 l/m 1,8 km/h (1 Bft) W-NW 299 0 min 0,000 mm 0,0 UV-I 62 W/m 11,3 C 22,2 C 4,8 km/h (1 Bft) 94,00 %
13.06.2017 19:48 22,2 C 25,0 C 51 % 1013,4 hPa 0,0 l/m 1,3 km/h (1 Bft) NW 319 2 min 0,000 mm 0,0 UV-I 107 W/m 11,6 C 22,2 C 4,8 km/h (1 Bft) 97,87 %
13.06.2017 19:50 22,3 C 25,0 C 51 % 1013,4 hPa 0,0 l/m 0,0 km/h (0 Bft) NW 319 2 min 0,000 mm 0,0 UV-I 123 W/m 11,7 C 22,3 C 1,6 km/h (1 Bft) 95,74 %
13.06.2017 19:52 22,3 C 25,0 C 50 % 1013,4 hPa 0,0 l/m 0,7 km/h (0 Bft) W-NW 284 2 min 0,000 mm 0,0 UV-I 115 W/m 11,4 C 22,3 C 1,6 km/h (1 Bft) 95,12 %
13.06.2017 19:54 22,4 C 25,0 C 51 % 1013,4 hPa 0,0 l/m 1,9 km/h (1 Bft) W-NW 284 2 min 0,000 mm 0,0 UV-I 116 W/m 11,8 C 22,4 C 6,4 km/h (2 Bft) 95,45 %
13.06.2017 19:56 22,5 C 25,0 C 51 % 1013,4 hPa 0,0 l/m 0,9 km/h (0 Bft) W-SW 258 2 min 0,000 mm 0,0 UV-I 115 W/m 11,8 C 22,5 C 3,2 km/h (1 Bft) 94,34 %
13.06.2017 19:58 22,6 C 25,0 C 50 % 1013,4 hPa 0,0 l/m 0,9 km/h (0 Bft) N-NW 342 2 min 0,000 mm 0,0 UV-I 112 W/m 11,6 C 22,6 C 3,2 km/h (1 Bft) 92,68 %
13.06.2017 20:00 22,6 C 25,0 C 50 % 1013,4 hPa 0,0 l/m 2,0 km/h (1 Bft) NW 308 2 min 0,077 mm 0,0 UV-I 108 W/m 11,6 C 22,6 C 4,8 km/h (1 Bft) 97,87 %
13.06.2017 20:02 22,6 C 25,0 C 49 % 1013,4 hPa 0,0 l/m 1,1 km/h (1 Bft) W-SW 252 2 min 0,000 mm 0,0 UV-I 104 W/m 11,3 C 22,6 C 3,2 km/h (1 Bft) 96,43 %
13.06.2017 20:04 22,7 C 25,0 C 50 % 1013,3 hPa 0,0 l/m 2,4 km/h (1 Bft) W-SW 246 2 min 0,000 mm 0,0 UV-I 97 W/m 11,7 C 22,7 C 4,8 km/h (1 Bft) 97,56 %
13.06.2017 20:06 22,8 C 25,0 C 49 % 1013,4 hPa 0,0 l/m 3,8 km/h (1 Bft) W 275 2 min 0,000 mm 0,0 UV-I 89 W/m 11,5 C 22,8 C 6,4 km/h (2 Bft) 95,45 %
13.06.2017 20:08 22,8 C 25,0 C 50 % 1013,4 hPa 0,0 l/m 3,5 km/h (1 Bft) W-NW 284 2 min 0,000 mm 0,0 UV-I 86 W/m 11,8 C 22,8 C 6,4 km/h (2 Bft) 94,64 %
13.06.2017 20:10 22,7 C 25,0 C 50 % 1013,5 hPa 0,0 l/m 2,9 km/h (1 Bft) W-NW 284 2 min 0,000 mm 0,0 UV-I 80 W/m 11,7 C 22,7 C 6,4 km/h (2 Bft) 95,12 %
13.06.2017 20:12 22,7 C 25,0 C 50 % 1013,5 hPa 0,0 l/m 0,3 km/h (0 Bft) S 186 2 min 0,000 mm 0,0 UV-I 76 W/m 11,7 C 22,7 C 1,6 km/h (1 Bft) 98,00 %
13.06.2017 20:14 22,7 C 25,0 C 50 % 1013,5 hPa 0,0 l/m 0,9 km/h (0 Bft) S 186 2 min 0,000 mm 0,0 UV-I 72 W/m 11,7 C 22,7 C 3,2 km/h (1 Bft) 97,87 %
13.06.2017 20:16 22,6 C 25,0 C 49 % 1013,5 hPa 0,0 l/m 1,2 km/h (1 Bft) W-NW 296 2 min 0,000 mm 0,0 UV-I 66 W/m 11,3 C 22,6 C 4,8 km/h (1 Bft) 96,00 %
13.06.2017 20:18 22,5 C 25,0 C 48 % 1013,5 hPa 0,0 l/m 2,5 km/h (1 Bft) N 10 2 min 0,000 mm 0,0 UV-I 63 W/m 10,9 C 22,5 C 8,0 km/h (2 Bft) 97,44 %
13.06.2017 20:20 22,4 C 25,0 C 49 % 1013,5 hPa 0,0 l/m 1,1 km/h (1 Bft) W-NW 288 2 min 0,000 mm 0,0 UV-I 55 W/m 11,2 C 22,4 C 4,8 km/h (1 Bft) 96,00 %
13.06.2017 20:22 22,3 C 25,0 C 49 % 1013,5 hPa 0,0 l/m 1,2 km/h (1 Bft) NW 325 2 min 0,000 mm 0,0 UV-I 54 W/m 11,1 C 22,3 C 4,8 km/h (1 Bft) 98,00 %
13.06.2017 20:24 22,1 C 25,0 C 50 % 1013,5 hPa 0,0 l/m 3,1 km/h (1 Bft) W 277 2 min 0,000 mm 0,0 UV-I 48 W/m 11,2 C 22,1 C 6,4 km/h (2 Bft) 97,56 %
13.06.2017 20:26 21,9 C 25,0 C 51 % 1013,6 hPa 0,0 l/m 2,7 km/h (1 Bft) W 276 2 min 0,000 mm 0,0 UV-I 44 W/m 11,3 C 21,9 C 4,8 km/h (1 Bft) 97,87 %
13.06.2017 20:28 21,8 C 25,0 C 51 % 1013,6 hPa 0,0 l/m 0,9 km/h (0 Bft) W 273 2 min 0,000 mm 0,0 UV-I 41 W/m 11,2 C 21,8 C 3,2 km/h (1 Bft) 96,23 %
13.06.2017 20:30 21,7 C 25,0 C 52 % 1013,7 hPa 0,0 l/m 0,6 km/h (0 Bft) W 269 2 min 0,000 mm 0,0 UV-I 39 W/m 11,4 C 21,7 C 3,2 km/h (1 Bft) 100,00 %
13.06.2017 20:33 21,6 C 25,0 C 52 % 1013,7 hPa 0,0 l/m 1,0 km/h (0 Bft) W 268 3 min 0,000 mm 0,0 UV-I 35 W/m 11,3 C 21,6 C 3,2 km/h (1 Bft) 94,52 %
13.06.2017 20:34 21,6 C 25,0 C 53 % 1013,7 hPa 0,0 l/m 0,0 km/h (0 Bft) W 268 1 min 0,000 mm 0,0 UV-I 32 W/m 11,6 C 21,6 C 0,0 km/h (0 Bft) 96,67 %
13.06.2017 20:36 21,4 C 25,0 C 53 % 1013,7 hPa 0,0 l/m 0,3 km/h (0 Bft) W 268 2 min 0,000 mm 0,0 UV-I 32 W/m 11,4 C 21,4 C 1,6 km/h (1 Bft) 97,87 %
13.06.2017 20:38 21,3 C 25,0 C 54 % 1013,7 hPa 0,0 l/m 3,1 km/h (1 Bft) W 281 2 min 0,000 mm 0,0 UV-I 29 W/m 11,6 C 21,3 C 4,8 km/h (1 Bft) 97,73 %
13.06.2017 20:40 21,1 C 25,0 C 54 % 1013,7 hPa 0,0 l/m 2,9 km/h (1 Bft) N 350 0 min 0,000 mm 0,0 UV-I 23 W/m 11,4 C 21,1 C 12,9 km/h (3 Bft) 95,74 %
13.06.2017 20:42 21,0 C 25,0 C 53 % 1013,7 hPa 0,0 l/m 2,3 km/h (1 Bft) N-NO 27 0 min 0,000 mm 0,0 UV-I 18 W/m 11,0 C 21,0 C 8,0 km/h (2 Bft) 93,62 %
13.06.2017 20:44 20,9 C 25,0 C 53 % 1013,7 hPa 0,0 l/m 2,5 km/h (1 Bft) S 183 0 min 0,000 mm 0,0 UV-I 16 W/m 11,0 C 20,9 C 4,8 km/h (1 Bft) 97,37 %
13.06.2017 20:46 20,9 C 25,0 C 53 % 1013,7 hPa 0,0 l/m 2,5 km/h (1 Bft) SW 230 0 min 0,000 mm 0,0 UV-I 14 W/m 11,0 C 20,9 C 8,0 km/h (2 Bft) 98,11 %
13.06.2017 20:48 20,9 C 25,0 C 53 % 1013,9 hPa 0,0 l/m 1,0 km/h (0 Bft) SW 228 2 min 0,000 mm 0,0 UV-I 14 W/m 11,0 C 20,9 C 3,2 km/h (1 Bft) 98,00 %
13.06.2017 20:50 20,8 C 25,0 C 53 % 1013,9 hPa 0,0 l/m 3,0 km/h (1 Bft) W 261 2 min 0,000 mm 0,0 UV-I 12 W/m 10,9 C 20,8 C 9,7 km/h (2 Bft) 97,73 %
13.06.2017 20:52 20,8 C 25,0 C 53 % 1013,9 hPa 0,0 l/m 2,2 km/h (1 Bft) NW 323 2 min 0,000 mm 0,0 UV-I 12 W/m 10,9 C 20,8 C 4,8 km/h (1 Bft) 97,87 %
13.06.2017 20:54 20,7 C 25,0 C 53 % 1013,9 hPa 0,0 l/m 4,3 km/h (1 Bft) W 279 0 min 0,000 mm 0,0 UV-I 12 W/m 10,8 C 20,7 C 9,7 km/h (2 Bft) 97,62 %
13.06.2017 20:56 20,7 C 25,0 C 52 % 1014,0 hPa 0,0 l/m 3,9 km/h (1 Bft) W-SW 249 0 min 0,000 mm 0,0 UV-I 11 W/m 10,5 C 20,7 C 11,3 km/h (2 Bft) 100,00 %
13.06.2017 20:58 20,7 C 25,0 C 52 % 1014,0 hPa 0,0 l/m 1,8 km/h (1 Bft) W-NW 290 0 min 0,000 mm 0,0 UV-I 10 W/m 10,5 C 20,7 C 9,7 km/h (2 Bft) 98,00 %
13.06.2017 21:00 20,7 C 25,0 C 53 % 1014,0 hPa 0,0 l/m 2,7 km/h (1 Bft) W-NW 284 0 min 0,000 mm 0,0 UV-I 9 W/m 10,8 C 20,7 C 8,0 km/h (2 Bft) 100,00 %
13.06.2017 21:02 20,6 C 25,0 C 53 % 1014,0 hPa 0,0 l/m 3,7 km/h (1 Bft) NW 304 0 min 0,050 mm 0,0 UV-I 9 W/m 10,7 C 20,6 C 11,3 km/h (2 Bft) 97,37 %
13.06.2017 21:04 20,5 C 25,0 C 52 % 1014,1 hPa 0,0 l/m 3,9 km/h (1 Bft) W-SW 252 0 min 0,000 mm 0,0 UV-I 7 W/m 10,3 C 20,5 C 11,3 km/h (2 Bft) 98,39 %
13.06.2017 21:06 20,4 C 25,0 C 52 % 1014,1 hPa 0,0 l/m 4,1 km/h (1 Bft) W 276 0 min 0,000 mm 0,0 UV-I 7 W/m 10,2 C 20,4 C 6,4 km/h (2 Bft) 97,37 %
13.06.2017 21:08 20,4 C 25,0 C 52 % 1014,1 hPa 0,0 l/m 3,4 km/h (1 Bft) W-SW 253 0 min 0,000 mm 0,0 UV-I 7 W/m 10,2 C 20,4 C 11,3 km/h (2 Bft) 96,55 %
13.06.2017 21:10 20,4 C 25,0 C 52 % 1014,1 hPa 0,0 l/m 3,4 km/h (1 Bft) W-SW 252 0 min 0,000 mm 0,0 UV-I 7 W/m 10,2 C 20,4 C 8,0 km/h (2 Bft) 95,59 %
13.06.2017 21:12 20,3 C 25,0 C 52 % 1014,1 hPa 0,0 l/m 1,8 km/h (1 Bft) NW 315 0 min 0,000 mm 0,0 UV-I 5 W/m 10,1 C 20,3 C 4,8 km/h (1 Bft) 91,49 %
13.06.2017 21:14 20,3 C 25,0 C 52 % 1014,1 hPa 0,0 l/m 2,5 km/h (1 Bft) W 263 0 min 0,000 mm 0,0 UV-I 5 W/m 10,1 C 20,3 C 8,0 km/h (2 Bft) 96,00 %
13.06.2017 21:16 20,3 C 25,0 C 52 % 1014,1 hPa 0,0 l/m 3,9 km/h (1 Bft) W 265 0 min 0,000 mm 0,0 UV-I 5 W/m 10,1 C 20,3 C 11,3 km/h (2 Bft) 91,30 %
13.06.2017 21:18 20,3 C 25,0 C 53 % 1014,1 hPa 0,0 l/m 5,7 km/h (1 Bft) W-NW 285 0 min 0,000 mm 0,0 UV-I 5 W/m 10,4 C 20,3 C 14,5 km/h (3 Bft) 95,59 %
13.06.2017 21:20 20,3 C 25,0 C 52 % 1014,1 hPa 0,0 l/m 3,7 km/h (1 Bft) W 265 0 min 0,000 mm 0,0 UV-I 5 W/m 10,1 C 20,3 C 6,4 km/h (2 Bft) 96,00 %
13.06.2017 21:22 20,2 C 25,0 C 53 % 1014,2 hPa 0,0 l/m 1,7 km/h (1 Bft) W 267 0 min 0,000 mm 0,0 UV-I 0 W/m 10,3 C 20,2 C 4,8 km/h (1 Bft) 95,12 %
13.06.2017 21:24 20,1 C 25,0 C 53 % 1014,2 hPa 0,0 l/m 2,6 km/h (1 Bft) W-NW 285 0 min 0,000 mm 0,0 UV-I 0 W/m 10,2 C 20,1 C 6,4 km/h (2 Bft) 92,45 %
13.06.2017 21:26 20,0 C 25,0 C 53 % 1014,1 hPa 0,0 l/m 3,1 km/h (1 Bft) W 275 0 min 0,000 mm 0,0 UV-I 0 W/m 10,1 C 20,0 C 4,8 km/h (1 Bft) 97,14 %
13.06.2017 21:28 19,9 C 25,0 C 53 % 1014,2 hPa 0,0 l/m 3,9 km/h (1 Bft) W 271 0 min 0,000 mm 0,0 UV-I 0 W/m 10,0 C 19,9 C 6,4 km/h (2 Bft) 96,43 %
13.06.2017 21:30 19,9 C 25,0 C 53 % 1014,2 hPa 0,0 l/m 3,4 km/h (1 Bft) W 263 0 min 0,000 mm 0,0 UV-I 0 W/m 10,0 C 19,9 C 6,4 km/h (2 Bft) 97,56 %
13.06.2017 21:32 19,9 C 25,0 C 54 % 1014,3 hPa 0,0 l/m 2,9 km/h (1 Bft) W 263 0 min 0,000 mm 0,0 UV-I 0 W/m 10,3 C 19,9 C 4,8 km/h (1 Bft) 96,23 %
13.06.2017 21:34 19,8 C 25,0 C 54 % 1014,3 hPa 0,0 l/m 4,0 km/h (1 Bft) W 263 0 min 0,000 mm 0,0 UV-I 0 W/m 10,2 C 19,8 C 4,8 km/h (1 Bft) 97,62 %
13.06.2017 21:36 19,8 C 25,0 C 54 % 1014,3 hPa 0,0 l/m 3,9 km/h (1 Bft) W 264 0 min 0,000 mm 0,0 UV-I 0 W/m 10,2 C 19,8 C 6,4 km/h (2 Bft) 96,00 %
13.06.2017 21:38 19,8 C 25,0 C 54 % 1014,3 hPa 0,0 l/m 4,1 km/h (1 Bft) W 263 0 min 0,000 mm 0,0 UV-I 0 W/m 10,2 C 19,8 C 11,3 km/h (2 Bft) 92,00 %
13.06.2017 21:40 19,7 C 25,0 C 54 % 1014,3 hPa 0,0 l/m 5,4 km/h (1 Bft) W-SW 254 0 min 0,000 mm 0,0 UV-I 0 W/m 10,1 C 19,7 C 11,3 km/h (2 Bft) 96,00 %
13.06.2017 21:42 19,7 C 25,0 C 54 % 1014,3 hPa 0,0 l/m 6,1 km/h (2 Bft) W 267 0 min 0,000 mm 0,0 UV-I 0 W/m 10,1 C 19,7 C 11,3 km/h (2 Bft) 91,43 %
13.06.2017 21:44 19,8 C 25,0 C 54 % 1014,5 hPa 0,0 l/m 4,4 km/h (1 Bft) W 271 0 min 0,000 mm 0,0 UV-I 0 W/m 10,2 C 19,8 C 6,4 km/h (2 Bft) 94,00 %
13.06.2017 21:46 19,8 C 25,0 C 54 % 1014,5 hPa 0,0 l/m 4,0 km/h (1 Bft) W-NW 284 0 min 0,000 mm 0,0 UV-I 0 W/m 10,2 C 19,8 C 11,3 km/h (2 Bft) 95,74 %
13.06.2017 21:48 19,8 C 25,0 C 54 % 1014,5 hPa 0,0 l/m 5,7 km/h (1 Bft) W 263 0 min 0,000 mm 0,0 UV-I 0 W/m 10,2 C 19,8 C 9,7 km/h (2 Bft) 91,49 %
13.06.2017 21:50 19,7 C 25,0 C 55 % 1014,5 hPa 0,0 l/m 5,2 km/h (1 Bft) W 259 0 min 0,000 mm 0,0 UV-I 0 W/m 10,4 C 19,7 C 9,7 km/h (2 Bft) 92,00 %
13.06.2017 21:52 19,7 C 25,0 C 55 % 1014,5 hPa 0,0 l/m 4,5 km/h (1 Bft) W-SW 253 0 min 0,000 mm 0,0 UV-I 0 W/m 10,4 C 19,7 C 6,4 km/h (2 Bft) 92,00 %
13.06.2017 21:54 19,6 C 25,0 C 55 % 1014,5 hPa 0,0 l/m 3,8 km/h (1 Bft) W-SW 252 0 min 0,000 mm 0,0 UV-I 0 W/m 10,3 C 19,6 C 6,4 km/h (2 Bft) 97,37 %
13.06.2017 21:56 19,6 C 25,0 C 55 % 1014,5 hPa 0,0 l/m 5,4 km/h (1 Bft) W 263 0 min 0,000 mm 0,0 UV-I 0 W/m 10,3 C 19,6 C 11,3 km/h (2 Bft) 92,00 %
13.06.2017 21:58 19,6 C 25,0 C 54 % 1014,6 hPa 0,0 l/m 5,1 km/h (1 Bft) SW 225 0 min 0,000 mm 0,0 UV-I 0 W/m 10,0 C 19,6 C 9,7 km/h (2 Bft) 91,49 %
13.06.2017 22:00 19,6 C 25,0 C 55 % 1014,6 hPa 0,0 l/m 4,5 km/h (1 Bft) W-SW 245 0 min 0,000 mm 0,0 UV-I 0 W/m 10,3 C 19,6 C 8,0 km/h (2 Bft) 92,16 %
13.06.2017 22:02 19,6 C 25,0 C 55 % 1014,6 hPa 0,0 l/m 2,4 km/h (1 Bft) W-SW 245 0 min 0,026 mm 0,0 UV-I 0 W/m 10,3 C 19,6 C 3,2 km/h (1 Bft) 92,68 %
13.06.2017 22:04 19,4 C 25,0 C 55 % 1014,6 hPa 0,0 l/m 2,1 km/h (1 Bft) W-SW 245 0 min 0,000 mm 0,0 UV-I 0 W/m 10,1 C 19,4 C 3,2 km/h (1 Bft) 92,68 %
13.06.2017 22:06 19,4 C 25,0 C 56 % 1014,6 hPa 0,0 l/m 2,9 km/h (1 Bft) W-SW 245 0 min 0,000 mm 0,0 UV-I 0 W/m 10,4 C 19,4 C 4,8 km/h (1 Bft) 88,89 %
13.06.2017 22:08 19,2 C 25,0 C 57 % 1014,6 hPa 0,0 l/m 2,5 km/h (1 Bft) W-SW 245 0 min 0,000 mm 0,0 UV-I 0 W/m 10,5 C 19,2 C 4,8 km/h (1 Bft) 94,52 %
13.06.2017 22:10 19,1 C 25,0 C 57 % 1014,6 hPa 0,0 l/m 0,9 km/h (0 Bft) W-SW 245 0 min 0,000 mm 0,0 UV-I 0 W/m 10,4 C 19,1 C 1,6 km/h (1 Bft) 94,00 %
13.06.2017 22:12 18,9 C 25,0 C 58 % 1014,6 hPa 0,0 l/m 0,4 km/h (0 Bft) W-SW 245 0 min 0,000 mm 0,0 UV-I 0 W/m 10,5 C 18,9 C 1,6 km/h (1 Bft) 94,00 %
13.06.2017 22:14 18,8 C 25,0 C 59 % 1014,7 hPa 0,0 l/m 0,2 km/h (0 Bft) W-SW 245 0 min 0,000 mm 0,0 UV-I 0 W/m 10,6 C 18,8 C 1,6 km/h (1 Bft) 95,24 %
13.06.2017 22:16 18,6 C 25,0 C 61 % 1014,7 hPa 0,0 l/m 1,2 km/h (1 Bft) W-SW 243 0 min 0,000 mm 0,0 UV-I 0 W/m 10,9 C 18,6 C 3,2 km/h (1 Bft) 100,00 %
13.06.2017 22:18 18,3 C 25,0 C 62 % 1014,7 hPa 0,0 l/m 1,5 km/h (1 Bft) SW 234 0 min 0,000 mm 0,0 UV-I 0 W/m 10,9 C 18,3 C 3,2 km/h (1 Bft) 97,56 %
13.06.2017 22:20 18,1 C 25,0 C 63 % 1014,7 hPa 0,0 l/m 0,8 km/h (0 Bft) SW 234 0 min 0,000 mm 0,0 UV-I 0 W/m 10,9 C 18,1 C 1,6 km/h (1 Bft) 93,62 %
13.06.2017 22:22 17,8 C 25,0 C 64 % 1014,8 hPa 0,0 l/m 1,0 km/h (0 Bft) SW 234 0 min 0,000 mm 0,0 UV-I 0 W/m 10,9 C 17,8 C 1,6 km/h (1 Bft) 100,00 %
13.06.2017 22:24 17,6 C 25,0 C 65 % 1014,8 hPa 0,0 l/m 1,3 km/h (1 Bft) SW 234 0 min 0,000 mm 0,0 UV-I 0 W/m 10,9 C 17,6 C 3,2 km/h (1 Bft) 98,00 %
13.06.2017 22:26 17,4 C 25,0 C 65 % 1014,8 hPa 0,0 l/m 1,2 km/h (1 Bft) SW 234 0 min 0,000 mm 0,0 UV-I 0 W/m 10,8 C 17,4 C 3,2 km/h (1 Bft) 97,87 %
13.06.2017 22:28 17,3 C 25,0 C 66 % 1014,8 hPa 0,0 l/m 1,6 km/h (1 Bft) SW 234 0 min 0,000 mm 0,0 UV-I 0 W/m 10,9 C 17,3 C 3,2 km/h (1 Bft) 100,00 %
13.06.2017 22:30 17,2 C 25,0 C 66 % 1014,8 hPa 0,0 l/m 1,1 km/h (1 Bft) SW 234 0 min 0,000 mm 0,0 UV-I 0 W/m 10,8 C 17,2 C 3,2 km/h (1 Bft) 98,11 %
13.06.2017 22:32 17,2 C 25,0 C 66 % 1014,8 hPa 0,0 l/m 1,8 km/h (1 Bft) S-SW 204 0 min 0,000 mm 0,0 UV-I 0 W/m 10,8 C 17,2 C 4,8 km/h (1 Bft) 100,00 %
13.06.2017 22:34 17,3 C 25,0 C 66 % 1014,8 hPa 0,0 l/m 3,4 km/h (1 Bft) S-SW 192 0 min 0,000 mm 0,0 UV-I 0 W/m 10,9 C 17,3 C 4,8 km/h (1 Bft) 97,73 %
13.06.2017 22:36 17,4 C 25,0 C 65 % 1014,8 hPa 0,0 l/m 4,1 km/h (1 Bft) S-SW 193 0 min 0,000 mm 0,0 UV-I 0 W/m 10,8 C 17,4 C 6,4 km/h (2 Bft) 97,14 %
13.06.2017 22:38 17,5 C 25,0 C 65 % 1014,8 hPa 0,0 l/m 4,8 km/h (1 Bft) S 191 0 min 0,000 mm 0,0 UV-I 0 W/m 10,8 C 17,5 C 9,7 km/h (2 Bft) 98,11 %
13.06.2017 22:40 17,6 C 25,0 C 64 % 1014,8 hPa 0,0 l/m 4,4 km/h (1 Bft) S 180 0 min 0,000 mm 0,0 UV-I 0 W/m 10,7 C 17,6 C 8,0 km/h (2 Bft) 96,00 %
13.06.2017 22:42 17,6 C 25,0 C 65 % 1014,8 hPa 0,0 l/m 3,7 km/h (1 Bft) S 180 0 min 0,000 mm 0,0 UV-I 0 W/m 10,9 C 17,6 C 6,4 km/h (2 Bft) 96,00 %
13.06.2017 22:44 17,4 C 25,0 C 66 % 1014,8 hPa 0,0 l/m 2,5 km/h (1 Bft) S 181 0 min 0,000 mm 0,0 UV-I 0 W/m 11,0 C 17,4 C 6,4 km/h (2 Bft) 98,00 %
13.06.2017 22:46 17,2 C 25,0 C 66 % 1014,8 hPa 0,0 l/m 1,4 km/h (1 Bft) S 181 0 min 0,000 mm 0,0 UV-I 0 W/m 10,8 C 17,2 C 3,2 km/h (1 Bft) 97,56 %
13.06.2017 22:48 17,1 C 25,0 C 66 % 1014,8 hPa 0,0 l/m 0,6 km/h (0 Bft) S 181 0 min 0,000 mm 0,0 UV-I 0 W/m 10,7 C 17,1 C 1,6 km/h (1 Bft) 98,11 %
13.06.2017 22:50 17,1 C 25,0 C 67 % 1014,9 hPa 0,0 l/m 0,4 km/h (0 Bft) S 181 0 min 0,000 mm 0,0 UV-I 0 W/m 10,9 C 17,1 C 1,6 km/h (1 Bft) 97,37 %
13.06.2017 22:52 17,0 C 25,0 C 67 % 1014,9 hPa 0,0 l/m 0,7 km/h (0 Bft) S 181 0 min 0,000 mm 0,0 UV-I 0 W/m 10,8 C 17,0 C 1,6 km/h (1 Bft) 100,00 %
13.06.2017 22:54 17,1 C 25,0 C 67 % 1015,0 hPa 0,0 l/m 0,2 km/h (0 Bft) S 181 0 min 0,000 mm 0,0 UV-I 0 W/m 10,9 C 17,1 C 1,6 km/h (1 Bft) 98,08 %
13.06.2017 22:56 17,1 C 25,0 C 66 % 1014,9 hPa 0,0 l/m 0,0 km/h (0 Bft) S 181 0 min 0,000 mm 0,0 UV-I 0 W/m 10,7 C 17,1 C 0,0 km/h (0 Bft) 95,83 %
13.06.2017 22:58 17,1 C 25,0 C 66 % 1015,0 hPa 0,0 l/m 0,4 km/h (0 Bft) S 181 0 min 0,000 mm 0,0 UV-I 0 W/m 10,7 C 17,1 C 1,6 km/h (1 Bft) 100,00 %
13.06.2017 23:00 17,1 C 25,0 C 67 % 1015,0 hPa 0,0 l/m 0,0 km/h (0 Bft) S 181 0 min 0,025 mm 0,0 UV-I 0 W/m 10,9 C 17,1 C 1,6 km/h (1 Bft) 97,87 %
13.06.2017 23:02 17,1 C 25,0 C 67 % 1015,1 hPa 0,0 l/m 1,0 km/h (0 Bft) S 181 0 min 0,000 mm 0,0 UV-I 0 W/m 10,9 C 17,1 C 3,2 km/h (1 Bft) 96,00 %
13.06.2017 23:04 17,0 C 25,0 C 67 % 1015,1 hPa 0,0 l/m 0,3 km/h (0 Bft) S 181 0 min 0,000 mm 0,0 UV-I 0 W/m 10,8 C 17,0 C 3,2 km/h (1 Bft) 100,00 %
13.06.2017 23:06 16,9 C 25,0 C 67 % 1015,1 hPa 0,0 l/m 2,2 km/h (1 Bft) S 181 0 min 0,000 mm 0,0 UV-I 0 W/m 10,7 C 16,9 C 4,8 km/h (1 Bft) 96,00 %
13.06.2017 23:08 16,9 C 25,0 C 67 % 1015,1 hPa 0,0 l/m 1,1 km/h (1 Bft) S 181 0 min 0,000 mm 0,0 UV-I 0 W/m 10,7 C 16,9 C 3,2 km/h (1 Bft) 96,00 %
13.06.2017 23:10 16,9 C 25,0 C 68 % 1015,1 hPa 0,0 l/m 0,3 km/h (0 Bft) S 181 0 min 0,000 mm 0,0 UV-I 0 W/m 11,0 C 16,9 C 1,6 km/h (1 Bft) 97,37 %
13.06.2017 23:12 16,8 C 25,0 C 69 % 1015,1 hPa 0,0 l/m 0,7 km/h (0 Bft) S 181 0 min 0,000 mm 0,0 UV-I 0 W/m 11,1 C 16,8 C 1,6 km/h (1 Bft) 97,87 %
13.06.2017 23:14 16,7 C 25,0 C 69 % 1015,1 hPa 0,0 l/m 0,3 km/h (0 Bft) S 181 0 min 0,000 mm 0,0 UV-I 0 W/m 11,0 C 16,7 C 1,6 km/h (1 Bft) 100,00 %
13.06.2017 23:16 16,6 C 25,0 C 71 % 1015,1 hPa 0,0 l/m 0,1 km/h (0 Bft) S 181 0 min 0,000 mm 0,0 UV-I 0 W/m 11,3 C 16,6 C 1,6 km/h (1 Bft) 94,00 %
13.06.2017 23:18 16,6 C 25,0 C 71 % 1015,1 hPa 0,0 l/m 0,6 km/h (0 Bft) S 181 0 min 0,000 mm 0,0 UV-I 0 W/m 11,3 C 16,6 C 1,6 km/h (1 Bft) 100,00 %
13.06.2017 23:20 16,5 C 25,0 C 70 % 1015,1 hPa 0,0 l/m 0,4 km/h (0 Bft) S 181 0 min 0,000 mm 0,0 UV-I 0 W/m 11,0 C 16,5 C 1,6 km/h (1 Bft) 96,00 %
13.06.2017 23:22 16,4 C 25,0 C 71 % 1015,1 hPa 0,0 l/m 2,2 km/h (1 Bft) S 181 0 min 0,000 mm 0,0 UV-I 0 W/m 11,1 C 16,4 C 3,2 km/h (1 Bft) 100,00 %
13.06.2017 23:24 16,5 C 25,0 C 70 % 1015,1 hPa 0,0 l/m 2,5 km/h (1 Bft) S 181 0 min 0,000 mm 0,0 UV-I 0 W/m 11,0 C 16,5 C 4,8 km/h (1 Bft) 97,37 %
13.06.2017 23:26 16,7 C 25,0 C 70 % 1015,1 hPa 0,0 l/m 2,6 km/h (1 Bft) S 181 0 min 0,000 mm 0,0 UV-I 0 W/m 11,2 C 16,7 C 3,2 km/h (1 Bft) 92,45 %
13.06.2017 23:28 16,8 C 25,0 C 69 % 1015,1 hPa 0,0 l/m 2,2 km/h (1 Bft) S 181 0 min 0,000 mm 0,0 UV-I 0 W/m 11,1 C 16,8 C 4,8 km/h (1 Bft) 95,74 %
13.06.2017 23:30 16,9 C 25,0 C 69 % 1015,1 hPa 0,0 l/m 2,4 km/h (1 Bft) S 181 0 min 0,000 mm 0,0 UV-I 0 W/m 11,2 C 16,9 C 4,8 km/h (1 Bft) 95,24 %
13.06.2017 23:33 16,8 C 25,0 C 69 % 1015,2 hPa 0,0 l/m 2,3 km/h (1 Bft) S 181 0 min 0,000 mm 0,0 UV-I 0 W/m 11,1 C 16,8 C 6,4 km/h (2 Bft) 97,47 %
13.06.2017 23:34 16,8 C 25,0 C 69 % 1015,2 hPa 0,0 l/m 1,7 km/h (1 Bft) S 181 0 min 0,000 mm 0,0 UV-I 0 W/m 11,1 C 16,8 C 3,2 km/h (1 Bft) 100,00 %
13.06.2017 23:36 16,8 C 25,0 C 69 % 1015,2 hPa 0,0 l/m 3,7 km/h (1 Bft) S 181 0 min 0,000 mm 0,0 UV-I 0 W/m 11,1 C 16,8 C 6,4 km/h (2 Bft) 98,00 %
13.06.2017 23:38 16,7 C 25,0 C 70 % 1015,3 hPa 0,0 l/m 3,0 km/h (1 Bft) S 181 0 min 0,000 mm 0,0 UV-I 0 W/m 11,2 C 16,7 C 4,8 km/h (1 Bft) 95,74 %
13.06.2017 23:40 16,7 C 25,0 C 69 % 1015,3 hPa 0,0 l/m 2,0 km/h (1 Bft) S 181 0 min 0,000 mm 0,0 UV-I 0 W/m 11,0 C 16,7 C 4,8 km/h (1 Bft) 96,00 %
13.06.2017 23:42 16,7 C 25,0 C 69 % 1015,3 hPa 0,0 l/m 2,5 km/h (1 Bft) S 181 0 min 0,000 mm 0,0 UV-I 0 W/m 11,0 C 16,7 C 4,8 km/h (1 Bft) 100,00 %
13.06.2017 23:44 16,7 C 25,0 C 69 % 1015,3 hPa 0,0 l/m 1,5 km/h (1 Bft) S 181 0 min 0,000 mm 0,0 UV-I 0 W/m 11,0 C 16,7 C 3,2 km/h (1 Bft) 94,29 %
13.06.2017 23:46 16,7 C 25,0 C 69 % 1015,3 hPa 0,0 l/m 1,9 km/h (1 Bft) S 181 0 min 0,000 mm 0,0 UV-I 0 W/m 11,0 C 16,7 C 4,8 km/h (1 Bft) 96,43 %
13.06.2017 23:48 16,7 C 25,0 C 69 % 1015,3 hPa 0,0 l/m 0,7 km/h (0 Bft) S 181 0 min 0,000 mm 0,0 UV-I 0 W/m 11,0 C 16,7 C 3,2 km/h (1 Bft) 93,62 %
13.06.2017 23:50 16,6 C 25,0 C 70 % 1015,3 hPa 0,0 l/m 0,7 km/h (0 Bft) S 181 0 min 0,000 mm 0,0 UV-I 0 W/m 11,1 C 16,6 C 1,6 km/h (1 Bft) 95,74 %
13.06.2017 23:52 16,6 C 25,0 C 70 % 1015,4 hPa 0,0 l/m 0,3 km/h (0 Bft) S 181 0 min 0,000 mm 0,0 UV-I 0 W/m 11,1 C 16,6 C 3,2 km/h (1 Bft) 94,74 %
13.06.2017 23:54 16,6 C 25,0 C 70 % 1015,4 hPa 0,0 l/m 1,2 km/h (1 Bft) S 181 0 min 0,000 mm 0,0 UV-I 0 W/m 11,1 C 16,6 C 3,2 km/h (1 Bft) 95,74 %
13.06.2017 23:56 16,7 C 25,0 C 69 % 1015,4 hPa 0,0 l/m 0,0 km/h (0 Bft) S 181 0 min 0,000 mm 0,0 UV-I 0 W/m 11,0 C 16,7 C 0,0 km/h (0 Bft) 97,87 %
13.06.2017 23:58 16,6 C 25,0 C 69 % 1015,4 hPa 0,0 l/m 0,4 km/h (0 Bft) S 181 0 min 0,000 mm 0,0 UV-I 0 W/m 10,9 C 16,6 C 1,6 km/h (1 Bft) 94,00 %
_ Min-Zeit 23:22 04:30 17:02 16:50 - 19:50 - - - - - - 18:04 23:22 20:34 12:08
Minimum _ 16,4 C 23,3 C 35 % 1013,2 hPa - 0,0 km/h (0 Bft) - - - - - - 9,4 C 16,4 C 0,0 km/h (0 Bft) 86,84 %
_ Max-Zeit 16:38 16:28 06:36 08:30 00:00 11:46 - - 20:33 14:00 12:44 13:02 13:10 16:38 14:40 00:04
Maximum _ 26,6 C 25,6 C 72 % 1015,6 hPa 0,0 l/m 19,2 km/h
SW (3 Bft)
- - 3 min 0,661 mm 7,2 UV-I 925 W/m 13,1 C 26,5 C 33,8 km/h
W-SW (5 Bft)
100,00 %
Durchschnitt _ 21,3 C 24,3 C 53 % 1014,6 hPa #0,0 l/m 6,3 km/h (2 Bft) W-SW - #12:16 h #6,045 mm 4,0 UV-I 475 W/m 11,0 C 21,0 C 11,5 km/h (2 Bft) 96,48 %